[[{"header":{"parameterUnit":"m.s-1","parameterCategory":1,"la1":31.0,"la2":29.5877,"lo1":-88.7671,"lo2":-86.6584,"dy":0.0162,"dx":0.0185,"nx":115,"ny":88,"refTime":"2023-04-07T00:00:00:Z","depth":0,"parameterNumber":2,"parameterNumberName":"U-component_of_WINDS"},"data":[0.0,0.0,0.0,0.0,0.0,0.0,0.0,0.0,0.0,0.0,0.0,0.0,0.0,0.0,0.0,0.0,0.0,0.0,0.0,0.0,0.0,0.0,0.0,0.0,0.0,0.0,0.0,0.0,0.0,0.0,0.0,0.0,0.0,0.0,0.0,0.0,0.0,0.0,0.0,0.0,0.0,0.0,0.0,0.0,0.0,0.0,0.0,0.0,0.0,0.0,0.0,0.0,0.0,0.0,0.0,0.0,0.0,0.0,0.0,0.0,0.0,0.0,0.0,0.0,0.0,0.0,0.0,0.0,0.0,0.0,0.0,0.0,0.0,0.0,0.0,0.0,0.0,0.0,0.0,0.0,0.0,0.0,0.0,0.0,0.0,0.0,0.0,0.0,0.0,0.0,0.0,0.0,0.0,0.0,0.0,0.0,0.0,0.0,0.0,0.0,0.0,0.0,0.0,0.0,0.0,0.0,0.0,0.0,0.0,0.0,0.0,0.0,0.0,0.0,0.0,0.0,0.0,0.0,0.0,0.0,0.0,0.0,0.0,0.0,0.0,0.0,0.0,0.0,0.0,0.0,0.0,0.0,0.0,0.0,0.0,0.0,0.0,0.0,0.0,0.0,0.0,0.0,0.0,0.0,0.0,0.0,0.0,0.0,0.0,0.0,0.0,0.0,0.0,0.0,0.0,0.0,0.0,0.0,0.0,0.0,0.0,0.0,0.0,0.0,0.0,0.0,0.0,0.0,0.0,0.0,0.0,0.0,0.0,0.0,0.0,0.0,0.0,0.0,0.0,0.0,0.0,0.0,0.0,0.0,0.0,0.0,0.0,0.0,0.0,0.0,0.0,0.0,0.0,0.0,0.0,0.0,0.0,0.0,0.0,0.0,0.0,0.0,0.0,0.0,0.0,0.0,0.0,0.0,0.0,0.0,0.0,0.0,0.0,0.0,0.0,0.0,0.0,0.0,0.0,0.0,0.0,0.0,0.0,0.0,0.0,0.0,0.0,0.0,0.0,0.0,0.0,0.0,0.0,0.0,0.0,0.0,0.0,0.0,0.0,0.0,0.0,0.0,0.0,0.0,0.0,0.0,0.0,0.0,0.0,0.0,0.0,0.0,0.0,0.0,0.0,0.0,0.0,0.0,0.0,0.0,0.0,0.0,0.0,0.0,0.0,0.0,0.0,0.0,0.0,0.0,0.0,0.0,0.0,0.0,0.0,0.0,0.0,0.0,0.0,0.0,0.0,0.0,0.0,0.0,0.0,0.0,0.0,0.0,0.0,0.0,0.0,0.0,0.0,0.0,0.0,0.0,0.0,0.0,0.0,0.0,0.0,0.0,0.0,0.0,0.0,0.0,0.0,0.0,0.0,0.0,0.0,0.0,0.0,0.0,0.0,0.0,0.0,0.0,0.0,0.0,0.0,0.0,0.0,0.0,0.0,0.0,0.0,0.0,0.0,0.0,0.0,0.0,0.0,0.0,0.0,0.0,0.0,0.0,0.0,0.0,0.0,0.0,0.0,0.0,0.0,0.0,0.0,0.0,0.0,0.0,0.0,0.0,0.0,0.0,0.0,0.0,0.0,0.0,0.0,0.0,0.0,0.0,0.0,0.0,0.0,0.0,0.0,0.0,0.0,0.0,0.0,0.0,0.0,0.0,0.0,0.0,0.0,0.0,0.0,0.0,0.0,0.0,0.0,0.0,0.0,0.0,0.0,0.0,0.0,0.0,0.0,0.0,0.0,0.0,0.0,0.0,0.0,0.0,0.0,0.0,0.0,0.0,0.0,0.0,0.0,0.0,0.0,0.0,0.0,0.0,0.0,0.0,0.0,0.0,0.0,0.0,0.0,0.0,0.0,0.0,0.0,0.0,0.0,0.0,0.0,0.0,0.0,0.0,0.0,0.0,0.0,0.0,0.0,0.0,0.0,0.0,0.0,0.0,0.0,0.0,0.0,0.0,0.0,0.0,0.0,0.0,0.0,0.0,0.0,0.0,0.0,0.0,0.0,0.0,0.0,0.0,0.0,0.0,0.0,0.0,0.0,0.0,0.0,0.0,0.0,0.0,0.0,0.0,0.0,0.0,0.0,0.0,0.0,0.0,0.0,0.0,0.0,0.0,0.0,0.0,0.0,0.0,0.0,0.0,0.0,0.0,0.0,0.0,0.0,0.0,0.0,0.0,0.0,0.0,0.0,0.0,0.0,0.0,0.0,0.0,0.0,0.0,0.0,0.0,0.0,0.0,0.0,0.0,0.0,0.0,0.0,0.0,0.0,0.0,0.0,0.0,0.0,0.0,0.0,0.0,0.0,0.0,0.0,0.0,0.0,0.0,0.0,0.0,0.0,0.0,0.0,0.0,0.0,0.0,0.0,0.0,0.0,0.0,0.0,0.0,0.0,0.0,0.0,0.0,0.0,0.0,0.0,0.0,0.0,0.0,0.0,0.0,0.0,0.0,0.0,0.0,0.0,0.0,0.0,0.0,0.0,0.0,0.0,0.0,0.0,0.0,0.0,0.0,0.0,0.0,0.0,0.0,0.0,0.0,0.0,0.0,0.0,0.0,0.0,0.0,0.0,0.0,0.0,0.0,0.0,0.0,0.0,0.0,0.0,0.0,0.0,0.0,0.0,0.0,0.0,0.0,0.0,0.0,0.0,0.0,0.0,0.0,0.0,0.0,0.0,0.0,0.0,0.0,0.0,0.0,0.0,0.0,0.0,0.0,0.0,0.0,0.0,0.0,0.0,0.0,0.0,0.0,0.0,0.0,0.0,0.0,0.0,0.0,0.0,0.0,0.0,0.0,0.0,0.0,0.0,0.0,0.0,0.0,0.0,0.0,0.0,0.0,0.0,0.0,0.0,0.0,0.0,0.0,0.0,0.0,0.0,0.0,0.0,0.0,0.0,0.0,0.0,0.0,0.0,0.0,0.0,0.0,0.0,0.0,0.0,0.0,0.0,0.0,0.0,0.0,0.0,0.0,0.0,0.0,0.0,0.0,0.0,0.0,0.0,0.0,0.0,0.0,0.0,0.0,0.0,0.0,0.0,0.0,0.0,0.0,0.0,0.0,0.0,0.0,0.0,0.0,0.0,0.0,0.0,0.0,0.0,0.0,0.0,0.0,0.0,0.0,0.0,0.0,0.0,0.0,0.0,0.0,0.0,0.0,0.0,0.0,0.0,0.0,0.0,0.0,0.0,0.0,0.0,0.0,0.0,0.0,0.0,0.0,0.0,0.0,0.0,0.0,0.0,0.0,0.0,0.0,0.0,0.0,0.0,0.0,0.0,0.0,0.0,0.0,0.0,0.0,0.0,0.0,0.0,0.0,0.0,0.0,0.0,0.0,0.0,0.0,0.0,0.0,0.0,0.0,0.0,0.0,0.0,0.0,0.0,0.0,0.0,0.0,0.0,0.0,0.0,0.0,0.0,0.0,0.0,0.0,0.0,0.0,0.0,0.0,0.0,0.0,0.0,0.0,0.0,0.0,0.0,0.0,0.0,0.0,0.0,0.0,0.0,0.0,0.0,0.0,0.0,0.0,0.0,0.0,0.0,0.0,0.0,0.0,0.0,0.0,0.0,0.0,0.0,0.0,0.0,0.0,0.0,0.0,0.0,0.0,0.0,0.0,0.0,0.0,0.0,0.0,0.0,0.0,0.0,0.0,0.0,0.0,0.0,0.0,0.0,0.0,0.0,0.0,0.0,0.0,0.0,0.0,0.0,0.0,0.0,0.0,0.0,0.0,0.0,0.0,0.0,0.0,0.0,0.0,0.0,0.0,0.0,0.0,0.0,0.0,0.0,0.0,0.0,0.0,0.0,0.0,0.0,0.0,0.0,0.0,0.0,0.0,0.0,0.0,0.0,0.0,0.0,0.0,0.0,0.0,0.0,0.0,0.0,0.0,0.0,0.0,0.0,0.0,0.0,0.0,0.0,0.0,0.0,0.0,0.0,0.0,0.0,0.0,0.0,0.0,0.0,0.0,0.0,0.0,0.0,0.0,0.0,0.0,0.0,0.0,0.0,0.0,0.0,0.0,0.0,0.0,0.0,0.0,0.0,0.0,0.0,0.0,0.0,0.0,0.0,0.0,0.0,0.0,0.0,0.0,0.0,0.0,0.0,0.0,0.0,0.0,0.0,0.0,0.0,0.0,0.0,0.0,0.0,0.0,0.0,0.0,0.0,0.0,0.0,0.0,0.0,0.0,0.0,0.0,0.0,0.0,0.0,0.0,0.0,0.0,0.0,0.0,0.0,0.0,0.0,0.0,0.0,0.0,0.0,0.0,2.8301,0.0,0.0,0.0,0.0,0.0,0.0,0.0,0.0,0.0,0.0,0.0,0.0,0.0,0.0,0.0,0.0,0.0,0.0,0.0,0.0,0.0,0.0,0.0,0.0,0.0,0.0,0.0,0.0,0.0,0.0,0.0,0.0,0.0,0.0,0.0,0.0,0.0,0.0,0.0,0.0,0.0,0.0,0.0,0.0,0.0,0.0,0.0,0.0,0.0,0.0,0.0,0.0,0.0,0.0,0.0,0.0,0.0,0.0,0.0,0.0,0.0,0.0,0.0,0.0,0.0,0.0,0.0,0.0,0.0,0.0,0.0,0.0,0.0,0.0,0.0,0.0,0.0,0.0,0.0,0.0,0.0,0.0,0.0,0.0,0.0,0.0,0.0,0.0,0.0,0.0,0.0,0.0,0.0,0.0,0.0,0.0,0.0,0.0,0.0,0.0,0.0,0.0,0.0,0.0,0.0,0.0,0.0,0.0,0.0,0.0,2.8132,2.8281,2.8301,2.8301,2.8301,0.0,0.0,0.0,0.0,0.0,0.0,0.0,0.0,0.0,0.0,0.0,0.0,0.0,0.0,0.0,0.0,0.0,0.0,0.0,0.0,0.0,0.0,0.0,0.0,0.0,0.0,0.0,0.0,0.0,0.0,0.0,0.0,0.0,0.0,0.0,0.0,0.0,0.0,0.0,0.0,0.0,0.0,0.0,0.0,0.0,0.0,0.0,0.0,0.0,0.0,0.0,0.0,0.0,0.0,0.0,0.0,0.0,0.0,0.0,0.0,0.0,0.0,0.0,0.0,0.0,0.0,0.0,0.0,0.0,0.0,0.0,0.0,0.0,0.0,0.0,0.0,0.0,0.0,0.0,0.0,0.0,0.0,0.0,0.0,0.0,0.0,0.0,0.0,0.0,0.0,0.0,0.0,0.0,0.0,0.0,0.0,0.0,0.0,0.0,0.0,0.0,0.0,0.0,0.0,0.0,0.0,0.0,0.0,0.0,0.0,0.0,0.0,2.8301,2.8301,2.8301,0.0,0.0,0.0,0.0,0.0,0.0,0.0,0.0,0.0,0.0,0.0,0.0,0.0,0.0,0.0,0.0,0.0,0.0,0.0,0.0,0.0,0.0,0.0,0.0,0.0,0.0,0.0,0.0,0.0,0.0,0.0,0.0,0.0,0.0,0.0,0.0,0.0,0.0,0.0,0.0,0.0,0.0,0.0,0.0,0.0,0.0,0.0,0.0,0.0,0.0,0.0,0.0,0.0,0.0,0.0,0.0,0.0,0.0,0.0,0.0,0.0,0.0,0.0,0.0,0.0,0.0,0.0,0.0,0.0,0.0,0.0,0.0,0.0,0.0,0.0,0.0,0.0,0.0,0.0,0.0,0.0,0.0,0.0,0.0,0.0,0.0,0.0,0.0,0.0,0.0,0.0,0.0,0.0,0.0,0.0,0.0,0.0,0.0,0.0,0.0,0.0,0.0,0.0,0.0,0.0,0.0,0.0,0.0,0.0,0.0,2.8301,2.8301,2.8301,0.0,2.8301,0.0,0.0,0.0,0.0,0.0,0.0,0.0,0.0,0.0,0.0,0.0,0.0,0.0,0.0,0.0,0.0,0.0,0.0,0.0,0.0,0.0,0.0,0.0,0.0,0.0,0.0,0.0,0.0,0.0,0.0,0.0,0.0,0.0,0.0,0.0,0.0,0.0,0.0,0.0,0.0,0.0,0.0,0.0,0.0,0.0,0.0,0.0,0.0,0.0,0.0,0.0,0.0,0.0,0.0,0.0,0.0,0.0,0.0,0.0,0.0,0.0,0.0,0.0,0.0,0.0,0.0,0.0,0.0,0.0,0.0,0.0,0.0,0.0,0.0,0.0,0.0,0.0,0.0,0.0,0.0,0.0,0.0,0.0,0.0,0.0,0.0,0.0,0.0,0.0,0.0,0.0,0.0,0.0,0.0,0.0,0.0,0.0,0.0,0.0,0.0,0.0,0.0,0.0,0.0,0.0,0.0,0.0,0.0,0.0,0.0,2.8301,2.8301,2.8301,2.8301,0.0,0.0,0.0,0.0,0.0,0.0,0.0,0.0,0.0,0.0,0.0,0.0,0.0,0.0,0.0,0.0,0.0,0.0,0.0,0.0,0.0,0.0,0.0,0.0,0.0,0.0,0.0,0.0,0.0,0.0,0.0,0.0,0.0,0.0,0.0,0.0,0.0,0.0,0.0,0.0,0.0,0.0,0.0,0.0,0.0,0.0,0.0,0.0,0.0,0.0,0.0,0.0,0.0,0.0,0.0,0.0,0.0,0.0,0.0,0.0,0.0,0.0,0.0,0.0,0.0,0.0,0.0,0.0,0.0,0.0,0.0,0.0,0.0,0.0,0.0,0.0,0.0,0.0,0.0,0.0,0.0,0.0,0.0,0.0,0.0,0.0,0.0,0.0,0.0,0.0,0.0,0.0,0.0,0.0,0.0,0.0,0.0,0.0,0.0,0.0,0.0,0.0,0.0,0.0,0.0,0.0,0.0,0.0,0.0,0.0,2.8301,2.8301,2.8301,2.8301,2.8301,2.8301,0.0,0.0,0.0,0.0,0.0,0.0,0.0,0.0,0.0,0.0,0.0,0.0,0.0,0.0,0.0,0.0,0.0,0.0,0.0,0.0,0.0,0.0,0.0,0.0,0.0,0.0,0.0,0.0,0.0,0.0,0.0,0.0,0.0,0.0,0.0,0.0,0.0,0.0,0.0,0.0,0.0,0.0,0.0,0.0,0.0,0.0,0.0,0.0,0.0,0.0,0.0,0.0,0.0,0.0,0.0,0.0,0.0,0.0,0.0,0.0,0.0,0.0,0.0,0.0,0.0,0.0,0.0,0.0,0.0,0.0,0.0,0.0,0.0,0.0,0.0,0.0,0.0,0.0,0.0,0.0,0.0,0.0,0.0,0.0,0.0,0.0,0.0,0.0,0.0,0.0,0.0,0.0,0.0,0.0,0.0,0.0,0.0,0.0,0.0,0.0,0.0,0.0,0.0,0.0,0.0,0.0,0.0,0.0,2.8301,2.8301,2.8301,2.8301,2.8301,2.8301,0.0,0.0,0.0,0.0,0.0,0.0,0.0,0.0,0.0,0.0,0.0,0.0,0.0,0.0,0.0,0.0,0.0,0.0,0.0,0.0,0.0,0.0,0.0,0.0,0.0,0.0,0.0,0.0,0.0,0.0,0.0,0.0,0.0,0.0,0.0,0.0,0.0,0.0,0.0,0.0,0.0,0.0,0.0,0.0,0.0,0.0,0.0,0.0,0.0,0.0,0.0,0.0,0.0,0.0,0.0,0.0,0.0,0.0,0.0,0.0,0.0,0.0,0.0,0.0,0.0,0.0,0.0,0.0,0.0,0.0,0.0,0.0,0.0,0.0,0.0,0.0,0.0,0.0,0.0,0.0,0.0,0.0,0.0,0.0,0.0,0.0,0.0,0.0,0.0,0.0,0.0,0.0,0.0,0.0,0.0,0.0,0.0,0.0,0.0,0.0,0.0,0.0,0.0,0.0,0.0,0.0,0.0,0.0,0.0,2.8301,2.8301,2.8301,2.8301,2.8301,2.8418,0.0,0.0,0.0,0.0,0.0,0.0,0.0,0.0,0.0,0.0,0.0,0.0,0.0,0.0,0.0,0.0,0.0,0.0,0.0,0.0,0.0,0.0,0.0,0.0,0.0,0.0,0.0,0.0,0.0,0.0,0.0,0.0,0.0,0.0,0.0,0.0,0.0,0.0,0.0,0.0,0.0,0.0,0.0,0.0,0.0,0.0,0.0,0.0,0.0,0.0,0.0,0.0,0.0,0.0,0.0,0.0,0.0,0.0,0.0,0.0,0.0,0.0,0.0,0.0,0.0,0.0,0.0,0.0,0.0,0.0,0.0,0.0,0.0,0.0,0.0,0.0,0.0,0.0,0.0,0.0,0.0,0.0,0.0,0.0,0.0,0.0,0.0,0.0,0.0,0.0,0.0,0.0,0.0,0.0,0.0,0.0,0.0,0.0,0.0,0.0,0.0,0.0,0.0,0.0,0.0,0.0,0.0,0.0,0.0,2.8301,0.0,2.8359,2.8496,2.8496,2.8691,0.0,0.0,0.0,0.0,0.0,0.0,0.0,0.0,0.0,0.0,0.0,0.0,0.0,0.0,0.0,0.0,0.0,0.0,0.0,0.0,0.0,0.0,0.0,0.0,0.0,0.0,0.0,0.0,0.0,0.0,0.0,0.0,0.0,0.0,0.0,0.0,0.0,0.0,0.0,0.0,0.0,0.0,0.0,0.0,0.0,0.0,0.0,0.0,0.0,0.0,0.0,0.0,0.0,0.0,0.0,0.0,0.0,0.0,0.0,0.0,0.0,0.0,0.0,0.0,0.0,0.0,0.0,0.0,0.0,0.0,0.0,0.0,0.0,0.0,0.0,0.0,0.0,0.0,0.0,0.0,0.0,0.0,0.0,0.0,0.0,0.0,0.0,0.0,0.0,0.0,0.0,0.0,0.0,0.0,0.0,0.0,0.0,0.0,0.0,0.0,0.0,0.0,0.0,0.0,0.0,0.0,0.0,0.0,2.8301,2.8301,2.832,2.8496,2.8906,2.8879,2.9121,0.0,0.0,0.0,0.0,0.0,0.0,0.0,0.0,0.0,0.0,0.0,0.0,0.0,0.0,0.0,0.0,0.0,0.0,0.0,0.0,0.0,0.0,0.0,0.0,0.0,0.0,0.0,0.0,0.0,0.0,0.0,0.0,0.0,0.0,0.0,0.0,0.0,0.0,0.0,0.0,0.0,0.0,0.0,0.0,0.0,0.0,0.0,0.0,0.0,0.0,0.0,0.0,0.0,0.0,0.0,0.0,0.0,0.0,0.0,0.0,0.0,0.0,0.0,0.0,0.0,0.0,0.0,0.0,0.0,0.0,0.0,0.0,0.0,0.0,0.0,0.0,0.0,0.0,0.0,0.0,0.0,0.0,0.0,0.0,0.0,0.0,0.0,0.0,0.0,0.0,0.0,0.0,0.0,0.0,0.0,0.0,0.0,0.0,0.0,0.0,0.0,0.0,0.0,0.0,0.0,0.0,0.0,0.0,0.0,2.8301,2.8574,2.8762,2.8879,2.9219,2.9598,0.0,0.0,0.0,0.0,0.0,0.0,0.0,0.0,0.0,0.0,0.0,0.0,0.0,0.0,0.0,0.0,0.0,0.0,0.0,0.0,0.0,0.0,0.0,0.0,0.0,0.0,0.0,0.0,0.0,0.0,0.0,0.0,0.0,0.0,0.0,0.0,0.0,0.0,0.0,0.0,0.0,0.0,0.0,0.0,0.0,0.0,0.0,0.0,0.0,0.0,0.0,0.0,0.0,0.0,0.0,0.0,0.0,0.0,0.0,0.0,0.0,0.0,0.0,0.0,0.0,0.0,0.0,0.0,0.0,0.0,0.0,0.0,0.0,0.0,0.0,0.0,0.0,0.0,0.0,0.0,0.0,0.0,0.0,0.0,0.0,0.0,0.0,0.0,0.0,0.0,0.0,0.0,0.0,0.0,0.0,0.0,0.0,0.0,0.0,0.0,0.0,0.0,0.0,0.0,0.0,0.0,0.0,0.0,0.0,2.8535,2.8762,2.9082,2.9394,2.9668,3.0048,3.043,0.0,0.0,0.0,0.0,0.0,0.0,0.0,0.0,0.0,0.0,0.0,0.0,0.0,0.0,0.0,0.0,0.0,0.0,0.0,0.0,0.0,0.0,0.0,0.0,0.0,0.0,0.0,0.0,0.0,0.0,0.0,0.0,0.0,0.0,0.0,0.0,0.0,0.0,0.0,0.0,0.0,0.0,0.0,0.0,0.0,0.0,0.0,0.0,0.0,0.0,0.0,0.0,0.0,0.0,0.0,0.0,0.0,0.0,0.0,0.0,0.0,0.0,0.0,0.0,0.0,0.0,0.0,0.0,0.0,0.0,0.0,0.0,0.0,0.0,0.0,0.0,0.0,0.0,0.0,0.0,0.0,0.0,0.0,0.0,0.0,0.0,0.0,0.0,0.0,0.0,0.0,0.0,0.0,0.0,0.0,0.0,0.0,0.0,0.0,0.0,0.0,0.0,0.0,0.0,0.0,0.0,0.0,0.0,2.8957,2.8976,2.9347,3.0156,3.0215,3.0449,0.0,0.0,0.0,0.0,0.0,0.0,0.0,0.0,0.0,0.0,0.0,0.0,0.0,0.0,0.0,0.0,0.0,0.0,0.0,0.0,0.0,0.0,0.0,0.0,0.0,0.0,0.0,0.0,0.0,0.0,0.0,0.0,0.0,0.0,0.0,0.0,0.0,0.0,0.0,0.0,0.0,0.0,0.0,0.0,0.0,0.0,0.0,0.0,0.0,0.0,0.0,0.0,0.0,0.0,0.0,0.0,0.0,0.0,0.0,0.0,0.0,0.0,0.0,0.0,0.0,0.0,0.0,0.0,0.0,0.0,0.0,0.0,0.0,0.0,0.0,0.0,0.0,0.0,0.0,0.0,0.0,0.0,0.0,0.0,0.0,0.0,0.0,0.0,0.0,0.0,0.0,0.0,0.0,0.0,0.0,0.0,0.0,0.0,0.0,0.0,0.0,0.0,0.0,0.0,0.0,0.0,0.0,0.0,0.0,2.9844,2.9863,2.9961,3.0195,3.0527,3.0791,0.0,0.0,0.0,0.0,0.0,0.0,0.0,0.0,0.0,0.0,0.0,0.0,0.0,0.0,0.0,0.0,0.0,0.0,0.0,0.0,0.0,0.0,0.0,0.0,0.0,0.0,0.0,0.0,0.0,0.0,0.0,0.0,0.0,0.0,0.0,0.0,0.0,0.0,0.0,0.0,0.0,0.0,0.0,0.0,0.0,0.0,0.0,0.0,0.0,0.0,0.0,0.0,0.0,0.0,0.0,0.0,0.0,0.0,0.0,0.0,0.0,0.0,0.0,0.0,0.0,0.0,0.0,0.0,0.0,0.0,0.0,0.0,0.0,0.0,0.0,0.0,0.0,0.0,0.0,0.0,0.0,0.0,0.0,0.0,0.0,0.0,0.0,0.0,0.0,0.0,0.0,0.0,0.0,0.0,0.0,0.0,0.0,0.0,0.0,0.0,0.0,0.0,0.0,0.0,0.0,0.0,0.0,0.0,2.997,3.0195,3.0391,3.0488,3.0488,3.0742,3.082,0.0,0.0,0.0,0.0,0.0,0.0,0.0,0.0,0.0,0.0,0.0,0.0,0.0,0.0,0.0,0.0,0.0,0.0,0.0,0.0,0.0,0.0,0.0,0.0,0.0,0.0,0.0,0.0,0.0,0.0,0.0,0.0,0.0,0.0,0.0,0.0,0.0,0.0,0.0,0.0,0.0,0.0,0.0,0.0,0.0,0.0,0.0,0.0,0.0,0.0,0.0,0.0,0.0,0.0,0.0,0.0,0.0,0.0,0.0,0.0,0.0,0.0,0.0,0.0,0.0,0.0,0.0,0.0,0.0,0.0,0.0,0.0,0.0,0.0,0.0,0.0,0.0,0.0,0.0,0.0,0.0,0.0,0.0,0.0,0.0,0.0,0.0,0.0,0.0,0.0,0.0,0.0,0.0,0.0,0.0,0.0,0.0,0.0,0.0,0.0,0.0,0.0,0.0,0.0,0.0,0.0,0.0,0.0,3.0254,3.0273,3.0684,3.0928,3.0928,3.0928,3.0733,0.0,0.0,0.0,0.0,0.0,0.0,0.0,0.0,0.0,0.0,0.0,0.0,0.0,0.0,0.0,0.0,0.0,0.0,0.0,0.0,0.0,0.0,0.0,0.0,0.0,0.0,0.0,0.0,0.0,0.0,0.0,0.0,0.0,0.0,0.0,0.0,0.0,0.0,0.0,0.0,0.0,0.0,0.0,0.0,0.0,0.0,0.0,0.0,0.0,0.0,0.0,0.0,0.0,0.0,0.0,0.0,0.0,0.0,0.0,0.0,0.0,0.0,0.0,0.0,0.0,0.0,0.0,0.0,0.0,0.0,0.0,0.0,0.0,0.0,0.0,0.0,0.0,0.0,0.0,0.0,0.0,0.0,0.0,0.0,0.0,0.0,0.0,0.0,0.0,0.0,0.0,0.0,0.0,0.0,0.0,0.0,0.0,0.0,0.0,0.0,0.0,0.0,0.0,0.0,0.0,0.0,0.0,0.0,3.0742,3.0742,3.084,3.0928,3.0928,3.0928,3.0733,0.0,0.0,0.0,0.0,0.0,0.0,0.0,0.0,0.0,0.0,0.0,0.0,0.0,0.0,0.0,0.0,0.0,0.0,0.0,0.0,0.0,0.0,0.0,0.0,0.0,0.0,0.0,0.0,0.0,0.0,0.0,0.0,0.0,0.0,0.0,0.0,0.0,0.0,0.0,0.0,0.0,0.0,0.0,0.0,0.0,0.0,0.0,0.0,3.4434,0.0,0.0,0.0,0.0,0.0,0.0,0.0,0.0,0.0,0.0,0.0,0.0,0.0,0.0,0.0,0.0,0.0,0.0,0.0,0.0,0.0,0.0,0.0,0.0,0.0,0.0,0.0,0.0,0.0,0.0,0.0,0.0,0.0,0.0,0.0,0.0,0.0,0.0,0.0,0.0,0.0,0.0,0.0,0.0,0.0,0.0,0.0,0.0,0.0,0.0,0.0,0.0,0.0,0.0,0.0,0.0,0.0,0.0,0.0,3.0928,3.0928,3.0928,3.0928,3.0928,3.0928,3.0674,0.0,0.0,0.0,0.0,0.0,0.0,0.0,0.0,0.0,0.0,0.0,0.0,0.0,0.0,0.0,0.0,0.0,0.0,0.0,0.0,0.0,0.0,0.0,0.0,0.0,0.0,0.0,0.0,0.0,0.0,0.0,0.0,0.0,0.0,0.0,0.0,0.0,0.0,0.0,0.0,0.0,0.0,0.0,0.0,0.0,0.0,0.0,0.0,0.0,0.0,0.0,0.0,0.0,0.0,0.0,0.0,0.0,0.0,0.0,0.0,0.0,0.0,0.0,0.0,0.0,0.0,0.0,0.0,0.0,0.0,0.0,0.0,0.0,0.0,0.0,0.0,0.0,0.0,0.0,0.0,0.0,0.0,0.0,0.0,0.0,0.0,0.0,0.0,0.0,0.0,0.0,0.0,0.0,0.0,0.0,0.0,0.0,0.0,0.0,0.0,0.0,0.0,0.0,0.0,0.0,0.0,0.0,3.0928,3.0928,3.0928,3.0928,3.0928,3.0898,3.085,3.0528,2.9922,0.0,0.0,0.0,0.0,0.0,0.0,0.0,0.0,0.0,0.0,0.0,0.0,0.0,0.0,0.0,0.0,0.0,0.0,0.0,0.0,0.0,0.0,0.0,0.0,0.0,0.0,0.0,0.0,0.0,0.0,0.0,0.0,0.0,0.0,0.0,0.0,0.0,0.0,3.3484,3.3887,0.0,0.0,0.0,0.0,0.0,0.0,0.0,0.0,3.5234,0.0,0.0,0.0,0.0,0.0,0.0,0.0,0.0,0.0,0.0,0.0,0.0,0.0,0.0,0.0,0.0,0.0,0.0,0.0,0.0,0.0,0.0,0.0,0.0,0.0,0.0,0.0,0.0,0.0,0.0,0.0,0.0,0.0,0.0,0.0,0.0,0.0,0.0,0.0,0.0,0.0,0.0,0.0,0.0,0.0,0.0,0.0,0.0,0.0,0.0,0.0,0.0,0.0,0.0,0.0,0.0,3.0928,3.0928,3.0928,3.0928,3.0928,3.0928,3.0898,3.0626,3.0304,2.9922,0.0,0.0,0.0,0.0,0.0,0.0,0.0,0.0,0.0,0.0,0.0,0.0,0.0,0.0,0.0,0.0,0.0,0.0,0.0,0.0,0.0,0.0,0.0,0.0,0.0,0.0,0.0,0.0,0.0,0.0,0.0,0.0,0.0,0.0,0.0,0.0,0.0,0.0,0.0,3.4336,3.459,0.0,0.0,0.0,0.0,0.0,0.0,0.0,0.0,3.5898,0.0,0.0,0.0,0.0,0.0,0.0,0.0,0.0,0.0,0.0,0.0,0.0,0.0,0.0,0.0,0.0,0.0,0.0,0.0,0.0,0.0,0.0,0.0,0.0,0.0,0.0,0.0,0.0,0.0,0.0,0.0,0.0,0.0,0.0,0.0,0.0,0.0,0.0,0.0,0.0,0.0,0.0,0.0,0.0,0.0,0.0,0.0,0.0,0.0,0.0,0.0,0.0,0.0,0.0,0.0,3.0928,3.0928,3.0928,3.0928,3.1094,3.1211,3.1211,3.1079,3.0896,0.0,0.0,0.0,0.0,0.0,0.0,0.0,0.0,0.0,0.0,0.0,0.0,0.0,0.0,0.0,0.0,0.0,0.0,0.0,0.0,0.0,0.0,0.0,0.0,0.0,0.0,0.0,0.0,0.0,0.0,0.0,0.0,0.0,0.0,0.0,0.0,0.0,0.0,0.0,0.0,3.4785,3.5059,3.5059,0.0,0.0,0.0,0.0,0.0,0.0,3.6035,3.6035,0.0,0.0,0.0,0.0,0.0,0.0,0.0,0.0,0.0,0.0,0.0,0.0,0.0,0.0,0.0,0.0,0.0,0.0,0.0,0.0,0.0,0.0,0.0,0.0,0.0,0.0,0.0,0.0,0.0,0.0,0.0,0.0,0.0,0.0,0.0,0.0,0.0,0.0,0.0,0.0,0.0,0.0,0.0,0.0,0.0,0.0,0.0,0.0,0.0,0.0,0.0,0.0,0.0,0.0,0.0,3.1016,3.1045,3.1055,3.1152,3.1465,3.1611,3.154,3.1518,3.1386,0.0,0.0,0.0,0.0,0.0,0.0,0.0,0.0,0.0,0.0,0.0,0.0,0.0,0.0,0.0,0.0,0.0,0.0,0.0,0.0,0.0,0.0,0.0,0.0,0.0,0.0,0.0,0.0,0.0,0.0,0.0,0.0,0.0,0.0,0.0,0.0,0.0,0.0,0.0,0.0,0.0,3.5527,3.5527,3.5801,0.0,0.0,0.0,0.0,3.6269,3.6269,0.0,0.0,0.0,0.0,0.0,0.0,0.0,0.0,0.0,0.0,0.0,0.0,0.0,0.0,0.0,0.0,0.0,0.0,0.0,0.0,0.0,0.0,0.0,0.0,0.0,0.0,0.0,0.0,0.0,0.0,0.0,0.0,0.0,0.0,0.0,0.0,0.0,0.0,0.0,0.0,0.0,0.0,0.0,0.0,0.0,0.0,0.0,0.0,0.0,0.0,0.0,0.0,0.0,0.0,0.0,0.0,3.1426,3.1416,3.1621,3.2022,3.2101,3.1968,3.1584,3.1367,3.111,0.0,0.0,0.0,0.0,0.0,0.0,0.0,0.0,0.0,0.0,0.0,0.0,0.0,0.0,0.0,0.0,0.0,0.0,0.0,0.0,0.0,0.0,0.0,0.0,0.0,0.0,0.0,0.0,0.0,0.0,0.0,0.0,0.0,0.0,0.0,0.0,0.0,0.0,0.0,0.0,0.0,3.5957,3.5957,3.5976,3.6152,0.0,0.0,0.0,3.709,3.7148,0.0,0.0,0.0,0.0,0.0,0.0,0.0,0.0,0.0,0.0,0.0,0.0,0.0,0.0,0.0,0.0,0.0,0.0,0.0,0.0,0.0,0.0,0.0,0.0,0.0,0.0,0.0,0.0,0.0,0.0,0.0,0.0,0.0,0.0,0.0,0.0,0.0,0.0,0.0,0.0,0.0,0.0,0.0,0.0,0.0,0.0,0.0,0.0,0.0,0.0,0.0,0.0,0.0,0.0,0.0,3.0879,3.1252,3.129,3.1367,3.1589,3.185,3.1872,3.1686,3.1634,3.1546,0.0,0.0,0.0,0.0,0.0,0.0,0.0,0.0,0.0,0.0,0.0,0.0,0.0,0.0,0.0,0.0,0.0,0.0,0.0,0.0,0.0,0.0,0.0,0.0,0.0,0.0,0.0,0.0,0.0,0.0,0.0,0.0,0.0,0.0,0.0,0.0,0.0,0.0,0.0,0.0,0.0,0.0,3.5712,3.5889,0.0,0.0,0.0,3.6422,3.6614,0.0,0.0,0.0,0.0,0.0,0.0,0.0,0.0,0.0,0.0,0.0,0.0,0.0,0.0,0.0,0.0,0.0,0.0,0.0,0.0,0.0,0.0,0.0,0.0,0.0,0.0,0.0,0.0,0.0,0.0,0.0,0.0,0.0,0.0,0.0,0.0,0.0,0.0,0.0,0.0,0.0,0.0,0.0,0.0,0.0,0.0,0.0,0.0,0.0,0.0,0.0,0.0,0.0,0.0,0.0,0.0,0.0,3.1262,3.128,3.1337,3.1432,3.1765,3.1936,3.181,3.1856,0.0,0.0,0.0,0.0,0.0,0.0,0.0,0.0,0.0,0.0,0.0,0.0,0.0,0.0,0.0,0.0,0.0,0.0,0.0,0.0,0.0,0.0,0.0,0.0,0.0,0.0,0.0,3.4271,0.0,0.0,0.0,0.0,0.0,0.0,0.0,0.0,0.0,0.0,0.0,0.0,0.0,0.0,3.5644,3.5644,3.5892,3.6138,0.0,0.0,3.6289,3.6402,3.6421,3.6402,0.0,0.0,0.0,0.0,0.0,0.0,0.0,0.0,0.0,0.0,0.0,0.0,0.0,0.0,0.0,0.0,0.0,0.0,0.0,0.0,0.0,0.0,0.0,0.0,0.0,0.0,0.0,0.0,0.0,0.0,0.0,0.0,0.0,0.0,0.0,0.0,0.0,0.0,0.0,0.0,0.0,0.0,0.0,0.0,0.0,0.0,0.0,0.0,0.0,0.0,0.0,0.0,0.0,0.0,0.0,3.1727,3.1778,3.1917,3.2295,3.2333,3.2192,3.1905,3.1878,3.175,0.0,0.0,0.0,0.0,0.0,0.0,0.0,0.0,0.0,0.0,0.0,0.0,0.0,0.0,0.0,0.0,0.0,0.0,0.0,0.0,0.0,0.0,0.0,0.0,0.0,0.0,0.0,0.0,0.0,0.0,0.0,0.0,0.0,0.0,0.0,0.0,0.0,0.0,0.0,0.0,0.0,3.6062,3.6062,3.6081,3.6251,0.0,0.0,3.6891,3.7233,3.729,3.7326,3.729,0.0,0.0,0.0,0.0,0.0,0.0,0.0,0.0,0.0,0.0,0.0,0.0,0.0,0.0,0.0,0.0,0.0,0.0,0.0,0.0,0.0,0.0,0.0,0.0,0.0,0.0,0.0,0.0,0.0,0.0,0.0,0.0,0.0,0.0,0.0,0.0,0.0,0.0,0.0,0.0,0.0,0.0,0.0,0.0,0.0,0.0,0.0,0.0,0.0,0.0,0.0,0.0,0.0,3.1132,3.154,3.1572,3.1744,3.2134,3.2153,3.2218,3.2327,3.2345,3.2261,0.0,0.0,0.0,0.0,0.0,0.0,0.0,0.0,0.0,0.0,0.0,0.0,0.0,0.0,0.0,0.0,0.0,0.0,0.0,0.0,0.0,0.0,0.0,0.0,0.0,0.0,0.0,0.0,3.4566,3.4789,3.5188,0.0,0.0,0.0,0.0,0.0,0.0,0.0,0.0,0.0,0.0,3.5357,3.5103,3.5266,0.0,0.0,3.5685,3.5739,3.5885,3.5903,3.594,3.5903,3.5791,0.0,0.0,0.0,0.0,0.0,0.0,0.0,0.0,0.0,0.0,0.0,0.0,0.0,0.0,0.0,0.0,0.0,0.0,0.0,0.0,0.0,0.0,0.0,0.0,0.0,0.0,0.0,0.0,0.0,0.0,0.0,0.0,0.0,0.0,0.0,0.0,0.0,0.0,0.0,0.0,0.0,0.0,0.0,0.0,0.0,0.0,0.0,0.0,0.0,0.0,0.0,0.0,3.0997,3.1237,3.1378,3.1563,3.1854,3.1854,3.1981,3.2253,3.2271,3.232,0.0,0.0,0.0,0.0,0.0,0.0,0.0,0.0,0.0,0.0,0.0,0.0,0.0,0.0,0.0,0.0,0.0,0.0,0.0,0.0,0.0,0.0,0.0,0.0,0.0,0.0,0.0,0.0,3.4916,3.5135,3.5151,0.0,0.0,0.0,0.0,0.0,0.0,0.0,0.0,0.0,0.0,3.4895,3.4599,3.483,3.5007,3.5007,3.5113,3.5184,3.5184,3.5291,3.5362,3.5362,0.0,0.0,0.0,0.0,0.0,0.0,0.0,0.0,0.0,0.0,0.0,0.0,0.0,0.0,0.0,0.0,0.0,0.0,0.0,0.0,0.0,0.0,0.0,0.0,0.0,0.0,0.0,0.0,0.0,0.0,3.2312,0.0,0.0,0.0,0.0,0.0,0.0,0.0,0.0,0.0,0.0,0.0,0.0,0.0,0.0,0.0,0.0,0.0,0.0,0.0,0.0,0.0,0.0,3.0893,3.0928,3.1316,3.1496,3.1513,3.1513,3.1531,3.16,3.1531,3.17,3.2036,0.0,0.0,0.0,0.0,0.0,0.0,0.0,0.0,0.0,0.0,0.0,0.0,0.0,0.0,0.0,0.0,0.0,0.0,0.0,0.0,0.0,0.0,0.0,0.0,0.0,0.0,3.5347,3.5534,3.5241,0.0,0.0,0.0,0.0,0.0,0.0,0.0,0.0,0.0,0.0,3.4759,3.4989,3.4952,3.4969,3.4967,3.4987,3.5306,3.5554,3.5516,3.5852,3.6156,0.0,0.0,0.0,0.0,0.0,0.0,0.0,0.0,0.0,0.0,0.0,0.0,0.0,0.0,0.0,0.0,0.0,0.0,0.0,0.0,0.0,0.0,0.0,0.0,0.0,0.0,0.0,3.285,3.2801,0.0,0.0,0.0,0.0,0.0,0.0,0.0,0.0,0.0,0.0,0.0,3.1576,3.1609,0.0,0.0,0.0,0.0,0.0,0.0,0.0,0.0,0.0,0.0,0.0,0.0,3.1302,3.1302,3.1426,3.1621,3.1869,3.1903,3.2045,3.2294,3.2277,3.2484,3.2829,0.0,0.0,0.0,0.0,0.0,0.0,0.0,0.0,0.0,0.0,0.0,0.0,0.0,0.0,0.0,0.0,0.0,0.0,0.0,0.0,0.0,0.0,0.0,0.0,0.0,3.4518,0.0,0.0,0.0,0.0,0.0,0.0,0.0,0.0,0.0,0.0,0.0,3.4289,3.4027,3.4091,3.4026,3.3758,3.3939,3.4147,0.0,0.0,0.0,0.0,0.0,0.0,0.0,0.0,0.0,0.0,0.0,0.0,0.0,0.0,3.308,3.3595,3.3434,3.3341,3.3569,0.0,0.0,0.0,0.0,0.0,0.0,0.0,0.0,0.0,0.0,0.0,0.0,0.0,0.0,0.0,0.0,3.2432,0.0,0.0,0.0,0.0,0.0,0.0,0.0,0.0,3.1785,3.1819,3.169,3.1754,3.18,0.0,3.154,3.1205,0.0,0.0,0.0,0.0,0.0,0.0,0.0,0.0,3.0942,3.0942,3.1081,3.1271,3.1496,3.1634,3.1825,3.2119,3.2454,3.2861,3.3304,3.3552,3.3781,0.0,0.0,0.0,0.0,0.0,0.0,0.0,0.0,0.0,0.0,0.0,0.0,0.0,0.0,0.0,0.0,0.0,0.0,0.0,0.0,0.0,0.0,0.0,3.4286,0.0,0.0,0.0,0.0,0.0,0.0,0.0,0.0,0.0,3.4116,3.4026,3.389,3.3758,3.3724,3.3603,3.3347,0.0,0.0,0.0,0.0,0.0,0.0,0.0,3.3834,3.3834,3.3571,3.3395,3.35,3.3236,3.304,3.304,0.0,0.0,3.3049,3.2929,3.2792,3.3054,3.2842,3.2758,3.2962,3.305,3.305,0.0,0.0,0.0,0.0,0.0,0.0,0.0,0.0,3.2823,3.2661,0.0,3.201,0.0,0.0,0.0,0.0,0.0,0.0,0.0,0.0,3.215,3.1816,3.1513,3.1513,3.1497,3.1481,3.1499,3.1313,3.1025,3.1331,0.0,0.0,0.0,0.0,0.0,0.0,2.993,2.9981,3.0329,3.0439,3.0491,3.0841,3.1006,3.1059,3.203,3.2801,3.3254,3.3963,3.436,3.4378,3.508,0.0,0.0,0.0,0.0,0.0,0.0,0.0,0.0,0.0,0.0,0.0,0.0,0.0,0.0,0.0,0.0,0.0,0.0,0.0,0.0,3.4117,0.0,0.0,0.0,0.0,0.0,0.0,0.0,0.0,0.0,0.0,3.3592,3.3359,3.3259,3.3605,0.0,0.0,0.0,0.0,3.3641,3.3641,3.3905,3.4118,3.4118,3.405,3.4033,3.4033,0.0,0.0,3.2313,3.2246,3.2235,3.222,3.2194,3.2163,3.2179,3.2231,3.2216,3.2231,3.2205,3.222,3.222,3.2224,3.2209,3.3962,0.0,0.0,0.0,0.0,3.4485,3.4317,3.3868,3.3791,3.3566,3.3308,3.3114,0.0,0.0,0.0,0.0,0.0,0.0,3.1828,3.1801,3.17,3.1598,3.1497,3.1497,3.1367,3.1167,3.1409,3.1318,3.1023,3.1347,3.1132,3.0426,0.0,0.0,0.0,0.0,3.0692,3.0709,3.1019,3.1165,3.1201,3.13,3.1366,3.1366,3.1926,3.2433,3.2872,3.3327,3.3727,3.3981,3.4198,0.0,0.0,0.0,0.0,0.0,0.0,0.0,0.0,0.0,0.0,0.0,0.0,0.0,0.0,0.0,0.0,0.0,0.0,0.0,3.3385,3.3241,3.3222,0.0,0.0,0.0,0.0,0.0,0.0,0.0,0.0,0.0,3.2682,3.2904,3.2988,0.0,0.0,3.2608,3.223,3.2464,3.262,3.262,0.0,0.0,0.0,3.2757,3.2752,3.2752,3.269,3.262,3.251,3.2456,3.2411,3.2411,3.186,3.1406,3.1434,3.1794,3.2023,3.2065,3.1993,3.1902,3.1917,3.1917,3.1902,3.4023,3.4105,3.438,3.4381,3.4225,3.4459,3.4346,3.3969,3.3988,3.3837,3.3572,3.3306,3.3207,3.3173,3.2454,0.0,0.0,0.0,3.1719,3.1739,3.1705,3.1634,3.1512,3.1512,3.1421,3.1218,3.1401,3.1385,3.1185,3.1232,3.1039,3.0612,0.0,0.0,3.0348,3.0596,3.0636,3.049,3.0663,3.0776,3.0776,3.1107,3.1402,3.1682,3.1944,3.2243,3.2652,3.3172,3.3579,3.38,3.4095,3.4389,0.0,0.0,0.0,0.0,0.0,0.0,0.0,0.0,0.0,0.0,0.0,3.4248,3.3829,0.0,0.0,0.0,3.3552,3.3513,3.3424,3.3149,0.0,0.0,0.0,0.0,0.0,0.0,0.0,3.2458,3.2234,3.2118,3.2257,3.2498,3.2615,3.2357,3.2301,3.2155,3.1869,0.0,3.2174,3.2174,3.2281,3.2357,3.2373,3.2312,3.2278,3.2068,3.2007,3.1985,3.2,3.1837,3.1697,3.1611,3.1224,3.0851,3.0808,3.121,3.1508,3.1392,3.1309,3.1267,3.1224,3.1239,3.1224,3.368,3.3661,3.3646,3.3623,3.3662,3.3666,3.3652,3.3656,3.3623,3.3609,3.3561,3.2958,3.2655,3.2554,3.1912,0.0,3.2051,3.1983,3.1976,3.2049,3.2008,3.1793,3.1478,3.1515,3.1478,3.1441,3.1474,3.1453,3.138,3.1042,3.0888,3.0867,3.0867,3.067,3.0293,3.0272,3.0064,2.9691,2.9722,2.9753,2.9784,3.0543,3.1255,3.1943,3.2035,3.2227,3.2649,3.3395,3.3774,3.3812,3.4493,3.4908,3.4945,0.0,0.0,0.0,0.0,0.0,0.0,0.0,0.0,0.0,0.0,0.0,0.0,0.0,0.0,0.0,3.31,0.0,3.348,3.3513,0.0,0.0,0.0,3.234,3.2372,3.1653,3.131,3.163,0.0,0.0,0.0,0.0,3.2152,3.2168,3.2163,3.2148,3.2137,3.2096,3.2137,3.2172,3.2385,3.251,3.2357,3.2286,3.2067,3.1696,3.1339,3.1153,3.1109,3.0835,3.0519,3.0604,3.0446,3.0446,3.0446,3.0684,3.0738,3.0458,3.0489,3.0533,3.0561,3.0618,3.0618,3.4494,3.4193,3.3874,3.3908,3.4115,3.4199,3.4224,3.4172,3.3859,3.3761,3.3731,3.3589,3.318,3.2591,3.2411,3.2085,3.1644,3.1619,3.1629,3.1656,3.1612,3.1552,3.1478,3.1478,3.133,3.1067,3.129,3.112,3.0555,3.0709,3.0785,3.0655,3.067,3.0399,2.9878,2.9796,2.973,2.9617,2.9877,3.0138,3.0398,3.0853,3.1306,3.1818,3.2158,3.2488,3.2881,3.3446,3.372,3.372,3.3915,3.4132,3.4443,3.4482,0.0,0.0,0.0,0.0,0.0,0.0,0.0,0.0,0.0,3.369,3.3307,0.0,3.3681,0.0,3.2962,3.2316,3.1775,3.1711,0.0,0.0,3.1938,3.1924,3.2186,3.2053,3.1976,3.2052,3.1748,3.1662,3.2008,3.1744,3.1596,3.186,3.1769,3.1628,3.1532,3.1534,3.1581,3.1845,3.1963,3.1852,3.1567,3.1124,3.0937,3.0751,3.0862,3.0944,3.0944,3.1039,3.1105,3.1061,3.0796,3.0574,3.0574,3.0345,3.0136,3.0069,3.0574,3.1105,3.1105,3.1105,3.1061,3.4342,3.4125,3.3908,3.3804,3.3827,3.401,3.4123,3.4108,3.3893,3.3695,3.3528,3.3164,3.2672,3.2123,3.2123,3.192,3.1494,3.1457,3.1465,3.1481,3.1604,3.1561,3.1387,3.157,3.1421,3.0999,3.1204,3.1012,3.0639,3.0824,3.0891,3.0822,3.0639,3.0405,3.0068,3.0166,3.0195,3.0,3.0182,3.0378,3.0559,3.0885,3.1232,3.1471,3.1696,3.195,3.2149,3.2785,3.3102,3.3141,3.3513,3.3829,3.4025,3.4025,3.4025,0.0,0.0,0.0,0.0,0.0,0.0,0.0,0.0,0.0,0.0,0.0,3.2809,0.0,3.233,0.0,3.1635,3.1609,3.1686,3.1828,3.1679,3.1718,3.2066,3.193,3.1864,3.2014,3.1762,3.1625,3.159,3.1406,3.1209,3.1167,3.1093,3.1061,3.1178,3.1193,3.1209,3.1167,3.1311,3.1367,3.1191,3.0986,3.0811,3.0781,3.0775,3.0809,3.0948,3.0922,3.0952,3.103,3.089,3.0709,3.0664,3.0482,3.0314,3.036,3.0709,3.1017,3.0938,3.1021,3.1058,3.3844,3.3807,3.3789,3.3606,3.3293,3.3643,3.3738,3.3652,3.3579,3.3378,3.31,3.2385,3.1922,3.1655,3.1618,3.1597,3.1551,3.1485,3.1403,3.1375,3.1658,3.1591,3.1213,3.1531,3.1511,3.1112,3.1112,3.1072,3.1031,3.1031,3.1022,3.1012,3.065,3.0479,3.0564,3.0871,3.0841,3.0445,3.0474,3.0504,3.0504,3.0856,3.1073,3.1153,3.1153,3.1193,3.1233,3.1955,3.2355,3.2395,3.3089,3.3486,3.3542,3.3486,3.3525,0.0,3.3486,0.0,0.0,0.0,0.0,0.0,0.0,0.0,0.0,3.1964,3.1718,3.1564,3.1594,3.1746,3.2039,3.2069,3.2085,3.213,3.1741,3.1554,3.1836,3.1458,3.1306,3.1597,3.1626,3.1468,3.1124,3.1095,3.0908,3.0675,3.0632,3.0776,3.1036,3.1109,3.0965,3.0547,3.0739,3.1061,3.1182,3.1221,3.1173,3.1173,3.0873,3.0745,3.0976,3.0726,3.0547,3.0761,3.0801,3.0768,3.0795,3.0768,3.0782,3.0755,3.0828,3.082,3.0593,3.0673,3.0782,3.4036,3.3725,3.3725,3.3687,3.3609,3.3687,3.336,3.2818,3.2483,3.2463,3.2692,3.2541,3.2402,3.2297,3.2313,3.211,3.1756,3.174,3.1534,3.1154,3.1238,3.122,3.114,3.1201,3.1192,3.1112,3.1112,3.0911,3.0605,3.0605,3.0579,3.0532,3.0465,3.0516,3.0751,0.0,0.0,0.0,3.0292,3.0424,3.0439,3.0675,3.1055,3.1426,3.1426,0.0,3.1991,3.214,3.2237,3.2237,3.2386,0.0,0.0,0.0,0.0,0.0,0.0,0.0,0.0,0.0,0.0,0.0,3.1919,3.1757,3.1757,3.1971,3.195,3.1557,3.1516,3.1526,3.1477,3.148,3.1583,3.1834,3.1451,3.1224,3.1224,3.0838,3.0594,3.065,3.0664,3.0763,3.093,3.0958,3.0969,3.1061,3.1147,3.1126,3.108,3.1017,3.1027,3.1119,3.1042,3.1083,3.1107,3.0995,3.0934,3.0851,3.0851,3.0772,3.0826,3.0853,3.0715,3.0808,3.0795,3.0808,3.0808,3.0795,3.0835,3.0795,3.0982,3.1062,3.0768,3.0755,3.0795,3.3868,0.0,3.371,3.3553,0.0,3.3355,3.3028,3.2506,3.2715,3.283,3.2783,3.2394,3.2179,3.2158,3.1921,3.1699,3.1432,3.1456,3.1312,3.1112,3.1279,3.1234,3.1047,3.1239,3.1151,3.0948,3.0948,3.0955,3.0913,3.0872,3.0951,3.1108,3.1066,3.1139,3.13,3.1258,3.1066,3.0583,3.0744,3.0905,3.1108,3.1227,3.1385,3.1638,0.0,0.0,0.0,0.0,0.0,0.0,0.0,0.0,0.0,0.0,0.0,3.2647,3.2647,3.2579,3.2369,3.2327,3.2242,3.2032,3.1568,3.1337,3.1429,3.1796,3.1821,3.1342,3.13,3.1189,3.088,3.0866,3.0923,3.1081,3.088,3.0807,3.0963,3.0803,3.0699,3.0825,3.0853,3.0891,3.0976,3.1017,3.1008,3.1058,3.1067,3.1017,3.099,3.1007,3.1039,3.1058,3.0995,3.0934,3.0948,3.0859,3.0795,3.0795,3.0795,3.0849,3.0982,3.1009,3.1049,3.1183,3.1223,3.1223,3.1223,3.1223,3.1223,3.1283,3.1343,3.141,3.1296,3.1223,3.1223,3.3614,3.3551,3.3535,3.3256,3.2858,3.2858,3.2658,3.2387,0.0,0.0,0.0,3.195,3.1702,3.1724,3.1364,3.1193,3.1158,3.1158,3.1148,3.1143,3.1416,3.1418,3.1164,3.1458,3.1327,3.0993,3.0993,3.1124,3.1388,3.1402,3.1534,3.1768,3.1798,3.1755,3.1669,3.1583,3.1438,3.1235,3.1347,3.152,3.1783,3.1798,3.1755,3.1669,3.1669,3.1626,3.154,3.1926,3.2126,3.2126,3.2425,3.2624,3.2624,3.2624,3.2624,3.2624,3.2624,3.2468,3.2126,3.2126,3.1954,3.1583,3.1253,3.1095,3.1162,3.138,3.1368,3.1023,3.098,3.0865,3.0519,3.0475,3.0517,3.0559,3.0472,3.0568,3.0891,3.0859,3.0851,3.1145,3.117,3.1177,3.1063,3.0999,3.0958,3.0853,3.0834,3.0822,3.0868,3.0975,3.0976,3.0872,3.0887,3.0922,3.0875,3.0988,3.0942,3.0996,3.0982,3.1036,3.1223,3.1256,3.1423,3.1724,3.1744,3.1757,3.1858,3.1872,3.1872,3.1872,3.1872,3.1872,3.1872,3.1872,3.1818,3.3292,3.2924,3.2924,3.2679,3.2325,3.2325,3.2284,3.2237,3.2136,3.1831,3.1352,3.1272,3.1344,3.162,3.1554,3.1502,3.1471,3.1471,3.1372,0.0,3.1322,3.1456,3.1678,3.1722,3.1694,3.1651,3.1666,3.1681,3.1724,3.1724,3.1754,3.1798,3.1798,3.1597,3.1196,3.0794,3.0734,3.0945,3.1483,3.1754,3.1798,3.1798,3.1583,3.1239,3.121,3.098,3.0621,3.0664,3.0707,3.0707,3.0736,3.0779,3.0779,3.0851,3.0779,3.0779,3.0779,3.0751,3.0707,3.0707,3.0664,3.0635,3.0774,3.0845,3.0536,3.055,3.0578,3.0492,3.052,3.0604,3.0799,3.0825,3.0893,3.1059,3.0804,3.0705,3.1024,3.0763,3.0587,3.0856,3.0845,3.0878,3.0886,3.0866,3.0893,3.0841,3.0889,3.0902,3.1062,3.0962,3.0847,3.0808,3.1009,3.1096,3.1183,3.1383,3.149,3.1591,3.1543,3.1604,3.1623,3.1637,3.1744,3.1998,3.2038,3.2131,3.2367,3.2474,3.242,3.2407,3.2393,3.2407,3.2407,3.2407,3.2286,3.3155,3.2987,3.2987,3.2861,3.2708,3.2708,3.254,3.2342,3.2206,3.2087,3.1878,3.1673,3.1787,3.2047,3.181,3.1675,3.164,3.164,3.1644,3.1563,3.1578,3.1651,3.1783,3.1798,3.1798,3.1798,3.154,3.1498,3.1657,3.144,3.1395,3.1509,3.1523,3.1521,3.1457,3.125,3.1301,3.1609,3.1433,3.1395,3.1509,3.1523,3.1436,3.1216,3.1216,3.1129,3.0895,3.0895,3.0895,3.0909,3.0909,3.0895,3.0895,3.0895,3.0895,3.0909,3.0895,3.0895,3.0895,3.1049,3.1028,3.0807,3.1083,3.1073,3.0667,3.0782,3.0763,3.0558,3.0652,3.0729,3.0657,3.0762,3.0913,3.1004,3.0836,3.0767,3.0875,3.0778,3.0694,3.0768,3.0795,3.0849,3.1009,3.1022,3.1102,3.1223,3.131,3.133,3.1463,3.149,3.1436,3.1316,3.1383,3.145,3.149,3.1717,3.1877,3.1904,3.2099,3.2179,3.2193,3.2193,3.2246,3.2353,3.2345,3.2433,3.2594,3.2594,3.2594,3.2594,3.2594,3.2594,3.2594,3.2594,3.2487,3.3023,3.2981,3.2981,3.2895,3.281,3.281,3.2639,3.2355,3.234,3.2421,3.2453,3.2124,3.2102,3.2297,3.1969,3.1798,3.1798,3.1798,3.1827,3.19,3.1915,3.1944,3.2017,3.1931,3.1844,3.1815,3.1439,3.1393,3.1606,3.1324,3.1301,3.1466,3.1391,3.1471,3.1753,3.1617,3.1651,3.1845,3.1239,3.1079,3.148,3.1494,3.1449,3.1346,3.1346,3.1315,3.1166,3.1211,3.118,3.1166,3.118,3.1225,3.1166,3.1166,3.1166,3.1166,3.118,3.1166,3.1194,3.1433,3.1436,3.1086,3.1212,3.1197,3.0893,3.1063,3.1046,3.0758,3.089,3.089,3.0598,3.0681,3.0795,3.0795,3.0795,3.0841,3.0875,3.0889,3.0929,3.0969,3.0996,3.1089,3.1263,3.1383,3.1543,3.1845,3.1912,3.1912,3.1938,3.2112,3.2126,3.1992,3.1912,3.1925,3.1925,3.2051,3.2185,3.2198,3.242,3.2514,3.2541,3.2567,3.2634,3.2661,3.2688,3.2741,3.2768,3.2808,3.2822,3.2848,3.2862,3.2835,3.2848,3.2835,3.2728,3.2895,3.2611,3.2584,3.2312,3.1999,3.1941,3.1956,3.1898,3.1883,3.2045,3.2322,3.1971,3.1869,3.1841,3.1855,3.1827,3.1827,3.1798,3.1973,3.2237,3.2237,3.2441,3.2617,3.219,3.1969,3.1953,3.178,3.1713,3.1783,3.1928,3.205,3.2046,3.1711,3.1482,3.1478,3.1123,3.0907,3.0934,3.0853,3.1239,3.2046,3.2137,3.1895,3.1482,3.1469,3.1253,3.0905,3.084,3.084,3.0853,3.0872,3.084,3.084,3.084,3.084,3.0826,3.084,3.0853,3.084,3.088,3.088,3.0847,3.0887,3.0914,3.0822,3.0847,3.084,3.082,3.0834,3.0801,3.0755,3.0808,3.0849,3.0875,3.0849,3.0889,3.1156,3.1136,3.1289,3.1617,3.1583,3.1644,3.1677,3.1851,3.2104,3.238,3.2407,3.2407,3.242,3.2487,3.2554,3.25,3.2514,3.25,3.2487,3.2527,3.2554,3.2554,3.2581,3.2661,3.2688,3.2688,3.2674,3.2955,3.2982,3.3013,3.3187,3.3334,3.3293,3.32,3.3227,3.3293,3.332,3.328,3.3106,3.2848,3.2674,3.2674,3.2543,3.2427,3.2412,3.2383,3.2368,3.2368,3.2441,3.2573,3.2632,3.2544,3.2368,3.2368,3.2368,3.2368,3.2368,3.2544,3.2792,3.254,3.258,3.2824,3.2387,3.2116,3.207,3.1787,3.1601,3.1583,3.1464,3.1394,3.1348,3.1164,3.1153,3.1301,3.1142,3.1129,3.1303,3.1363,3.1504,3.1791,3.1571,3.1302,3.1104,3.1072,3.1026,3.0841,3.0795,3.0795,3.0795,3.0795,3.0795,3.0795,3.0795,3.0795,3.0795,3.0795,3.0795,3.0795,3.0942,3.1049,3.1049,3.1223,3.1316,3.1363,3.1363,3.137,3.1503,3.1263,3.1049,3.1076,3.1209,3.1316,3.1316,3.1316,3.1423,3.1704,3.1744,3.1851,3.2179,3.2233,3.2233,3.2246,3.234,3.246,3.2581,3.2594,3.2621,3.2607,3.2741,3.2848,3.2875,3.2995,3.2879,3.2728,3.2755,3.2822,3.2875,3.2946,3.3102,3.3026,3.3053,3.312,3.3213,3.3227,3.3267,3.3347,3.34,3.3414,3.344,3.3414,3.3414,3.3414,3.3414,3.3267,3.2866,3.291,3.2997,3.3027,3.3027,3.3041,3.3041,3.3027,3.3027,3.3041,3.3056,3.3231,3.3156,3.2877,3.2982,3.3027,3.3027,3.2908,3.2935,3.3048,3.2611,3.2558,3.2711,3.2267,3.1992,3.196,3.1601,3.1452,3.1519,3.1208,3.1036,3.1036,3.1036,3.1142,3.1316,3.1343,3.149,3.1805,3.1784,3.1872,3.1885,3.149,3.1196,3.1049,3.1082,3.1036,3.1036,3.1036,3.1036,3.1036,3.1036,3.1036,3.1036,3.1036,3.1036,3.1036,3.1036,3.1076,3.1142,3.1343,3.1503,3.1583,3.1797,3.1965,3.1952,3.1965,3.2045,3.2144,3.1837,3.161,3.161,3.1784,3.1952,3.1952,3.1952,3.2059,3.2185,3.2225,3.2291,3.2554,3.2541,3.2634,3.2688,3.2714,3.2741,3.2848,3.2848,3.2835,3.2848,3.3022,3.3093,3.3093,3.328,3.3227,3.2929,3.2995,3.308,3.3133,3.3267,3.3347,3.3414,3.34,3.34,3.3334,3.344,3.3561,3.3627,3.3601,3.3654,3.3654,3.3654,3.3654,3.3734,3.3681,3.3681,3.2939,3.3201,3.3508,3.3611,3.3685,3.3625,3.3625,3.3567,3.3611,3.3625,3.3596,3.3609,3.3427,3.3002,3.3352,3.364,3.3534,3.3096,3.2942,3.2939,3.2436,3.2221,3.2175,3.1748,3.1532,3.1614,3.1428,3.1423,3.1665,3.1657,3.1671,3.1623,3.1671,3.1684,3.1724,3.1724,3.1797,3.2051,3.2091,3.2211,3.2487,3.2487,3.2179,3.1738,3.1671,3.1684,3.1671,3.1684,3.1671,3.1684,3.1684,3.1671,3.1671,3.1684,3.1637,3.1671,3.1684,3.1744,3.1971,3.2024,3.2144,3.2447,3.246,3.2527,3.246,3.2474,3.25,3.2581,3.2514,3.2474,3.25,3.2447,3.2474,3.2487,3.2514,3.2527,3.2567,3.2581,3.2567,3.2634,3.2674,3.2781,3.2933,3.2959,3.308,3.324,3.3334,3.332,3.328,3.3347,3.336,3.336,3.3387,3.3387,3.336,3.3293,3.3334,3.3347,3.3334,3.344,3.3414,3.3414,3.3427,3.3507,3.3721,3.3855,3.3908,3.4015,3.4135,3.4162,3.4135,3.4148,3.4055,3.4215,3.4189,3.3406,3.3508,3.364,3.3684,3.3684,3.3684,3.3684,3.3684,3.3365,3.3228,3.3225,3.3108,3.2963,3.2838,3.3222,3.314,3.2753,3.2542,3.2595,3.2718,3.2269,3.2134,3.228,3.1859,3.1625,3.1605,3.1557,3.1557,3.1724,3.1851,3.1944,3.1984,3.2193,3.2273,3.2273,3.2273,3.234,3.242,3.2433,3.2487,3.2594,3.2594,3.2487,3.23,3.2273,3.2286,3.2273,3.2273,3.2273,3.2286,3.2273,3.2273,3.2273,3.2273,3.2273,3.2273,3.2286,3.2326,3.242,3.2433,3.2474,3.2567,3.2594,3.2607,3.2594,3.2594,3.2661,3.2822,3.2875,3.2929,3.3036,3.2822,3.2594,3.2594,3.2594,3.2688,3.2822,3.2875,3.2942,3.3053,3.3093,3.316,3.3187,3.3253,3.3293,3.3387,3.3414,3.3414,3.3414,3.3414,3.3414,3.3414,3.3414,3.3414,3.3414,3.34,3.34,3.34,3.3427,3.3574,3.3614,3.3694,3.3734,3.3895,3.4082,3.4175,3.4242,3.4282,3.4429,3.4416,3.4402,3.4456,3.4322,3.4442,3.4416,3.3844,3.3905,3.3961,3.4005,3.4005,3.3853,3.3746,3.3715,3.3254,3.3069,3.302,3.2911,3.2762,3.2649,3.2844,3.2639,3.2079,3.2191,3.2394,3.2561,3.206,3.1934,3.2097,3.1853,3.1764,3.1858,3.1965,3.2005,3.2019,3.2193,3.2238,3.2313,3.25,3.2594,3.2594,3.2594,3.2634,3.2701,3.2728,3.2768,3.2848,3.2875,3.2826,3.2875,3.2875,3.2768,3.2607,3.2594,3.2594,3.2594,3.2594,3.2594,3.2594,3.2594,3.2594,3.2594,3.2581,3.2648,3.2714,3.2728,3.2781,3.2862,3.2875,3.2875,3.2875,3.2875,3.2982,3.308,3.312,3.3213,3.328,3.3053,3.2875,3.2875,3.2875,3.2893,3.308,3.312,3.32,3.3334,3.3374,3.3387,3.3414,3.34,3.34,3.3414,3.3414,3.3414,3.3414,3.3414,3.3467,3.3547,3.3587,3.3654,3.3748,3.3814,3.3708,3.3668,3.3734,3.3828,3.3908,3.3988,3.4095,3.4282,3.4416,3.4496,3.4549,3.4576,3.4589,3.4576,3.4683,3.4776,3.4696,3.4656,3.4656,3.418,3.421,3.4563,3.4543,3.442,3.397,3.3887,3.375,3.3342,3.3079,3.3065,3.3102,3.2744,3.2455,3.2435,3.2185,3.1921,3.2219,3.2347,3.2333,3.1935,3.1772,3.1799,3.1805,3.1891,3.2118,3.2433,3.2554,3.2514,3.2567,3.2594,3.2607,3.2648,3.2714,3.2621,3.2688,3.2781,3.2969,3.2986,3.3106,3.3374,3.3347,3.332,3.3347,3.3347,3.312,3.2661,3.2648,3.2674,3.2661,3.2648,3.2607,3.2674,3.2674,3.2634,3.2674,3.2634,3.2768,3.2982,3.2986,3.3093,3.3253,3.336,3.332,3.3293,3.332,3.3334,3.3347,3.336,3.34,3.34,3.3347,3.332,3.34,3.3307,3.332,3.336,3.34,3.34,3.3414,3.3414,3.3414,3.3414,3.3467,3.3494,3.3521,3.3534,3.3534,3.3561,3.3574,3.3601,3.3788,3.3881,3.3935,3.4122,3.4295,3.4135,3.4015,3.4122,3.4202,3.4255,3.4322,3.4389,3.4549,3.4696,3.479,3.4897,3.4923,3.4977,3.499,3.507,3.5044,3.499,3.495,3.5017,3.4347,3.4021,3.4121,3.393,3.3695,3.3507,3.3445,3.3365,3.288,3.2658,3.2597,3.2327,3.2043,3.2002,3.2103,3.2101,3.2032,3.2351,3.2339,3.2008,3.1973,3.1971,3.1998,3.2219,3.2367,3.2447,3.2541,3.2594,3.2634,3.2795,3.2888,3.2929,3.304,3.3133,3.3106,3.3146,3.32,3.3267,3.328,3.3334,3.34,3.3414,3.3414,3.3414,3.3414,3.3307,3.316,3.3146,3.3133,3.3133,3.3146,3.3146,3.3133,3.3133,3.3133,3.3133,3.3146,3.316,3.324,3.328,3.3307,3.3387,3.3414,3.3414,3.3414,3.3414,3.3414,3.3414,3.3414,3.3414,3.3414,3.3414,3.344,3.3414,3.3414,3.3427,3.3467,3.344,3.3414,3.3414,3.3414,3.3494,3.3681,3.3734,3.3801,3.3961,3.4002,3.4002,3.4015,3.3975,3.4042,3.4175,3.4202,3.4242,3.4402,3.4563,3.4536,3.4416,3.4456,3.4536,3.4589,3.4629,3.471,3.479,3.4937,3.5044,3.5151,3.5204,3.5204,3.5204,3.5151,3.5151,3.5191,3.5204,3.5204,3.4118,3.3634,3.3634,3.3493,3.3163,3.2974,3.2927,3.2861,3.2497,3.2287,3.2219,3.2135,3.2032,3.2086,3.2185,3.2313,3.234,3.2527,3.2407,3.2099,3.2171,3.2265,3.2305,3.2621,3.2755,3.2781,3.2826,3.2915,3.2929,3.304,3.3133,3.3173,3.332,3.34,3.3414,3.3414,3.3414,3.3414,3.34,3.3414,3.3414,3.3414,3.3414,3.3414,3.3414,3.3414,3.3414,3.3414,3.3414,3.3414,3.3414,3.3414,3.3414,3.34,3.3414,3.3414,3.34,3.34,3.3414,3.3387,3.3414,3.3414,3.3414,3.3414,3.3414,3.3414,3.344,3.3561,3.3601,3.3627,3.3734,3.3761,3.3748,3.3761,3.3654,3.3641,3.3708,3.3748,3.3761,3.3788,3.3774,3.3855,3.3975,3.4055,3.4108,3.4282,3.4322,3.4322,3.4322,3.4295,3.4362,3.4429,3.4482,3.4563,3.467,3.479,3.491,3.4843,3.479,3.4843,3.4897,3.491,3.4963,3.5004,3.5124,3.511,3.5204,3.5204,3.5204,3.5204,3.5204,3.5204,3.5204,3.5204,3.5204,3.3587,3.3163,3.3163,3.3144,3.303,3.2605,3.2456,3.2402,3.2251,3.2166,3.2233,3.2407,3.2541,3.2567,3.2581,3.2621,3.2634,3.2701,3.2728,3.2661,3.2674,3.2688,3.2728,3.2893,3.3,3.304,3.324,3.3347,3.3307,3.3347,3.3414,3.3387,3.3387,3.3414,3.3414,3.3414,3.3414,3.3414,3.3414,3.3414,3.3414,3.3414,3.3414,3.3414,3.3414,3.3414,3.3414,3.3414,3.3414,3.3414,3.3414,3.3414,3.3414,3.3414,3.3414,3.3414,3.3414,3.3414,3.3414,3.3414,3.3414,3.3414,3.3454,3.344,3.348,3.3561,3.3668,3.3881,3.3908,3.4015,3.4202,3.4242,3.4255,3.4295,3.4068,3.4028,3.4255,3.4269,3.4215,3.4242,3.4309,3.4336,3.4322,3.4336,3.4376,3.4429,3.4456,3.4482,3.4482,3.4549,3.4549,3.4643,3.4776,3.483,3.4923,3.495,3.5057,3.5044,3.499,3.503,3.5084,3.5097,3.5124,3.5164,3.5204,3.5204,3.5204,3.5204,3.5204,3.5204,3.5204,3.5204,3.5204,3.5204,3.5204,3.3069,3.2597,3.2611,3.2545,3.2402,3.2224,3.2345,3.2547,3.2482,3.2474,3.25,3.2554,3.2621,3.2621,3.2835,3.2915,3.2955,3.3066,3.3187,3.3187,3.3187,3.3187,3.3187,3.324,3.3293,3.3307,3.336,3.3414,3.3414,3.3414,3.3414,3.3414,3.3414,3.3414,3.3414,3.3414,3.3414,3.3414,3.3414,3.3414,3.3414,3.3414,3.3414,3.3414,3.3414,3.3414,3.3414,3.3414,3.3414,3.3414,3.3414,3.3414,3.3414,3.3414,3.3414,3.3414,3.3427,3.3414,3.3427,3.344,3.3427,3.344,3.3654,3.3761,3.3774,3.3961,3.4095,3.4202,3.4202,3.4242,3.4322,3.4349,3.4429,3.4576,3.4402,3.4269,3.4336,3.4322,3.4322,3.4322,3.4349,3.4456,3.4589,3.4656,3.471,3.487,3.491,3.491,3.4857,3.487,3.4897,3.499,3.5084,3.511,3.5151,3.5164,3.5177,3.5164,3.5151,3.5137,3.5164,3.5164,3.5177,3.5204,3.5204,3.5204,3.5204,3.5204,3.5204,3.5204,3.5204,3.5204,3.5204,3.5204,3.5204,3.2742,3.2293,3.2402,3.242,3.2326,3.2291,3.2433,3.2594,3.2728,3.2781,3.2795,3.2866,3.2955,3.2933,3.3093,3.316,3.3187,3.3334,3.34,3.34,3.3387,3.3387,3.34,3.3414,3.3414,3.3414,3.3414,3.3414,3.3414,3.3414,3.3414,3.3414,3.3414,3.3414,3.3414,3.3414,3.3414,3.3414,3.3414,3.3414,3.3414,3.3414,3.3414,3.3414,3.3414,3.3414,3.3414,3.3414,3.3414,3.3414,3.3414,3.3414,3.3414,3.3414,3.3414,3.3414,3.3534,3.3614,3.3641,3.3721,3.3788,3.3814,3.3988,3.4042,3.4082,3.4242,3.4336,3.4482,3.4509,3.4563,3.4656,3.4683,3.4763,3.4883,3.479,3.4696,3.4683,3.471,3.4696,3.4696,3.4696,3.4736,3.4923,3.4937,3.503,3.5137,3.5137,3.5151,3.5151,3.5204,3.5204,3.5204,3.5204,3.5191,3.5177,3.5191,3.5204,3.5204,3.5204,3.5204,3.5204,3.5204,3.5204,3.5204,3.5204,3.5204,3.5204,3.5204,3.5204,3.5204,3.5204,3.5204,3.5204,3.5204,3.5204,3.2578,3.2171,3.2487,3.2607,3.2634,3.2648,3.2688,3.2755,3.2969,3.3026,3.3066,3.3293,3.332,3.3414,3.3334,3.34,3.34,3.34,3.34,3.3414,3.3414,3.3414,3.3414,3.3414,3.3414,3.3414,3.3414,3.3414,3.3414,3.3414,3.3414,3.3414,3.3414,3.3414,3.3414,3.3414,3.3414,3.3414,3.3414,3.3414,3.3414,3.3414,3.3414,3.3414,3.3414,3.3414,3.3414,3.3414,3.3427,3.3467,3.344,3.344,3.344,3.3467,3.3507,3.3587,3.3801,3.3921,3.3961,3.4135,3.4269,3.4255,3.4295,3.4362,3.4376,3.4456,3.4589,3.479,3.4855,3.491,3.5057,3.5164,3.5137,3.5137,3.5151,3.5177,3.5204,3.5204,3.5204,3.5204,3.5191,3.5191,3.5204,3.5204,3.5191,3.5164,3.5204,3.5204,3.5204,3.5204,3.5204,3.5204,3.5204,3.5204,3.5191,3.5204,3.5204,3.5204,3.5204,3.5204,3.5204,3.5204,3.5204,3.5204,3.5204,3.5204,3.5204,3.5204,3.5204,3.5204,3.5204,3.5204,3.5204,3.5204,3.5204,3.2598,3.25,3.2567,3.2728,3.2915,3.2942,3.3013,3.3213,3.328,3.3293,3.3334,3.3387,3.3414,3.3414,3.3414,3.3414,3.3414,3.3414,3.3414,3.3414,3.3414,3.3414,3.3414,3.3414,3.3414,3.3414,3.3414,3.3414,3.3414,3.3414,3.3414,3.3414,3.3414,3.3414,3.3414,3.3414,3.3414,3.3414,3.3414,3.3414,3.3414,3.3414,3.3414,3.3414,3.3414,3.3414,3.3414,3.3414,3.3534,3.3654,3.3587,3.3574,3.3734,3.3788,3.3868,3.4028,3.4148,3.4229,3.4255,3.4309,3.4336,3.4389,3.4563,3.4721,3.4683,3.4857,3.499,3.511,3.511,3.511,3.5177,3.5204,3.5204,3.5204,3.5204,3.5204,3.5204,3.5204,3.5204,3.5204,3.5204,3.5204,3.5204,3.5204,3.5204,3.5204,3.5204,3.5204,3.5204,3.5204,3.5204,3.5204,3.5204,3.5204,3.5204,3.5204,3.5204,3.5204,3.5204,3.5204,3.5204,3.5204,3.5204,3.5204,3.5204,3.5204,3.5204,3.5204,3.5204,3.5204,3.5204,3.5204,3.5204,3.5204,3.5204,3.2795,3.2822,3.2942,3.304,3.316,3.3187,3.3267,3.3387,3.3414,3.3414,3.3414,3.3414,3.3414,3.3414,3.3414,3.3414,3.3414,3.3414,3.3414,3.3414,3.3414,3.3414,3.3414,3.3414,3.3414,3.3414,3.3414,3.3414,3.3414,3.3414,3.3414,3.3414,3.3414,3.3414,3.3414,3.3414,3.3414,3.3414,3.3414,3.3414,3.3414,3.3414,3.3414,3.3414,3.3414,3.3414,3.3414,3.3574,3.3708,3.3828,3.3855,3.3908,3.4055,3.4095,3.4175,3.4295,3.4469,3.4523,3.4536,3.4656,3.475,3.471,3.4883,3.4937,3.4977,3.5124,3.5177,3.5204,3.5191,3.5191,3.5204,3.5204,3.5204,3.5204,3.5204,3.5204,3.5204,3.5204,3.5204,3.5204,3.5204,3.5204,3.5204,3.5204,3.5204,3.5204,3.5204,3.5204,3.5204,3.5204,3.5204,3.5204,3.5204,3.5204,3.5204,3.5204,3.5204,3.5204,3.5204,3.5204,3.5204,3.5204,3.5204,3.5204,3.5204,3.5204,3.5204,3.5204,3.5204,3.5204,3.5204,3.5204,3.5204,3.5204,3.5204,3.304,3.3066,3.3307,3.3414,3.3414,3.34,3.34,3.3414,3.3414,3.3414,3.3414,3.3414,3.3414,3.3414,3.3414,3.3414,3.3414,3.3414,3.3414,3.3414,3.3414,3.3414,3.3414,3.3414,3.3414,3.3414,3.3414,3.3414,3.3414,3.3414,3.3414,3.3414,3.3414,3.3414,3.3414,3.3414,3.3414,3.3414,3.3414,3.3414,3.3414,3.3414,3.3414,3.3414,3.3414,3.3414,3.3467,3.3668,3.3908,3.3961,3.4229,3.4389,3.4442,3.4402,3.4429,3.4456,3.4723,3.4817,3.4857,3.5017,3.5137,3.5204,3.5191,3.5191,3.5191,3.5177,3.5191,3.5204,3.5204,3.5204,3.5204,3.5204,3.5204,3.5204,3.5204,3.5204,3.5204,3.5204,3.5204,3.5204,3.5204,3.5204,3.5204,3.5204,3.5204,3.5204,3.5204,3.5204,3.5204,3.5204,3.5204,3.5204,3.5204,3.5204,3.5204,3.5204,3.5204,3.5204,3.5204,3.5204,3.5204,3.5204,3.5204,3.5204,3.5204,3.5204,3.5204,3.5204,3.5204,3.5204,3.5204,3.5204,3.5204,3.5204,3.5204,3.3347,3.3347,3.3387,3.3414,3.3414,3.3414,3.3414,3.3414,3.3414,3.3414,3.3414,3.3414,3.3414,3.3414,3.3414,3.3414,3.3414,3.3414,3.3414,3.3414,3.3414,3.3414,3.3414,3.3414,3.3414,3.3414,3.3414,3.3414,3.3414,3.3414,3.3414,3.3414,3.3414,3.3414,3.3414,3.3414,3.3414,3.3414,3.3414,3.3414,3.3414,3.3414,3.3414,3.3414,3.3414,3.3414,3.348,3.3721,3.4002,3.4242,3.4536,3.479,3.4897,3.479,3.4803,3.4937,3.503,3.507,3.5097,3.5151,3.5204,3.5204,3.5204,3.5204,3.5204,3.5204,3.5204,3.5204,3.5204,3.5204,3.5204,3.5204,3.5204,3.5204,3.5204,3.5204,3.5204,3.5204,3.5204,3.5204,3.5204,3.5204,3.5204,3.5204,3.5204,3.5204,3.5204,3.5204,3.5204,3.5204,3.5204,3.5204,3.5204,3.5204,3.5204,3.5204,3.5204,3.5204,3.5204,3.5204,3.5204,3.5204,3.5204,3.5204,3.5204,3.5204,3.5204,3.5204,3.5204,3.5204,3.5204,3.5204,3.5204,3.5204,3.5204,3.3414,3.3414,3.3414,3.3414,3.3414,3.3414,3.3414,3.3414,3.3414,3.3414,3.3414,3.3414,3.3414,3.3414,3.3414,3.3414,3.3414,3.3414,3.3414,3.3414,3.3414,3.3414,3.3414,3.3414,3.3414,3.3414,3.3414,3.3414,3.3414,3.3414,3.3414,3.3414,3.3414,3.3414,3.3414,3.3414,3.3414,3.3414,3.3414,3.3414,3.3414,3.3414,3.3414,3.3414,3.3414,3.3414,3.3494,3.3895,3.4162,3.4376,3.475,3.5017,3.511,3.511,3.5044,3.5164,3.5204,3.5204,3.5204,3.5204,3.5204,3.5204,3.5204,3.5204,3.5204,3.5204,3.5204,3.5204,3.5204,3.5204,3.5204,3.5204,3.5204,3.5204,3.5204,3.5204,3.5204,3.5204,3.5204,3.5204,3.5204,3.5204,3.5204,3.5204,3.5204,3.5204,3.5204,3.5204,3.5204,3.5204,3.5204,3.5204,3.5204,3.5204,3.5204,3.5204,3.5204,3.5204,3.5204,3.5204,3.5204,3.5204,3.5204,3.5204,3.5204,3.5204,3.5204,3.5204,3.5204,3.5204,3.5204,3.5204,3.5204,3.5204,3.5204,3.3414,3.3414,3.3414,3.3414,3.3414,3.3414,3.3414,3.3414,3.3414,3.3414,3.3414,3.3414,3.3414,3.3414,3.3414,3.3414,3.3414,3.3414,3.3414,3.3414,3.3414,3.3414,3.3414,3.3414,3.3414,3.3414,3.3414,3.3414,3.3414,3.3414,3.3414,3.3414,3.3414,3.3414,3.3414,3.3414,3.3414,3.3414,3.3414,3.3414,3.3414,3.3414,3.3414,3.3414,3.3414,3.3414,3.3467,3.3975,3.4242,3.4469,3.4817,3.5191,3.5191,3.5204,3.5204,3.5204,3.5204,3.5204,3.5204,3.5204,3.5204,3.5204,3.5204,3.5204,3.5204,3.5204,3.5204,3.5204,3.5204,3.5204,3.5204,3.5204,3.5204,3.5204,3.5204,3.5204,3.5204,3.5204,3.5204,3.5204,3.5204,3.5204,3.5204,3.5204,3.5204,3.5204,3.5204,3.5204,3.5204,3.5204,3.5204,3.5204,3.5204,3.5204,3.5204,3.5204,3.5204,3.5204,3.5204,3.5204,3.5204,3.5204,3.5204,3.5204,3.5204,3.5204,3.5204,3.5204,3.5204,3.5204,3.5204,3.5204,3.5204,3.5204,3.5204,3.3414,3.3414,3.3414,3.3414,3.3414,3.3414,3.3414,3.3414,3.3414,3.3414,3.3414,3.3414,3.3414,3.3414,3.3414,3.3414,3.3414,3.3414,3.3414,3.3414,3.3414,3.3414,3.3414,3.3414,3.3414,3.3414,3.3414,3.3414,3.3414,3.3414,3.3414,3.3414,3.3414,3.3414,3.3414,3.3414,3.3414,3.3414,3.3414,3.3414,3.3414,3.3414,3.3414,3.3414,3.3414,3.3414,3.3494,3.3975,3.4309,3.4389,3.4883,3.5177,3.5204,3.5204,3.5204,3.5204,3.5204,3.5204,3.5204,3.5204,3.5204,3.5204,3.5204,3.5204,3.5204,3.5204,3.5204,3.5204,3.5204,3.5204,3.5204,3.5204,3.5204,3.5204,3.5204,3.5204,3.5204,3.5204,3.5204,3.5204,3.5204,3.5204,3.5204,3.5204,3.5204,3.5204,3.5204,3.5204,3.5204,3.5204,3.5204,3.5204,3.5204,3.5204,3.5204,3.5204,3.5204,3.5204,3.5204,3.5204,3.5204,3.5204,3.5204,3.5204,3.5204,3.5204,3.5204,3.5204,3.5204,3.5204,3.5204,3.5204,3.5204,3.5204,3.5204,3.3414,3.3414,3.3414,3.3414,3.3414,3.3414,3.3414,3.3414,3.3414,3.3414,3.3414,3.3414,3.3414,3.3414,3.3414,3.3414,3.3414,3.3414,3.3414,3.3414,3.3414,3.3414,3.3414,3.3414,3.3414,3.3414,3.3414,3.3414,3.3414,3.3414,3.3414,3.3414,3.3414,3.3414,3.3414,3.3414,3.3414,3.3414,3.3414,3.3414,3.3414,3.3414,3.3414,3.3414,3.3414,3.3414,3.3547,3.3988,3.4295,3.4429,3.4883,3.5191,3.5204,3.5204,3.5204,3.5204,3.5204,3.5204,3.5204,3.5204,3.5204,3.5204,3.5204,3.5204,3.5204,3.5204,3.5204,3.5204,3.5204,3.5204,3.5204,3.5204,3.5204,3.5204,3.5204,3.5204,3.5204,3.5204,3.5204,3.5204,3.5204,3.5204,3.5204,3.5204,3.5204,3.5204,3.5204,3.5204,3.5204,3.5204,3.5204,3.5204,3.5204,3.5204,3.5204,3.5204,3.5204,3.5204,3.5204,3.5204,3.5204,3.5204,3.5204,3.5204,3.5204,3.5204,3.5204,3.5204,3.5204,3.5204,3.5204,3.5204,3.5204,3.5204,3.5204,3.3414,3.3414,3.3414,3.3414,3.3414,3.3414,3.3414,3.3414,3.3414,3.3414,3.3414,3.3414,3.3414,3.3414,3.3414,3.3414,3.3414,3.3414,3.3414,3.3414,3.3414,3.3414,3.3414,3.3414,3.3414,3.3414,3.3414,3.3414,3.3414,3.3414,3.3414,3.3414,3.3414,3.3414,3.3414,3.3414,3.3414,3.3414,3.3414,3.3414,3.3414,3.3414,3.3414,3.3414,3.3414,3.3414,3.3494,3.4002,3.4309,3.4429,3.4883,3.5191,3.5204,3.5204,3.5204,3.5204,3.5204,3.5204,3.5204,3.5204,3.5204,3.5204,3.5204,3.5204,3.5204,3.5204,3.5204,3.5204,3.5204,3.5204,3.5204,3.5204,3.5204,3.5204,3.5204,3.5204,3.5204,3.5204,3.5204,3.5204,3.5204,3.5204,3.5204,3.5204,3.5204,3.5204,3.5204,3.5204,3.5204,3.5204,3.5204,3.5204,3.5204,3.5204,3.5204,3.5204,3.5204,3.5204,3.5204,3.5204,3.5204,3.5204,3.5204,3.5204,3.5204,3.5204,3.5204,3.5204,3.5204,3.5204,3.5204,3.5204,3.5204,3.5204,3.5204,3.3414,3.3414,3.3414,3.3414,3.3414,3.3414,3.3414,3.3414,3.3414,3.3414,3.3414,3.3414,3.3414,3.3414,3.3414,3.3414,3.3414,3.3414,3.3414,3.3414,3.3414,3.3414,3.3414,3.3414,3.3414,3.3414,3.3414,3.3414,3.3414,3.3414,3.3414,3.3414,3.3414,3.3414,3.3414,3.3414,3.3414,3.3414,3.3414,3.3414,3.3414,3.3414,3.3414,3.3414,3.3414,3.3414,3.344,3.3961,3.4309,3.4336,3.483,3.5177,3.5191,3.5191,3.5204,3.5204,3.5204,3.5204,3.5204,3.5204,3.5204,3.5204,3.5204,3.5204,3.5204,3.5204,3.5204,3.5204,3.5204,3.5204,3.5204,3.5204,3.5204,3.5204,3.5204,3.5204,3.5204,3.5204,3.5204,3.5204,3.5204,3.5204,3.5204,3.5204,3.5204,3.5204,3.5204,3.5204,3.5204,3.5204,3.5204,3.5204,3.5204,3.5204,3.5204,3.5204,3.5204,3.5204,3.5204,3.5204,3.5204,3.5204,3.5204,3.5204,3.5204,3.5204,3.5204,3.5204,3.5204,3.5204,3.5204,3.5204,3.5204,3.5204,3.5204,3.3414,3.3414,3.3414,3.3414,3.3414,3.3414,3.3414,3.3414,3.3414,3.3414,3.3414,3.3414,3.3414,3.3414,3.3414,3.3414,3.3414,3.3414,3.3414,3.3414,3.3414,3.3414,3.3414,3.3414,3.3414,3.3414,3.3414,3.3414,3.3414,3.3414,3.3414,3.3414,3.3414,3.3414,3.3414,3.3414,3.3414,3.3414,3.3414,3.3414,3.3414,3.3414,3.3414,3.3414,3.3414,3.3414,3.3467,3.3828,3.4095,3.4376,3.4736,3.4977,3.5177,3.5191,3.5204,3.5204,3.5204,3.5204,3.5204,3.5204,3.5204,3.5204,3.5204,3.5204,3.5204,3.5204,3.5204,3.5204,3.5204,3.5204,3.5204,3.5204,3.5204,3.5204,3.5204,3.5204,3.5204,3.5204,3.5204,3.5204,3.5204,3.5204,3.5204,3.5204,3.5204,3.5204,3.5204,3.5204,3.5204,3.5204,3.5204,3.5204,3.5204,3.5204,3.5204,3.5204,3.5204,3.5204,3.5204,3.5204,3.5204,3.5204,3.5204,3.5204,3.5204,3.5204,3.5204,3.5204,3.5204,3.5204,3.5204,3.5204,3.5204,3.5204,3.5204,3.3414,3.3414,3.3414,3.3414,3.3414,3.3414,3.3414,3.3414,3.3414,3.3414,3.3414,3.3414,3.3414,3.3414,3.3414,3.3414,3.3414,3.3414,3.3414,3.3414,3.3414,3.3414,3.3414,3.3414,3.3414,3.3414,3.3414,3.3414,3.3414,3.3414,3.3414,3.3414,3.3414,3.3414,3.3414,3.3414,3.3414,3.3414,3.3414,3.3414,3.3414,3.3414,3.3414,3.3414,3.3414,3.3414,3.3494,3.3748,3.4042,3.4322,3.4629,3.491,3.5084,3.5204,3.5204,3.5204,3.5204,3.5204,3.5204,3.5204,3.5204,3.5204,3.5204,3.5204,3.5204,3.5204,3.5204,3.5204,3.5204,3.5204,3.5204,3.5204,3.5204,3.5204,3.5204,3.5204,3.5204,3.5204,3.5204,3.5204,3.5204,3.5204,3.5204,3.5204,3.5204,3.5204,3.5204,3.5204,3.5204,3.5204,3.5204,3.5204,3.5204,3.5204,3.5204,3.5204,3.5204,3.5204,3.5204,3.5204,3.5204,3.5204,3.5204,3.5204,3.5204,3.5204,3.5204,3.5204,3.5204,3.5204,3.5204,3.5204,3.5204,3.5204,3.5204,3.3414,3.3414,3.3414,3.3414,3.3414,3.3414,3.3414,3.3414,3.3414,3.3414,3.3414,3.3414,3.3414,3.3414,3.3414,3.3414,3.3414,3.3414,3.3414,3.3414,3.3414,3.3414,3.3414,3.3414,3.3414,3.3414,3.3414,3.3414,3.3414,3.3414,3.3414,3.3414,3.3414,3.3414,3.3414,3.3414,3.3414,3.3414,3.3414,3.3414,3.3414,3.3414,3.3414,3.3414,3.3414,3.3414,3.348,3.3641,3.3921,3.4215,3.4523,3.4817,3.5084,3.5164,3.5191,3.5204,3.5204,3.5204,3.5204,3.5204,3.5204,3.5204,3.5204,3.5204,3.5204,3.5204,3.5204,3.5204,3.5204,3.5204,3.5204,3.5204,3.5204,3.5204,3.5204,3.5204,3.5204,3.5204,3.5204,3.5204,3.5204,3.5204,3.5204,3.5204,3.5204,3.5204,3.5204,3.5204,3.5204,3.5204,3.5204,3.5204,3.5204,3.5204,3.5204,3.5204,3.5204,3.5204,3.5204,3.5204,3.5204,3.5204,3.5204,3.5204,3.5204,3.5204,3.5204,3.5204,3.5204,3.5204,3.5204,3.5204,3.5204,3.5204,3.5204,3.3414,3.3414,3.3414,3.3414,3.3414,3.3414,3.3414,3.3414,3.3414,3.3414,3.3414,3.3414,3.3414,3.3414,3.3414,3.3414,3.3414,3.3414,3.3414,3.3414,3.3414,3.3414,3.3414,3.3414,3.3414,3.3414,3.3414,3.3414,3.3414,3.3414,3.3414,3.3414,3.3414,3.3414,3.3414,3.3414,3.3414,3.3414,3.3414,3.3414,3.3414,3.3414,3.3414,3.3414,3.3414,3.3414,3.3414,3.3574,3.3761,3.4042,3.4336,3.4616,3.491,3.5044,3.5177,3.5191,3.5204,3.5204,3.5204,3.5204,3.5204,3.5204,3.5204,3.5204,3.5204,3.5204,3.5204,3.5204,3.5204,3.5204,3.5204,3.5204,3.5204,3.5204,3.5204,3.5204,3.5204,3.5204,3.5204,3.5204,3.5204,3.5204,3.5204,3.5204,3.5204,3.5204,3.5204,3.5204,3.5204,3.5204,3.5204,3.5204,3.5204,3.5204,3.5204,3.5204,3.5204,3.5204,3.5204,3.5204,3.5204,3.5204,3.5204,3.5204,3.5204,3.5204,3.5204,3.5204,3.5204,3.5204,3.5204,3.5204,3.5204,3.5204,3.5204,3.3414,3.3414,3.3414,3.3414,3.3414,3.3414,3.3414,3.3414,3.3414,3.3414,3.3414,3.3414,3.3414,3.3414,3.3414,3.3414,3.3414,3.3414,3.3414,3.3414,3.3414,3.3414,3.3414,3.3414,3.3414,3.3414,3.3414,3.3414,3.3414,3.3414,3.3414,3.3414,3.3414,3.3414,3.3414,3.3414,3.3414,3.3414,3.3414,3.3414,3.3414,3.3414,3.3414,3.3414,3.3414,3.3414,3.3414,3.3454,3.3561,3.3841,3.4095,3.4362,3.4683,3.4923,3.5097,3.5151,3.5204,3.5204,3.5204,3.5204,3.5204,3.5204,3.5204,3.5204,3.5204,3.5204,3.5204,3.5204,3.5204,3.5204,3.5204,3.5204,3.5204,3.5204,3.5204,3.5204,3.5204,3.5204,3.5204,3.5204,3.5204,3.5204,3.5204,3.5204,3.5204,3.5204,3.5204,3.5204,3.5204,3.5204,3.5204,3.5204,3.5204,3.5204,3.5204,3.5204,3.5204,3.5204,3.5204,3.5204,3.5204,3.5204,3.5204,3.5204,3.5204,3.5204,3.5204,3.5204,3.5204,3.5204,3.5204,3.5204,3.5204,3.5204,3.5204,3.3414,3.3414,3.3414,3.3414,3.3414,3.3414,3.3414,3.3414,3.3414,3.3414,3.3414,3.3414,3.3414,3.3414,3.3414,3.3414,3.3414,3.3414,3.3414,3.3414,3.3414,3.3414,3.3414,3.3414,3.3414,3.3414,3.3414,3.3414,3.3414,3.3414,3.3414,3.3414,3.3414,3.3414,3.3414,3.3414,3.3414,3.3414,3.3414,3.3414,3.3414,3.3414,3.3414,3.3414,3.3414,3.3414,3.3414,3.3427,3.3574,3.3748,3.3908,3.4242,3.4574,3.4788,3.4989,3.511,3.5191,3.5204,3.5204,3.5204,3.5204,3.5204,3.5204,3.5204,3.5204,3.5204,3.5204,3.5204,3.5204,3.5204,3.5204,3.5204,3.5204,3.5204,3.5204,3.5204,3.5204,3.5204,3.5204,3.5204,3.5204,3.5204,3.5204,3.5204,3.5204,3.5204,3.5204,3.5204,3.5204,3.5204,3.5204,3.5204,3.5204,3.5204,3.5204,3.5204,3.5204,3.5204,3.5204,3.5204,3.5204,3.5204,3.5204,3.5204,3.5204,3.5204,3.5204,3.5204,3.5204,3.5204,3.5204,3.5204,3.5204,3.5204,3.5204,3.3414,3.3414,3.3414,3.3414,3.3414,3.3414,3.3414,3.3414,3.3414,3.3414,3.3414,3.3414,3.3414,3.3414,3.3414,3.3414,3.3414,3.3414,3.3414,3.3414,3.3414,3.3414,3.3414,3.3414,3.3414,3.3414,3.3414,3.3414,3.3414,3.3414,3.3414,3.3414,3.3414,3.3414,3.3414,3.3414,3.3414,3.3414,3.3414,3.3414,3.3414,3.3414,3.3414,3.3414,3.3414,3.3414,3.3414,3.3414,3.3507,3.3547,3.3774,3.4042,3.4082,3.4561,3.4897,3.5151,3.5204,3.5204,3.5204,3.5204,3.5204,3.5204,3.5204,3.5204,3.5204,3.5204,3.5204,3.5204,3.5204,3.5204,3.5204,3.5204,3.5204,3.5204,3.5204,3.5204,3.5204,3.5204,3.5204,3.5204,3.5204,3.5204,3.5204,3.5204,3.5204,3.5204,3.5204,3.5204,3.5204,3.5204,3.5204,3.5204,3.5204,3.5204,3.5204,3.5204,3.5204,3.5204,3.5204,3.5204,3.5204,3.5204,3.5204,3.5204,3.5204,3.5204,3.5204,3.5204,3.5204,3.5204,3.5204,3.5204,3.5204,3.5204,3.5204,3.3414,3.3414,3.3414,3.3414,3.3414,3.3414,3.3414,3.3414,3.3414,3.3414,3.3414,3.3414,3.3414,3.3414,3.3414,3.3414,3.3414,3.3414,3.3414,3.3414,3.3414,3.3414,3.3414,3.3414,3.3414,3.3414,3.3414,3.3414,3.3414,3.3414,3.3414,3.3414,3.3414,3.3414,3.3414,3.3414,3.3414,3.3414,3.3414,3.3414,3.3414,3.3414,3.3414,3.3414,3.3414,3.3414,3.3414,3.3414,3.3414,3.3414,3.3641,3.3774,3.3935,3.4494,3.4829,3.5017,3.5151,3.5177,3.5204,3.5204,3.5204,3.5204,3.5204,3.5204,3.5204,3.5204,3.5204,3.5204,3.5204,3.5204,3.5204,3.5204,3.5204,3.5204,3.5204,3.5204,3.5204,3.5204,3.5204,3.5204,3.5204,3.5204,3.5204,3.5204,3.5204,3.5204,3.5204,3.5204,3.5204,3.5204,3.5204,3.5204,3.5204,3.5204,3.5204,3.5204,3.5204,3.5204,3.5204,3.5204,3.5204,3.5204,3.5204,3.5204,3.5204,3.5204,3.5204,3.5204,3.5204,3.5204,3.5204,3.5204,3.5204,3.5204,3.5204,3.3414,3.3414,3.3414,3.3414,3.3414,3.3414,3.3414,3.3414,3.3414,3.3414,3.3414,3.3414,3.3414,3.3414,3.3414,3.3414,3.3414,3.3414,3.3414,3.3414,3.3414,3.3414,3.3414,3.3414,3.3414,3.3414,3.3414,3.3414,3.3414,3.3414,3.3414,3.3414,3.3414,3.3414,3.3414,3.3414,3.3414,3.3414,3.3414,3.3414,3.3414,3.3414,3.3414,3.3414,3.3414,3.3414,3.3414,3.3414,3.3414,3.3414,3.3454,3.3587,3.3961,3.4333,3.4563,3.483,3.5004,3.5124,3.5177,3.5204,3.5204,3.5204,3.5204,3.5204,3.5204,3.5204,3.5204,3.5204,3.5204,3.5204,3.5204,3.5204,3.5204,3.5204,3.5204,3.5204,3.5204,3.5204,3.5204,3.5204,3.5204,3.5204,3.5204,3.5204,3.5204,3.5204,3.5204,3.5204,3.5204,3.5204,3.5204,3.5204,3.5204,3.5204,3.5204,3.5204,3.5204,3.5204,3.5204,3.5204,3.5204,3.5204,3.5204,3.5204,3.5204,3.5204,3.5204,3.5204,3.5204,3.5204,3.5204,3.5204,3.5204,3.5204,3.5204,3.3414,3.3414,3.3414,3.3414,3.3414,3.3414,3.3414,3.3414,3.3414,3.3414,3.3414,3.3414,3.3414,3.3414,3.3414,3.3414,3.3414,3.3414,3.3414,3.3414,3.3414,3.3414,3.3414,3.3414,3.3414,3.3414,3.3414,3.3414,3.3414,3.3414,3.3414,3.3414,3.3414,3.3414,3.3414,3.3414,3.3414,3.3414,3.3414,3.3414,3.3414,3.3414,3.3414,3.3414,3.3414,3.3414,3.3414,3.3414,3.3414,3.3414,3.3414,3.3587,3.3881,3.4042,3.4322,3.4721,3.4803,3.495,3.5097,3.5151,3.5164,3.5191,3.5204,3.5204,3.5204,3.5204,3.5204,3.5204,3.5204,3.5204,3.5204,3.5204,3.5204,3.5204,3.5204,3.5204,3.5204,3.5204,3.5204,3.5204,3.5204,3.5204,3.5204,3.5204,3.5204,3.5204,3.5204,3.5204,3.5204,3.5204,3.5204,3.5204,3.5204,3.5204,3.5204,3.5204,3.5204,3.5204,3.5204,3.5204,3.5204,3.5204,3.5204,3.5204,3.5204,3.5204,3.5204,3.5204,3.5204,3.5204,3.5204,3.5204,3.5204,3.5204,3.5204,3.3414,3.3414,3.3414,3.3414,3.3414,3.3414,3.3414,3.3414,3.3414,3.3414,3.3414,3.3414,3.3414,3.3414,3.3414,3.3414,3.3414,3.3414,3.3414,3.3414,3.3414,3.3414,3.3414,3.3414,3.3414,3.3414,3.3414,3.3414,3.3414,3.3414,3.3414,3.3414,3.3414,3.3414,3.3414,3.3414,3.3414,3.3414,3.3414,3.3414,3.3414,3.3414,3.3414,3.3414,3.3414,3.3414,3.3414,3.3414,3.3414,3.3414,3.3414,3.3454,3.3668,3.3841,3.4042,3.4295,3.4482,3.4696,3.491,3.503,3.507,3.5124,3.5191,3.5191,3.5204,3.5204,3.5204,3.5204,3.5204,3.5204,3.5204,3.5204,3.5204,3.5204,3.5204,3.5204,3.5204,3.5204,3.5204,3.5204,3.5204,3.5204,3.5204,3.5204,3.5204,3.5204,3.5204,3.5204,3.5204,3.5204,3.5204,3.5204,3.5204,3.5204,3.5204,3.5204,3.5204,3.5204,3.5204,3.5204,3.5204,3.5204,3.5204,3.5204,3.5204,3.5204,3.5204,3.5204,3.5204,3.5204,3.5204,3.5204,3.5204,3.5204,3.5204,3.3414,3.3414,3.3414,3.3414,3.3414,3.3414,3.3414,3.3414,3.3414,3.3414,3.3414,3.3414,3.3414,3.3414,3.3414,3.3414,3.3414,3.3414,3.3414,3.3414,3.3414,3.3414,3.3414,3.3414,3.3414,3.3414,3.3414,3.3414,3.3414,3.3414,3.3414,3.3414,3.3414,3.3414,3.3414,3.3414,3.3414,3.3414,3.3414,3.3414,3.3414,3.3414,3.3414,3.3414,3.3414,3.3414,3.3414,3.3414,3.3414,3.3414,3.3414,3.344,3.3494,3.3654,3.3814,3.4015,3.4175,3.4416,3.4643,3.479,3.4923,3.5057,3.5137,3.5191,3.5191,3.5204,3.5204,3.5204,3.5204,3.5204,3.5204,3.5204,3.5204,3.5204,3.5204,3.5204,3.5204,3.5204,3.5204,3.5204,3.5204,3.5204,3.5204,3.5204,3.5204,3.5204,3.5204,3.5204,3.5204,3.5204,3.5204,3.5204,3.5204,3.5204,3.5204,3.5204,3.5204,3.5204,3.5204,3.5204,3.5204,3.5204,3.5204,3.5204,3.5204,3.5204,3.5204,3.5204,3.5204,3.5204,3.5204,3.5204,3.5204,3.5204,3.5204,3.3414,3.3414,3.3414,3.3414,3.3414,3.3414,3.3414,3.3414,3.3414,3.3414,3.3414,3.3414,3.3414,3.3414,3.3414,3.3414,3.3414,3.3414,3.3414,3.3414,3.3414,3.3414,3.3414,3.3414,3.3414,3.3414,3.3414,3.3414,3.3414,3.3414,3.3414,3.3414,3.3414,3.3414,3.3414,3.3414,3.3414,3.3414,3.3414,3.3414,3.3414,3.3414,3.3414,3.3414,3.3414,3.3414,3.3414,3.3414,3.3414,3.3414,3.3414,3.3414,3.344,3.3507,3.3641,3.3774,3.3935,3.4108,3.4322,3.4536,3.471,3.4897,3.499,3.5164,3.5177,3.5204,3.5204,3.5204,3.5204,3.5204,3.5204,3.5204,3.5204,3.5204,3.5204,3.5204,3.5204,3.5204,3.5204,3.5204,3.5204,3.5204,3.5204,3.5204,3.5204,3.5204,3.5204,3.5204,3.5204,3.5204,3.5204,3.5204,3.5204,3.5204,3.5204,3.5204,3.5204,3.5204,3.5204,3.5204,3.5204,3.5204,3.5204,3.5204,3.5204,3.5204,3.5204,3.5204,3.5204,3.5204,3.5204,3.5204,3.5204,3.5204,3.5204]},{"header":{"parameterUnit":"m.s-1","parameterCategory":1,"la1":31.0,"la2":29.5877,"lo1":-88.7671,"lo2":-86.6584,"dy":0.0162,"dx":0.0185,"nx":115,"ny":88,"refTime":"2023-04-07T00:00:00:Z","depth":0,"parameterNumber":3,"parameterNumberName":"V-component_of_WINDS"},"data":[0.0,0.0,0.0,0.0,0.0,0.0,0.0,0.0,0.0,0.0,0.0,0.0,0.0,0.0,0.0,0.0,0.0,0.0,0.0,0.0,0.0,0.0,0.0,0.0,0.0,0.0,0.0,0.0,0.0,0.0,0.0,0.0,0.0,0.0,0.0,0.0,0.0,0.0,0.0,0.0,0.0,0.0,0.0,0.0,0.0,0.0,0.0,0.0,0.0,0.0,0.0,0.0,0.0,0.0,0.0,0.0,0.0,0.0,0.0,0.0,0.0,0.0,0.0,0.0,0.0,0.0,0.0,0.0,0.0,0.0,0.0,0.0,0.0,0.0,0.0,0.0,0.0,0.0,0.0,0.0,0.0,0.0,0.0,0.0,0.0,0.0,0.0,0.0,0.0,0.0,0.0,0.0,0.0,0.0,0.0,0.0,0.0,0.0,0.0,0.0,0.0,0.0,0.0,0.0,0.0,0.0,0.0,0.0,0.0,0.0,0.0,0.0,0.0,0.0,0.0,0.0,0.0,0.0,0.0,0.0,0.0,0.0,0.0,0.0,0.0,0.0,0.0,0.0,0.0,0.0,0.0,0.0,0.0,0.0,0.0,0.0,0.0,0.0,0.0,0.0,0.0,0.0,0.0,0.0,0.0,0.0,0.0,0.0,0.0,0.0,0.0,0.0,0.0,0.0,0.0,0.0,0.0,0.0,0.0,0.0,0.0,0.0,0.0,0.0,0.0,0.0,0.0,0.0,0.0,0.0,0.0,0.0,0.0,0.0,0.0,0.0,0.0,0.0,0.0,0.0,0.0,0.0,0.0,0.0,0.0,0.0,0.0,0.0,0.0,0.0,0.0,0.0,0.0,0.0,0.0,0.0,0.0,0.0,0.0,0.0,0.0,0.0,0.0,0.0,0.0,0.0,0.0,0.0,0.0,0.0,0.0,0.0,0.0,0.0,0.0,0.0,0.0,0.0,0.0,0.0,0.0,0.0,0.0,0.0,0.0,0.0,0.0,0.0,0.0,0.0,0.0,0.0,0.0,0.0,0.0,0.0,0.0,0.0,0.0,0.0,0.0,0.0,0.0,0.0,0.0,0.0,0.0,0.0,0.0,0.0,0.0,0.0,0.0,0.0,0.0,0.0,0.0,0.0,0.0,0.0,0.0,0.0,0.0,0.0,0.0,0.0,0.0,0.0,0.0,0.0,0.0,0.0,0.0,0.0,0.0,0.0,0.0,0.0,0.0,0.0,0.0,0.0,0.0,0.0,0.0,0.0,0.0,0.0,0.0,0.0,0.0,0.0,0.0,0.0,0.0,0.0,0.0,0.0,0.0,0.0,0.0,0.0,0.0,0.0,0.0,0.0,0.0,0.0,0.0,0.0,0.0,0.0,0.0,0.0,0.0,0.0,0.0,0.0,0.0,0.0,0.0,0.0,0.0,0.0,0.0,0.0,0.0,0.0,0.0,0.0,0.0,0.0,0.0,0.0,0.0,0.0,0.0,0.0,0.0,0.0,0.0,0.0,0.0,0.0,0.0,0.0,0.0,0.0,0.0,0.0,0.0,0.0,0.0,0.0,0.0,0.0,0.0,0.0,0.0,0.0,0.0,0.0,0.0,0.0,0.0,0.0,0.0,0.0,0.0,0.0,0.0,0.0,0.0,0.0,0.0,0.0,0.0,0.0,0.0,0.0,0.0,0.0,0.0,0.0,0.0,0.0,0.0,0.0,0.0,0.0,0.0,0.0,0.0,0.0,0.0,0.0,0.0,0.0,0.0,0.0,0.0,0.0,0.0,0.0,0.0,0.0,0.0,0.0,0.0,0.0,0.0,0.0,0.0,0.0,0.0,0.0,0.0,0.0,0.0,0.0,0.0,0.0,0.0,0.0,0.0,0.0,0.0,0.0,0.0,0.0,0.0,0.0,0.0,0.0,0.0,0.0,0.0,0.0,0.0,0.0,0.0,0.0,0.0,0.0,0.0,0.0,0.0,0.0,0.0,0.0,0.0,0.0,0.0,0.0,0.0,0.0,0.0,0.0,0.0,0.0,0.0,0.0,0.0,0.0,0.0,0.0,0.0,0.0,0.0,0.0,0.0,0.0,0.0,0.0,0.0,0.0,0.0,0.0,0.0,0.0,0.0,0.0,0.0,0.0,0.0,0.0,0.0,0.0,0.0,0.0,0.0,0.0,0.0,0.0,0.0,0.0,0.0,0.0,0.0,0.0,0.0,0.0,0.0,0.0,0.0,0.0,0.0,0.0,0.0,0.0,0.0,0.0,0.0,0.0,0.0,0.0,0.0,0.0,0.0,0.0,0.0,0.0,0.0,0.0,0.0,0.0,0.0,0.0,0.0,0.0,0.0,0.0,0.0,0.0,0.0,0.0,0.0,0.0,0.0,0.0,0.0,0.0,0.0,0.0,0.0,0.0,0.0,0.0,0.0,0.0,0.0,0.0,0.0,0.0,0.0,0.0,0.0,0.0,0.0,0.0,0.0,0.0,0.0,0.0,0.0,0.0,0.0,0.0,0.0,0.0,0.0,0.0,0.0,0.0,0.0,0.0,0.0,0.0,0.0,0.0,0.0,0.0,0.0,0.0,0.0,0.0,0.0,0.0,0.0,0.0,0.0,0.0,0.0,0.0,0.0,0.0,0.0,0.0,0.0,0.0,0.0,0.0,0.0,0.0,0.0,0.0,0.0,0.0,0.0,0.0,0.0,0.0,0.0,0.0,0.0,0.0,0.0,0.0,0.0,0.0,0.0,0.0,0.0,0.0,0.0,0.0,0.0,0.0,0.0,0.0,0.0,0.0,0.0,0.0,0.0,0.0,0.0,0.0,0.0,0.0,0.0,0.0,0.0,0.0,0.0,0.0,0.0,0.0,0.0,0.0,0.0,0.0,0.0,0.0,0.0,0.0,0.0,0.0,0.0,0.0,0.0,0.0,0.0,0.0,0.0,0.0,0.0,0.0,0.0,0.0,0.0,0.0,0.0,0.0,0.0,0.0,0.0,0.0,0.0,0.0,0.0,0.0,0.0,0.0,0.0,0.0,0.0,0.0,0.0,0.0,0.0,0.0,0.0,0.0,0.0,0.0,0.0,0.0,0.0,0.0,0.0,0.0,0.0,0.0,0.0,0.0,0.0,0.0,0.0,0.0,0.0,0.0,0.0,0.0,0.0,0.0,0.0,0.0,0.0,0.0,0.0,0.0,0.0,0.0,0.0,0.0,0.0,0.0,0.0,0.0,0.0,0.0,0.0,0.0,0.0,0.0,0.0,0.0,0.0,0.0,0.0,0.0,0.0,0.0,0.0,0.0,0.0,0.0,0.0,0.0,0.0,0.0,0.0,0.0,0.0,0.0,0.0,0.0,0.0,0.0,0.0,0.0,0.0,0.0,0.0,0.0,0.0,0.0,0.0,0.0,0.0,0.0,0.0,0.0,0.0,0.0,0.0,0.0,0.0,0.0,0.0,0.0,0.0,0.0,0.0,0.0,0.0,0.0,0.0,0.0,0.0,0.0,0.0,0.0,0.0,0.0,0.0,0.0,0.0,0.0,0.0,0.0,0.0,0.0,0.0,0.0,0.0,0.0,0.0,0.0,0.0,0.0,0.0,0.0,0.0,0.0,0.0,0.0,0.0,0.0,0.0,0.0,0.0,0.0,0.0,0.0,0.0,0.0,0.0,0.0,0.0,0.0,0.0,0.0,0.0,0.0,0.0,0.0,0.0,0.0,0.0,0.0,0.0,0.0,0.0,0.0,0.0,0.0,0.0,0.0,0.0,0.0,0.0,0.0,0.0,0.0,0.0,0.0,0.0,0.0,0.0,0.0,0.0,0.0,0.0,0.0,0.0,0.0,0.0,0.0,0.0,0.0,0.0,0.0,0.0,0.0,0.0,0.0,0.0,0.0,0.0,0.0,0.0,0.0,0.0,0.0,0.0,0.0,0.0,0.0,0.0,0.0,0.0,0.0,0.0,0.0,0.0,0.0,0.0,0.0,0.0,0.0,0.0,0.0,0.0,0.0,0.0,0.0,0.0,0.0,0.0,0.0,0.0,0.0,0.0,0.0,0.0,0.0,0.0,0.0,0.0,0.0,0.0,0.0,0.0,0.0,0.0,0.0,0.0,0.0,0.0,0.0,0.0,0.0,0.0,0.0,0.0,0.0,0.0,0.0,0.0,0.0,0.0,0.0,0.0,0.0,0.0,0.0,0.0,0.0,0.0,0.0,0.0,0.0,0.0,0.0,0.0,0.0,0.0,0.0,0.0,0.0,0.0,0.0,0.0,0.0,4.9018,0.0,0.0,0.0,0.0,0.0,0.0,0.0,0.0,0.0,0.0,0.0,0.0,0.0,0.0,0.0,0.0,0.0,0.0,0.0,0.0,0.0,0.0,0.0,0.0,0.0,0.0,0.0,0.0,0.0,0.0,0.0,0.0,0.0,0.0,0.0,0.0,0.0,0.0,0.0,0.0,0.0,0.0,0.0,0.0,0.0,0.0,0.0,0.0,0.0,0.0,0.0,0.0,0.0,0.0,0.0,0.0,0.0,0.0,0.0,0.0,0.0,0.0,0.0,0.0,0.0,0.0,0.0,0.0,0.0,0.0,0.0,0.0,0.0,0.0,0.0,0.0,0.0,0.0,0.0,0.0,0.0,0.0,0.0,0.0,0.0,0.0,0.0,0.0,0.0,0.0,0.0,0.0,0.0,0.0,0.0,0.0,0.0,0.0,0.0,0.0,0.0,0.0,0.0,0.0,0.0,0.0,0.0,0.0,0.0,0.0,4.8665,4.8984,4.9018,4.9018,4.9018,0.0,0.0,0.0,0.0,0.0,0.0,0.0,0.0,0.0,0.0,0.0,0.0,0.0,0.0,0.0,0.0,0.0,0.0,0.0,0.0,0.0,0.0,0.0,0.0,0.0,0.0,0.0,0.0,0.0,0.0,0.0,0.0,0.0,0.0,0.0,0.0,0.0,0.0,0.0,0.0,0.0,0.0,0.0,0.0,0.0,0.0,0.0,0.0,0.0,0.0,0.0,0.0,0.0,0.0,0.0,0.0,0.0,0.0,0.0,0.0,0.0,0.0,0.0,0.0,0.0,0.0,0.0,0.0,0.0,0.0,0.0,0.0,0.0,0.0,0.0,0.0,0.0,0.0,0.0,0.0,0.0,0.0,0.0,0.0,0.0,0.0,0.0,0.0,0.0,0.0,0.0,0.0,0.0,0.0,0.0,0.0,0.0,0.0,0.0,0.0,0.0,0.0,0.0,0.0,0.0,0.0,0.0,0.0,0.0,0.0,0.0,0.0,4.9018,4.9018,4.9018,0.0,0.0,0.0,0.0,0.0,0.0,0.0,0.0,0.0,0.0,0.0,0.0,0.0,0.0,0.0,0.0,0.0,0.0,0.0,0.0,0.0,0.0,0.0,0.0,0.0,0.0,0.0,0.0,0.0,0.0,0.0,0.0,0.0,0.0,0.0,0.0,0.0,0.0,0.0,0.0,0.0,0.0,0.0,0.0,0.0,0.0,0.0,0.0,0.0,0.0,0.0,0.0,0.0,0.0,0.0,0.0,0.0,0.0,0.0,0.0,0.0,0.0,0.0,0.0,0.0,0.0,0.0,0.0,0.0,0.0,0.0,0.0,0.0,0.0,0.0,0.0,0.0,0.0,0.0,0.0,0.0,0.0,0.0,0.0,0.0,0.0,0.0,0.0,0.0,0.0,0.0,0.0,0.0,0.0,0.0,0.0,0.0,0.0,0.0,0.0,0.0,0.0,0.0,0.0,0.0,0.0,0.0,0.0,0.0,0.0,4.9018,4.9018,4.9018,0.0,4.9018,0.0,0.0,0.0,0.0,0.0,0.0,0.0,0.0,0.0,0.0,0.0,0.0,0.0,0.0,0.0,0.0,0.0,0.0,0.0,0.0,0.0,0.0,0.0,0.0,0.0,0.0,0.0,0.0,0.0,0.0,0.0,0.0,0.0,0.0,0.0,0.0,0.0,0.0,0.0,0.0,0.0,0.0,0.0,0.0,0.0,0.0,0.0,0.0,0.0,0.0,0.0,0.0,0.0,0.0,0.0,0.0,0.0,0.0,0.0,0.0,0.0,0.0,0.0,0.0,0.0,0.0,0.0,0.0,0.0,0.0,0.0,0.0,0.0,0.0,0.0,0.0,0.0,0.0,0.0,0.0,0.0,0.0,0.0,0.0,0.0,0.0,0.0,0.0,0.0,0.0,0.0,0.0,0.0,0.0,0.0,0.0,0.0,0.0,0.0,0.0,0.0,0.0,0.0,0.0,0.0,0.0,0.0,0.0,0.0,0.0,4.9018,4.9018,4.9018,4.9018,0.0,0.0,0.0,0.0,0.0,0.0,0.0,0.0,0.0,0.0,0.0,0.0,0.0,0.0,0.0,0.0,0.0,0.0,0.0,0.0,0.0,0.0,0.0,0.0,0.0,0.0,0.0,0.0,0.0,0.0,0.0,0.0,0.0,0.0,0.0,0.0,0.0,0.0,0.0,0.0,0.0,0.0,0.0,0.0,0.0,0.0,0.0,0.0,0.0,0.0,0.0,0.0,0.0,0.0,0.0,0.0,0.0,0.0,0.0,0.0,0.0,0.0,0.0,0.0,0.0,0.0,0.0,0.0,0.0,0.0,0.0,0.0,0.0,0.0,0.0,0.0,0.0,0.0,0.0,0.0,0.0,0.0,0.0,0.0,0.0,0.0,0.0,0.0,0.0,0.0,0.0,0.0,0.0,0.0,0.0,0.0,0.0,0.0,0.0,0.0,0.0,0.0,0.0,0.0,0.0,0.0,0.0,0.0,0.0,0.0,4.9018,4.9018,4.9018,4.9018,4.9018,4.9018,0.0,0.0,0.0,0.0,0.0,0.0,0.0,0.0,0.0,0.0,0.0,0.0,0.0,0.0,0.0,0.0,0.0,0.0,0.0,0.0,0.0,0.0,0.0,0.0,0.0,0.0,0.0,0.0,0.0,0.0,0.0,0.0,0.0,0.0,0.0,0.0,0.0,0.0,0.0,0.0,0.0,0.0,0.0,0.0,0.0,0.0,0.0,0.0,0.0,0.0,0.0,0.0,0.0,0.0,0.0,0.0,0.0,0.0,0.0,0.0,0.0,0.0,0.0,0.0,0.0,0.0,0.0,0.0,0.0,0.0,0.0,0.0,0.0,0.0,0.0,0.0,0.0,0.0,0.0,0.0,0.0,0.0,0.0,0.0,0.0,0.0,0.0,0.0,0.0,0.0,0.0,0.0,0.0,0.0,0.0,0.0,0.0,0.0,0.0,0.0,0.0,0.0,0.0,0.0,0.0,0.0,0.0,0.0,4.9018,4.9018,4.9018,4.9018,4.9018,4.9018,0.0,0.0,0.0,0.0,0.0,0.0,0.0,0.0,0.0,0.0,0.0,0.0,0.0,0.0,0.0,0.0,0.0,0.0,0.0,0.0,0.0,0.0,0.0,0.0,0.0,0.0,0.0,0.0,0.0,0.0,0.0,0.0,0.0,0.0,0.0,0.0,0.0,0.0,0.0,0.0,0.0,0.0,0.0,0.0,0.0,0.0,0.0,0.0,0.0,0.0,0.0,0.0,0.0,0.0,0.0,0.0,0.0,0.0,0.0,0.0,0.0,0.0,0.0,0.0,0.0,0.0,0.0,0.0,0.0,0.0,0.0,0.0,0.0,0.0,0.0,0.0,0.0,0.0,0.0,0.0,0.0,0.0,0.0,0.0,0.0,0.0,0.0,0.0,0.0,0.0,0.0,0.0,0.0,0.0,0.0,0.0,0.0,0.0,0.0,0.0,0.0,0.0,0.0,0.0,0.0,0.0,0.0,0.0,0.0,4.9018,4.9018,4.9018,4.9018,4.9018,4.9221,0.0,0.0,0.0,0.0,0.0,0.0,0.0,0.0,0.0,0.0,0.0,0.0,0.0,0.0,0.0,0.0,0.0,0.0,0.0,0.0,0.0,0.0,0.0,0.0,0.0,0.0,0.0,0.0,0.0,0.0,0.0,0.0,0.0,0.0,0.0,0.0,0.0,0.0,0.0,0.0,0.0,0.0,0.0,0.0,0.0,0.0,0.0,0.0,0.0,0.0,0.0,0.0,0.0,0.0,0.0,0.0,0.0,0.0,0.0,0.0,0.0,0.0,0.0,0.0,0.0,0.0,0.0,0.0,0.0,0.0,0.0,0.0,0.0,0.0,0.0,0.0,0.0,0.0,0.0,0.0,0.0,0.0,0.0,0.0,0.0,0.0,0.0,0.0,0.0,0.0,0.0,0.0,0.0,0.0,0.0,0.0,0.0,0.0,0.0,0.0,0.0,0.0,0.0,0.0,0.0,0.0,0.0,0.0,0.0,4.9018,0.0,4.912,4.9357,4.9357,4.9695,0.0,0.0,0.0,0.0,0.0,0.0,0.0,0.0,0.0,0.0,0.0,0.0,0.0,0.0,0.0,0.0,0.0,0.0,0.0,0.0,0.0,0.0,0.0,0.0,0.0,0.0,0.0,0.0,0.0,0.0,0.0,0.0,0.0,0.0,0.0,0.0,0.0,0.0,0.0,0.0,0.0,0.0,0.0,0.0,0.0,0.0,0.0,0.0,0.0,0.0,0.0,0.0,0.0,0.0,0.0,0.0,0.0,0.0,0.0,0.0,0.0,0.0,0.0,0.0,0.0,0.0,0.0,0.0,0.0,0.0,0.0,0.0,0.0,0.0,0.0,0.0,0.0,0.0,0.0,0.0,0.0,0.0,0.0,0.0,0.0,0.0,0.0,0.0,0.0,0.0,0.0,0.0,0.0,0.0,0.0,0.0,0.0,0.0,0.0,0.0,0.0,0.0,0.0,0.0,0.0,0.0,0.0,0.0,4.9018,4.9018,4.9052,4.9357,5.0067,5.0083,5.0439,0.0,0.0,0.0,0.0,0.0,0.0,0.0,0.0,0.0,0.0,0.0,0.0,0.0,0.0,0.0,0.0,0.0,0.0,0.0,0.0,0.0,0.0,0.0,0.0,0.0,0.0,0.0,0.0,0.0,0.0,0.0,0.0,0.0,0.0,0.0,0.0,0.0,0.0,0.0,0.0,0.0,0.0,0.0,0.0,0.0,0.0,0.0,0.0,0.0,0.0,0.0,0.0,0.0,0.0,0.0,0.0,0.0,0.0,0.0,0.0,0.0,0.0,0.0,0.0,0.0,0.0,0.0,0.0,0.0,0.0,0.0,0.0,0.0,0.0,0.0,0.0,0.0,0.0,0.0,0.0,0.0,0.0,0.0,0.0,0.0,0.0,0.0,0.0,0.0,0.0,0.0,0.0,0.0,0.0,0.0,0.0,0.0,0.0,0.0,0.0,0.0,0.0,0.0,0.0,0.0,0.0,0.0,0.0,0.0,4.9018,4.9492,4.988,5.0083,5.0608,5.1201,0.0,0.0,0.0,0.0,0.0,0.0,0.0,0.0,0.0,0.0,0.0,0.0,0.0,0.0,0.0,0.0,0.0,0.0,0.0,0.0,0.0,0.0,0.0,0.0,0.0,0.0,0.0,0.0,0.0,0.0,0.0,0.0,0.0,0.0,0.0,0.0,0.0,0.0,0.0,0.0,0.0,0.0,0.0,0.0,0.0,0.0,0.0,0.0,0.0,0.0,0.0,0.0,0.0,0.0,0.0,0.0,0.0,0.0,0.0,0.0,0.0,0.0,0.0,0.0,0.0,0.0,0.0,0.0,0.0,0.0,0.0,0.0,0.0,0.0,0.0,0.0,0.0,0.0,0.0,0.0,0.0,0.0,0.0,0.0,0.0,0.0,0.0,0.0,0.0,0.0,0.0,0.0,0.0,0.0,0.0,0.0,0.0,0.0,0.0,0.0,0.0,0.0,0.0,0.0,0.0,0.0,0.0,0.0,0.0,4.9424,4.988,5.0371,5.0913,5.1386,5.1979,5.2706,0.0,0.0,0.0,0.0,0.0,0.0,0.0,0.0,0.0,0.0,0.0,0.0,0.0,0.0,0.0,0.0,0.0,0.0,0.0,0.0,0.0,0.0,0.0,0.0,0.0,0.0,0.0,0.0,0.0,0.0,0.0,0.0,0.0,0.0,0.0,0.0,0.0,0.0,0.0,0.0,0.0,0.0,0.0,0.0,0.0,0.0,0.0,0.0,0.0,0.0,0.0,0.0,0.0,0.0,0.0,0.0,0.0,0.0,0.0,0.0,0.0,0.0,0.0,0.0,0.0,0.0,0.0,0.0,0.0,0.0,0.0,0.0,0.0,0.0,0.0,0.0,0.0,0.0,0.0,0.0,0.0,0.0,0.0,0.0,0.0,0.0,0.0,0.0,0.0,0.0,0.0,0.0,0.0,0.0,0.0,0.0,0.0,0.0,0.0,0.0,0.0,0.0,0.0,0.0,0.0,0.0,0.0,0.0,5.0218,5.0252,5.0895,5.2232,5.2334,5.2739,0.0,0.0,0.0,0.0,0.0,0.0,0.0,0.0,0.0,0.0,0.0,0.0,0.0,0.0,0.0,0.0,0.0,0.0,0.0,0.0,0.0,0.0,0.0,0.0,0.0,0.0,0.0,0.0,0.0,0.0,0.0,0.0,0.0,0.0,0.0,0.0,0.0,0.0,0.0,0.0,0.0,0.0,0.0,0.0,0.0,0.0,0.0,0.0,0.0,0.0,0.0,0.0,0.0,0.0,0.0,0.0,0.0,0.0,0.0,0.0,0.0,0.0,0.0,0.0,0.0,0.0,0.0,0.0,0.0,0.0,0.0,0.0,0.0,0.0,0.0,0.0,0.0,0.0,0.0,0.0,0.0,0.0,0.0,0.0,0.0,0.0,0.0,0.0,0.0,0.0,0.0,0.0,0.0,0.0,0.0,0.0,0.0,0.0,0.0,0.0,0.0,0.0,0.0,0.0,0.0,0.0,0.0,0.0,0.0,5.1691,5.1725,5.1894,5.23,5.2875,5.3264,0.0,0.0,0.0,0.0,0.0,0.0,0.0,0.0,0.0,0.0,0.0,0.0,0.0,0.0,0.0,0.0,0.0,0.0,0.0,0.0,0.0,0.0,0.0,0.0,0.0,0.0,0.0,0.0,0.0,0.0,0.0,0.0,0.0,0.0,0.0,0.0,0.0,0.0,0.0,0.0,0.0,0.0,0.0,0.0,0.0,0.0,0.0,0.0,0.0,0.0,0.0,0.0,0.0,0.0,0.0,0.0,0.0,0.0,0.0,0.0,0.0,0.0,0.0,0.0,0.0,0.0,0.0,0.0,0.0,0.0,0.0,0.0,0.0,0.0,0.0,0.0,0.0,0.0,0.0,0.0,0.0,0.0,0.0,0.0,0.0,0.0,0.0,0.0,0.0,0.0,0.0,0.0,0.0,0.0,0.0,0.0,0.0,0.0,0.0,0.0,0.0,0.0,0.0,0.0,0.0,0.0,0.0,0.0,5.1844,5.23,5.2638,5.2807,5.2807,5.3247,5.3517,0.0,0.0,0.0,0.0,0.0,0.0,0.0,0.0,0.0,0.0,0.0,0.0,0.0,0.0,0.0,0.0,0.0,0.0,0.0,0.0,0.0,0.0,0.0,0.0,0.0,0.0,0.0,0.0,0.0,0.0,0.0,0.0,0.0,0.0,0.0,0.0,0.0,0.0,0.0,0.0,0.0,0.0,0.0,0.0,0.0,0.0,0.0,0.0,0.0,0.0,0.0,0.0,0.0,0.0,0.0,0.0,0.0,0.0,0.0,0.0,0.0,0.0,0.0,0.0,0.0,0.0,0.0,0.0,0.0,0.0,0.0,0.0,0.0,0.0,0.0,0.0,0.0,0.0,0.0,0.0,0.0,0.0,0.0,0.0,0.0,0.0,0.0,0.0,0.0,0.0,0.0,0.0,0.0,0.0,0.0,0.0,0.0,0.0,0.0,0.0,0.0,0.0,0.0,0.0,0.0,0.0,0.0,0.0,5.2401,5.2435,5.3145,5.3501,5.3501,5.3501,5.3568,0.0,0.0,0.0,0.0,0.0,0.0,0.0,0.0,0.0,0.0,0.0,0.0,0.0,0.0,0.0,0.0,0.0,0.0,0.0,0.0,0.0,0.0,0.0,0.0,0.0,0.0,0.0,0.0,0.0,0.0,0.0,0.0,0.0,0.0,0.0,0.0,0.0,0.0,0.0,0.0,0.0,0.0,0.0,0.0,0.0,0.0,0.0,0.0,0.0,0.0,0.0,0.0,0.0,0.0,0.0,0.0,0.0,0.0,0.0,0.0,0.0,0.0,0.0,0.0,0.0,0.0,0.0,0.0,0.0,0.0,0.0,0.0,0.0,0.0,0.0,0.0,0.0,0.0,0.0,0.0,0.0,0.0,0.0,0.0,0.0,0.0,0.0,0.0,0.0,0.0,0.0,0.0,0.0,0.0,0.0,0.0,0.0,0.0,0.0,0.0,0.0,0.0,0.0,0.0,0.0,0.0,0.0,0.0,5.3247,5.3247,5.3416,5.3501,5.3501,5.3501,5.3568,0.0,0.0,0.0,0.0,0.0,0.0,0.0,0.0,0.0,0.0,0.0,0.0,0.0,0.0,0.0,0.0,0.0,0.0,0.0,0.0,0.0,0.0,0.0,0.0,0.0,0.0,0.0,0.0,0.0,0.0,0.0,0.0,0.0,0.0,0.0,0.0,0.0,0.0,0.0,0.0,0.0,0.0,0.0,0.0,0.0,0.0,0.0,0.0,5.9641,0.0,0.0,0.0,0.0,0.0,0.0,0.0,0.0,0.0,0.0,0.0,0.0,0.0,0.0,0.0,0.0,0.0,0.0,0.0,0.0,0.0,0.0,0.0,0.0,0.0,0.0,0.0,0.0,0.0,0.0,0.0,0.0,0.0,0.0,0.0,0.0,0.0,0.0,0.0,0.0,0.0,0.0,0.0,0.0,0.0,0.0,0.0,0.0,0.0,0.0,0.0,0.0,0.0,0.0,0.0,0.0,0.0,0.0,0.0,5.3501,5.3501,5.3501,5.3501,5.3501,5.3501,5.3601,0.0,0.0,0.0,0.0,0.0,0.0,0.0,0.0,0.0,0.0,0.0,0.0,0.0,0.0,0.0,0.0,0.0,0.0,0.0,0.0,0.0,0.0,0.0,0.0,0.0,0.0,0.0,0.0,0.0,0.0,0.0,0.0,0.0,0.0,0.0,0.0,0.0,0.0,0.0,0.0,0.0,0.0,0.0,0.0,0.0,0.0,0.0,0.0,0.0,0.0,0.0,0.0,0.0,0.0,0.0,0.0,0.0,0.0,0.0,0.0,0.0,0.0,0.0,0.0,0.0,0.0,0.0,0.0,0.0,0.0,0.0,0.0,0.0,0.0,0.0,0.0,0.0,0.0,0.0,0.0,0.0,0.0,0.0,0.0,0.0,0.0,0.0,0.0,0.0,0.0,0.0,0.0,0.0,0.0,0.0,0.0,0.0,0.0,0.0,0.0,0.0,0.0,0.0,0.0,0.0,0.0,0.0,5.3501,5.3501,5.3501,5.3501,5.3501,5.3518,5.3501,5.3685,5.398,0.0,0.0,0.0,0.0,0.0,0.0,0.0,0.0,0.0,0.0,0.0,0.0,0.0,0.0,0.0,0.0,0.0,0.0,0.0,0.0,0.0,0.0,0.0,0.0,0.0,0.0,0.0,0.0,0.0,0.0,0.0,0.0,0.0,0.0,0.0,0.0,0.0,0.0,5.8069,5.8693,0.0,0.0,0.0,0.0,0.0,0.0,0.0,0.0,6.1028,0.0,0.0,0.0,0.0,0.0,0.0,0.0,0.0,0.0,0.0,0.0,0.0,0.0,0.0,0.0,0.0,0.0,0.0,0.0,0.0,0.0,0.0,0.0,0.0,0.0,0.0,0.0,0.0,0.0,0.0,0.0,0.0,0.0,0.0,0.0,0.0,0.0,0.0,0.0,0.0,0.0,0.0,0.0,0.0,0.0,0.0,0.0,0.0,0.0,0.0,0.0,0.0,0.0,0.0,0.0,0.0,5.3501,5.3501,5.3501,5.3501,5.3501,5.3501,5.3518,5.3584,5.3767,5.398,0.0,0.0,0.0,0.0,0.0,0.0,0.0,0.0,0.0,0.0,0.0,0.0,0.0,0.0,0.0,0.0,0.0,0.0,0.0,0.0,0.0,0.0,0.0,0.0,0.0,0.0,0.0,0.0,0.0,0.0,0.0,0.0,0.0,0.0,0.0,0.0,0.0,0.0,0.0,5.9471,5.9911,0.0,0.0,0.0,0.0,0.0,0.0,0.0,0.0,6.2178,0.0,0.0,0.0,0.0,0.0,0.0,0.0,0.0,0.0,0.0,0.0,0.0,0.0,0.0,0.0,0.0,0.0,0.0,0.0,0.0,0.0,0.0,0.0,0.0,0.0,0.0,0.0,0.0,0.0,0.0,0.0,0.0,0.0,0.0,0.0,0.0,0.0,0.0,0.0,0.0,0.0,0.0,0.0,0.0,0.0,0.0,0.0,0.0,0.0,0.0,0.0,0.0,0.0,0.0,0.0,5.3501,5.3501,5.3501,5.3501,5.3856,5.4059,5.4059,5.4585,5.4958,0.0,0.0,0.0,0.0,0.0,0.0,0.0,0.0,0.0,0.0,0.0,0.0,0.0,0.0,0.0,0.0,0.0,0.0,0.0,0.0,0.0,0.0,0.0,0.0,0.0,0.0,0.0,0.0,0.0,0.0,0.0,0.0,0.0,0.0,0.0,0.0,0.0,0.0,0.0,0.0,6.025,6.0723,6.0723,0.0,0.0,0.0,0.0,0.0,0.0,6.2415,6.2415,0.0,0.0,0.0,0.0,0.0,0.0,0.0,0.0,0.0,0.0,0.0,0.0,0.0,0.0,0.0,0.0,0.0,0.0,0.0,0.0,0.0,0.0,0.0,0.0,0.0,0.0,0.0,0.0,0.0,0.0,0.0,0.0,0.0,0.0,0.0,0.0,0.0,0.0,0.0,0.0,0.0,0.0,0.0,0.0,0.0,0.0,0.0,0.0,0.0,0.0,0.0,0.0,0.0,0.0,0.0,5.3721,5.3704,5.3788,5.3957,5.4499,5.482,5.4906,5.5638,5.6116,0.0,0.0,0.0,0.0,0.0,0.0,0.0,0.0,0.0,0.0,0.0,0.0,0.0,0.0,0.0,0.0,0.0,0.0,0.0,0.0,0.0,0.0,0.0,0.0,0.0,0.0,0.0,0.0,0.0,0.0,0.0,0.0,0.0,0.0,0.0,0.0,0.0,0.0,0.0,0.0,0.0,6.1535,6.1535,6.2009,0.0,0.0,0.0,0.0,6.2821,6.2821,0.0,0.0,0.0,0.0,0.0,0.0,0.0,0.0,0.0,0.0,0.0,0.0,0.0,0.0,0.0,0.0,0.0,0.0,0.0,0.0,0.0,0.0,0.0,0.0,0.0,0.0,0.0,0.0,0.0,0.0,0.0,0.0,0.0,0.0,0.0,0.0,0.0,0.0,0.0,0.0,0.0,0.0,0.0,0.0,0.0,0.0,0.0,0.0,0.0,0.0,0.0,0.0,0.0,0.0,0.0,0.0,5.4431,5.4482,5.4769,5.5395,5.553,5.5651,5.5825,5.6082,5.6269,0.0,0.0,0.0,0.0,0.0,0.0,0.0,0.0,0.0,0.0,0.0,0.0,0.0,0.0,0.0,0.0,0.0,0.0,0.0,0.0,0.0,0.0,0.0,0.0,0.0,0.0,0.0,0.0,0.0,0.0,0.0,0.0,0.0,0.0,0.0,0.0,0.0,0.0,0.0,0.0,0.0,6.2279,6.2279,6.2313,6.2618,0.0,0.0,0.0,6.4241,6.4343,0.0,0.0,0.0,0.0,0.0,0.0,0.0,0.0,0.0,0.0,0.0,0.0,0.0,0.0,0.0,0.0,0.0,0.0,0.0,0.0,0.0,0.0,0.0,0.0,0.0,0.0,0.0,0.0,0.0,0.0,0.0,0.0,0.0,0.0,0.0,0.0,0.0,0.0,0.0,0.0,0.0,0.0,0.0,0.0,0.0,0.0,0.0,0.0,0.0,0.0,0.0,0.0,0.0,0.0,0.0,5.4788,5.5519,5.5587,5.5724,5.6047,5.6438,5.6694,5.6798,5.7363,5.7724,0.0,0.0,0.0,0.0,0.0,0.0,0.0,0.0,0.0,0.0,0.0,0.0,0.0,0.0,0.0,0.0,0.0,0.0,0.0,0.0,0.0,0.0,0.0,0.0,0.0,0.0,0.0,0.0,0.0,0.0,0.0,0.0,0.0,0.0,0.0,0.0,0.0,0.0,0.0,0.0,0.0,0.0,6.3363,6.3757,0.0,0.0,0.0,6.4622,6.4963,0.0,0.0,0.0,0.0,0.0,0.0,0.0,0.0,0.0,0.0,0.0,0.0,0.0,0.0,0.0,0.0,0.0,0.0,0.0,0.0,0.0,0.0,0.0,0.0,0.0,0.0,0.0,0.0,0.0,0.0,0.0,0.0,0.0,0.0,0.0,0.0,0.0,0.0,0.0,0.0,0.0,0.0,0.0,0.0,0.0,0.0,0.0,0.0,0.0,0.0,0.0,0.0,0.0,0.0,0.0,0.0,0.0,5.6543,5.6577,5.6679,5.685,5.738,5.7688,5.7757,5.8444,0.0,0.0,0.0,0.0,0.0,0.0,0.0,0.0,0.0,0.0,0.0,0.0,0.0,0.0,0.0,0.0,0.0,0.0,0.0,0.0,0.0,0.0,0.0,0.0,0.0,0.0,0.0,5.9284,0.0,0.0,0.0,0.0,0.0,0.0,0.0,0.0,0.0,0.0,0.0,0.0,0.0,0.0,6.4386,6.4386,6.4918,6.5362,0.0,0.0,6.5636,6.5841,6.5875,6.5841,0.0,0.0,0.0,0.0,0.0,0.0,0.0,0.0,0.0,0.0,0.0,0.0,0.0,0.0,0.0,0.0,0.0,0.0,0.0,0.0,0.0,0.0,0.0,0.0,0.0,0.0,0.0,0.0,0.0,0.0,0.0,0.0,0.0,0.0,0.0,0.0,0.0,0.0,0.0,0.0,0.0,0.0,0.0,0.0,0.0,0.0,0.0,0.0,0.0,0.0,0.0,0.0,0.0,0.0,0.0,5.7312,5.7328,5.7653,5.8337,5.8405,5.8527,5.8685,5.8788,5.8858,0.0,0.0,0.0,0.0,0.0,0.0,0.0,0.0,0.0,0.0,0.0,0.0,0.0,0.0,0.0,0.0,0.0,0.0,0.0,0.0,0.0,0.0,0.0,0.0,0.0,0.0,0.0,0.0,0.0,0.0,0.0,0.0,0.0,0.0,0.0,0.0,0.0,0.0,0.0,0.0,0.0,6.5226,6.5226,6.526,6.5568,0.0,0.0,6.6553,6.7257,6.7359,6.7339,6.7359,0.0,0.0,0.0,0.0,0.0,0.0,0.0,0.0,0.0,0.0,0.0,0.0,0.0,0.0,0.0,0.0,0.0,0.0,0.0,0.0,0.0,0.0,0.0,0.0,0.0,0.0,0.0,0.0,0.0,0.0,0.0,0.0,0.0,0.0,0.0,0.0,0.0,0.0,0.0,0.0,0.0,0.0,0.0,0.0,0.0,0.0,0.0,0.0,0.0,0.0,0.0,0.0,0.0,5.7637,5.8393,5.8376,5.8771,5.9493,5.9528,5.9803,6.0321,6.0356,6.0356,0.0,0.0,0.0,0.0,0.0,0.0,0.0,0.0,0.0,0.0,0.0,0.0,0.0,0.0,0.0,0.0,0.0,0.0,0.0,0.0,0.0,0.0,0.0,0.0,0.0,0.0,0.0,0.0,6.1722,6.2359,6.3075,0.0,0.0,0.0,0.0,0.0,0.0,0.0,0.0,0.0,0.0,6.6585,6.672,6.7119,0.0,0.0,6.7826,6.793,6.8206,6.8241,6.8221,6.8241,6.8299,0.0,0.0,0.0,0.0,0.0,0.0,0.0,0.0,0.0,0.0,0.0,0.0,0.0,0.0,0.0,0.0,0.0,0.0,0.0,0.0,0.0,0.0,0.0,0.0,0.0,0.0,0.0,0.0,0.0,0.0,0.0,0.0,0.0,0.0,0.0,0.0,0.0,0.0,0.0,0.0,0.0,0.0,0.0,0.0,0.0,0.0,0.0,0.0,0.0,0.0,0.0,0.0,5.8993,5.9529,5.9719,6.0151,6.0705,6.0705,6.0947,6.1466,6.15,6.143,0.0,0.0,0.0,0.0,0.0,0.0,0.0,0.0,0.0,0.0,0.0,0.0,0.0,0.0,0.0,0.0,0.0,0.0,0.0,0.0,0.0,0.0,0.0,0.0,0.0,0.0,0.0,0.0,6.3315,6.4042,6.4656,0.0,0.0,0.0,0.0,0.0,0.0,0.0,0.0,0.0,0.0,6.7753,6.7904,6.8357,6.8705,6.8705,6.8914,6.9053,6.9053,6.9262,6.9401,6.9401,0.0,0.0,0.0,0.0,0.0,0.0,0.0,0.0,0.0,0.0,0.0,0.0,0.0,0.0,0.0,0.0,0.0,0.0,0.0,0.0,0.0,0.0,0.0,0.0,0.0,0.0,0.0,0.0,0.0,0.0,5.3909,0.0,0.0,0.0,0.0,0.0,0.0,0.0,0.0,0.0,0.0,0.0,0.0,0.0,0.0,0.0,0.0,0.0,0.0,0.0,0.0,0.0,0.0,6.063,6.07,6.1379,6.1813,6.1848,6.1848,6.1883,6.1935,6.1883,6.1797,6.1623,0.0,0.0,0.0,0.0,0.0,0.0,0.0,0.0,0.0,0.0,0.0,0.0,0.0,0.0,0.0,0.0,0.0,0.0,0.0,0.0,0.0,0.0,0.0,0.0,0.0,0.0,6.4014,6.4937,6.5673,0.0,0.0,0.0,0.0,0.0,0.0,0.0,0.0,0.0,0.0,6.8218,6.867,6.8689,6.8724,6.8813,6.8759,6.9385,6.9873,6.9892,7.0554,7.1056,0.0,0.0,0.0,0.0,0.0,0.0,0.0,0.0,0.0,0.0,0.0,0.0,0.0,0.0,0.0,0.0,0.0,0.0,0.0,0.0,0.0,0.0,0.0,0.0,0.0,0.0,0.0,5.4269,5.4254,0.0,0.0,0.0,0.0,0.0,0.0,0.0,0.0,0.0,0.0,0.0,5.7038,5.7689,0.0,0.0,0.0,0.0,0.0,0.0,0.0,0.0,0.0,0.0,0.0,0.0,6.1517,6.1517,6.1761,6.2144,6.2631,6.2614,6.2892,6.338,6.3432,6.3326,6.3148,0.0,0.0,0.0,0.0,0.0,0.0,0.0,0.0,0.0,0.0,0.0,0.0,0.0,0.0,0.0,0.0,0.0,0.0,0.0,0.0,0.0,0.0,0.0,0.0,0.0,6.5262,0.0,0.0,0.0,0.0,0.0,0.0,0.0,0.0,0.0,0.0,0.0,6.8586,6.8716,6.9512,7.0152,7.0281,7.0758,7.1091,0.0,0.0,0.0,0.0,0.0,0.0,0.0,0.0,0.0,0.0,0.0,0.0,0.0,0.0,7.4082,7.2561,7.242,7.2635,7.3132,0.0,0.0,0.0,0.0,0.0,0.0,0.0,0.0,0.0,0.0,0.0,0.0,0.0,0.0,0.0,0.0,5.5473,0.0,0.0,0.0,0.0,0.0,0.0,0.0,0.0,5.8616,5.8909,5.8978,5.9564,6.0203,0.0,6.0912,6.0426,0.0,0.0,0.0,0.0,0.0,0.0,0.0,0.0,6.2659,6.2659,6.2939,6.3324,6.378,6.406,6.4445,6.4953,6.5092,6.5107,6.4925,6.4797,6.4634,0.0,0.0,0.0,0.0,0.0,0.0,0.0,0.0,0.0,0.0,0.0,0.0,0.0,0.0,0.0,0.0,0.0,0.0,0.0,0.0,0.0,0.0,0.0,6.6748,0.0,0.0,0.0,0.0,0.0,0.0,0.0,0.0,0.0,6.8803,6.9283,6.9871,7.0281,7.0904,7.135,7.1513,0.0,0.0,0.0,0.0,0.0,0.0,0.0,7.3182,7.3182,7.3346,7.3598,7.4151,7.4868,7.5424,7.5424,0.0,0.0,7.3797,7.3636,7.3869,7.435,7.453,7.478,7.5245,7.5335,7.5335,0.0,0.0,0.0,0.0,0.0,0.0,0.0,0.0,5.5515,5.5655,0.0,5.6077,0.0,0.0,0.0,0.0,0.0,0.0,0.0,0.0,6.1432,6.1693,6.1848,6.1848,6.19,6.1952,6.1987,6.2125,6.2313,6.216,0.0,0.0,0.0,0.0,0.0,0.0,6.4185,6.4204,6.4947,6.537,6.5389,6.6044,6.6398,6.6417,6.6778,6.6882,6.6788,6.6387,6.6182,6.6217,6.5803,0.0,0.0,0.0,0.0,0.0,0.0,0.0,0.0,0.0,0.0,0.0,0.0,0.0,0.0,0.0,0.0,0.0,0.0,0.0,0.0,6.7229,0.0,0.0,0.0,0.0,0.0,0.0,0.0,0.0,0.0,0.0,7.0923,7.1033,7.1425,7.2169,0.0,0.0,0.0,0.0,7.2453,7.2453,7.302,7.3481,7.3481,7.4287,7.4896,7.4896,0.0,0.0,7.5781,7.5852,7.5941,7.5906,7.5959,7.5887,7.5923,7.5816,7.578,7.5816,7.587,7.5906,7.5906,7.6031,7.5995,5.8017,0.0,0.0,0.0,0.0,5.8253,5.8624,5.8884,5.8973,5.9102,5.9248,5.9357,0.0,0.0,0.0,0.0,0.0,0.0,6.1467,6.1745,6.1797,6.1849,6.19,6.19,6.2316,6.3114,6.3692,6.4389,6.5224,6.5719,6.5086,6.3432,0.0,0.0,0.0,0.0,6.5726,6.5761,6.6521,6.6928,6.6911,6.7123,6.7265,6.7265,6.7217,6.7148,6.6934,6.6752,6.6551,6.6422,6.631,0.0,0.0,0.0,0.0,0.0,0.0,0.0,0.0,0.0,0.0,0.0,0.0,0.0,0.0,0.0,0.0,0.0,0.0,0.0,6.864,6.9013,6.9456,0.0,0.0,0.0,0.0,0.0,0.0,0.0,0.0,0.0,7.3191,7.262,7.2281,0.0,0.0,7.3779,7.3903,7.444,7.4798,7.4798,0.0,0.0,0.0,7.5335,7.555,7.555,7.6087,7.6499,7.6589,7.7163,7.7648,7.7648,7.7875,7.8101,7.8048,7.7353,7.6836,7.6818,7.7356,7.7858,7.7894,7.7894,7.7858,5.9831,5.8702,5.9175,5.94,5.958,5.9987,6.0321,6.0579,6.0613,6.0653,6.08,6.0946,6.1,6.1018,6.136,0.0,0.0,0.0,6.3101,6.3485,6.3851,6.406,6.4164,6.4164,6.4512,6.5175,6.565,6.6264,6.6875,6.7457,6.6943,6.5461,0.0,0.0,6.6401,6.6846,6.7128,6.7195,6.7674,6.7923,6.7923,6.8159,6.841,6.8625,6.8504,6.8364,6.8169,6.7918,6.7718,6.7607,6.7459,6.731,0.0,0.0,0.0,0.0,0.0,0.0,0.0,0.0,0.0,0.0,0.0,6.6855,6.7025,0.0,0.0,0.0,6.8602,6.9576,7.057,7.0786,0.0,0.0,0.0,0.0,0.0,0.0,0.0,7.3333,7.3474,7.3866,7.4742,7.4297,7.3904,7.3975,7.451,7.4956,7.5079,0.0,7.5798,7.5798,7.6049,7.6229,7.6265,7.6587,7.6856,7.6944,7.7392,7.7697,7.7733,7.8307,7.87,7.8735,7.8889,7.9078,7.9094,7.8727,7.8355,7.8065,7.8477,7.8872,7.8889,7.8925,7.8889,6.1231,6.1197,6.125,6.1129,6.0884,6.0971,6.1023,6.111,6.1129,6.1181,6.1252,6.1579,6.174,6.1793,6.2127,0.0,6.3415,6.4323,6.5198,6.6075,6.6918,6.741,6.7601,6.7583,6.7601,6.7618,6.7689,6.7741,6.7776,6.8017,6.8172,6.8225,6.8225,6.8185,6.814,6.8192,6.8326,6.8489,6.8561,6.8633,6.8704,6.9311,6.9892,7.0396,7.0397,7.031,7.0115,6.9719,6.9536,6.9518,6.9182,6.8974,6.8955,0.0,0.0,0.0,0.0,0.0,0.0,0.0,0.0,0.0,0.0,0.0,0.0,0.0,0.0,0.0,7.068,0.0,7.2313,7.2384,0.0,0.0,0.0,7.2958,7.3029,7.3344,7.3873,7.4628,0.0,0.0,0.0,0.0,7.5977,7.6013,7.5887,7.5851,7.5941,7.5958,7.5941,7.6138,7.6642,7.7055,7.7162,7.7826,7.8382,7.8574,7.8927,7.9085,7.9102,7.9293,7.9374,7.9467,7.9444,7.9444,7.9444,8.0064,8.0336,7.9606,7.9427,7.941,7.9483,7.9503,7.9503,6.4788,6.4903,6.507,6.3772,6.1705,6.2417,6.3115,6.3764,6.3931,6.4424,6.5144,6.5218,6.5383,6.5635,6.5724,6.6058,6.653,6.6758,6.6969,6.7215,6.7408,6.7566,6.7601,6.7601,6.7669,6.7876,6.8462,6.8882,6.9135,6.9792,7.0484,7.1137,7.1173,7.0226,6.8408,6.904,6.9408,6.9457,7.0068,7.0678,7.1289,7.2029,7.243,7.242,7.2227,7.2122,7.1943,7.1726,7.1597,7.1597,7.1505,7.1359,7.1209,7.119,0.0,0.0,0.0,0.0,0.0,0.0,0.0,0.0,0.0,7.0141,7.0323,0.0,7.1616,0.0,7.2121,7.2584,7.3078,7.3149,0.0,0.0,7.4114,7.4418,7.5028,7.517,7.533,7.551,7.5596,7.5971,7.68,7.6994,7.735,7.7875,7.6815,7.6239,7.6954,7.708,7.7314,7.7839,7.8128,7.8343,7.85,7.8761,7.9044,7.9075,7.9618,8.0089,8.0089,8.0597,8.1032,8.1049,8.115,8.1234,8.1234,8.1569,8.1688,8.1505,8.1234,8.1032,8.1032,8.1032,8.1049,6.6235,6.6347,6.6459,6.5546,6.4125,6.4558,6.5028,6.5521,6.5632,6.6041,6.6608,6.679,6.6988,6.7253,6.7253,6.7393,6.7636,6.8041,6.8252,6.8288,6.9048,6.9454,6.9576,6.9879,7.016,7.0348,7.0812,7.111,7.1314,7.1745,7.2226,7.2722,7.2842,7.2177,7.0836,7.1176,7.146,7.1542,7.1975,7.2443,7.2875,7.3204,7.3354,7.3252,7.3113,7.3044,7.2957,7.2674,7.253,7.2512,7.2384,7.2237,7.2144,7.2144,7.2144,0.0,0.0,0.0,0.0,0.0,0.0,0.0,0.0,0.0,0.0,0.0,7.2834,0.0,7.3475,0.0,7.4414,7.4467,7.4647,7.5096,7.5201,7.5524,7.6352,7.6494,7.669,7.7051,7.7156,7.7423,7.7943,7.8101,7.8349,7.887,7.8059,7.7609,7.8025,7.8187,7.8349,7.887,7.9233,7.963,8.0077,8.0198,8.0266,8.0319,8.0698,8.1186,8.1552,8.2021,8.251,8.2856,8.3034,8.3101,8.3118,8.3184,8.3287,8.3271,8.3101,8.282,8.2474,8.2693,8.293,6.7236,6.7254,6.7219,6.7311,6.7511,6.7293,6.7027,6.6764,6.6801,6.6945,6.7213,6.7517,6.7781,6.8078,6.8096,6.8148,6.8342,6.9188,6.9611,6.9753,7.1209,7.2008,7.2215,7.2843,7.3235,7.3405,7.3405,7.3422,7.3439,7.3439,7.3528,7.3617,7.3769,7.3924,7.4016,7.3846,7.3774,7.3727,7.3799,7.3871,7.3871,7.381,7.3761,7.3727,7.3727,7.371,7.3693,7.3383,7.3208,7.319,7.2922,7.2741,7.2758,7.2741,7.2722,0.0,7.2741,0.0,0.0,0.0,0.0,0.0,0.0,0.0,0.0,7.3294,7.3826,7.4699,7.4771,7.5131,7.594,7.6012,7.6048,7.6156,7.6276,7.665,7.7336,7.7617,7.7973,7.8698,7.8771,7.8876,7.9139,7.9192,7.9223,7.9523,7.954,7.9526,7.9551,7.9354,7.9243,7.9447,8.021,8.1049,8.163,8.1866,8.2009,8.2009,8.2164,8.2504,8.3127,8.3428,8.3785,8.4372,8.4482,8.4535,8.4609,8.4535,8.4572,8.4499,8.4555,8.4392,8.3768,8.3988,8.4572,7.1058,7.1206,7.1206,7.1224,7.1261,7.1224,7.0039,6.8133,6.8293,6.8735,6.9318,6.9389,6.9885,7.0664,7.07,7.1178,7.2063,7.2241,7.2416,7.2623,7.2927,7.3105,7.3139,7.3283,7.3372,7.3405,7.3405,7.349,7.366,7.366,7.4052,7.4747,7.4816,7.5175,7.5754,0.0,0.0,0.0,7.4507,7.4833,7.4869,7.5448,7.5672,7.5519,7.5519,0.0,7.5366,7.526,7.5261,7.5261,7.5155,0.0,0.0,0.0,0.0,0.0,0.0,0.0,0.0,0.0,0.0,0.0,7.5312,7.5041,7.4362,7.4865,7.5384,7.5718,7.5735,7.6112,7.7061,7.7187,7.744,7.8055,7.8336,7.8511,7.8637,7.8789,7.8926,7.9072,7.9108,7.9363,8.0053,8.0126,8.0414,8.1049,8.1141,8.1484,8.217,8.1066,8.0434,8.1068,8.1934,8.2586,8.2786,8.3453,8.3851,8.4048,8.4048,8.4118,8.4265,8.4338,8.4389,8.4646,8.4609,8.4646,8.4646,8.4609,8.4719,8.4609,8.5123,8.5343,8.4535,8.4499,8.4609,7.2218,0.0,7.2292,7.2365,0.0,7.2457,7.1747,7.0612,7.0558,7.0806,7.1215,7.1392,7.1747,7.2227,7.2332,7.2685,7.3269,7.3216,7.332,7.3405,7.3801,7.4032,7.4153,7.4496,7.4745,7.4829,7.4829,7.508,7.5562,7.5578,7.601,7.6874,7.6891,7.7072,7.747,7.7487,7.6891,7.5696,7.6094,7.6492,7.6874,7.7289,7.7436,7.7333,0.0,0.0,0.0,0.0,0.0,0.0,0.0,0.0,0.0,0.0,0.0,7.6912,7.6912,7.6984,7.7072,7.709,7.7125,7.7213,7.7404,7.7076,7.611,7.6761,7.73,7.7453,7.747,7.7683,7.8269,7.8358,7.8504,7.8904,7.9024,7.922,7.9621,7.9725,7.9974,8.0302,8.0375,8.0737,8.1625,8.1734,8.2114,8.293,8.3093,8.3237,8.358,8.2657,8.206,8.293,8.3453,8.3851,8.3887,8.4211,8.4609,8.4609,8.4609,8.4756,8.5123,8.5196,8.5306,8.5673,8.5783,8.5783,8.5783,8.5783,8.5783,8.5803,8.6114,8.6297,8.584,8.5783,8.5783,7.281,7.2882,7.2847,7.2974,7.3155,7.3155,7.3244,7.3279,0.0,0.0,0.0,7.3044,7.3237,7.3398,7.3553,7.371,7.3852,7.3852,7.3941,7.4155,7.4803,7.5268,7.5585,7.6182,7.6574,7.671,7.671,7.7036,7.7688,7.7724,7.805,7.8629,7.8702,7.8719,7.8754,7.8788,7.8552,7.8044,7.7831,7.8014,7.8666,7.8702,7.8719,7.8754,7.8754,7.8771,7.8805,7.865,7.8526,7.8526,7.8403,7.8278,7.8278,7.8278,7.8278,7.8278,7.8278,7.8385,7.8526,7.8526,7.8596,7.8788,7.9088,7.8814,7.7863,7.8407,7.8874,7.901,7.9027,7.9114,7.9374,7.9391,7.95,7.9609,7.9643,8.0024,8.0737,8.0917,8.1296,8.1936,8.2136,8.2426,8.322,8.3327,8.3634,8.4338,8.4428,8.4682,8.4665,8.3961,8.3544,8.4248,8.4575,8.4812,8.4829,8.4996,8.5013,8.5159,8.5123,8.527,8.5783,8.6021,8.6334,8.7014,8.7215,8.7252,8.7381,8.7418,8.7418,8.7418,8.7418,8.7418,8.7418,8.7418,8.7271,7.4886,7.5048,7.5048,7.5156,7.5351,7.5351,7.5369,7.5261,7.3688,7.3097,7.3303,7.3337,7.3731,7.4378,7.4448,7.4894,7.5627,7.5627,7.6091,0.0,7.704,7.7491,7.816,7.8269,7.8322,7.834,7.8376,7.8412,7.8521,7.8521,7.8593,7.8702,7.8702,7.8824,7.8942,7.9058,7.9417,7.9963,7.9038,7.8593,7.8702,7.8702,7.8788,7.8925,7.8979,7.9027,7.9125,7.9108,7.9092,7.9092,7.9038,7.9022,7.9022,7.9078,7.9022,7.9022,7.9022,7.9075,7.9092,7.9092,7.9108,7.9162,7.9778,7.9834,7.9032,7.9069,7.9142,7.9175,7.9248,7.9467,8.0103,8.0302,8.0611,8.1175,8.1439,8.1852,8.2567,8.2831,8.3188,8.3921,8.4175,8.4121,8.4285,8.4375,8.4448,8.4592,8.4866,8.4903,8.5343,8.4922,8.4465,8.4646,8.5196,8.558,8.5673,8.6224,8.6518,8.6647,8.6664,8.6684,8.6885,8.6921,8.7215,8.7912,8.8023,8.828,8.8776,8.9069,8.8923,8.8886,8.8849,8.8886,8.8886,8.8886,8.8556,7.6823,7.6895,7.6895,7.6949,7.7056,7.7056,7.7127,7.7126,7.6336,7.5707,7.5329,7.5416,7.5919,7.6657,7.6797,7.7064,7.7459,7.7459,7.771,7.8122,7.8159,7.834,7.8666,7.8702,7.8702,7.8702,7.8805,7.9075,7.9474,7.956,7.9829,8.0246,8.0283,8.0535,8.1022,8.1144,8.1542,8.2345,8.057,7.9829,8.0246,8.0283,8.0317,8.0403,8.0403,8.0437,8.0485,8.0485,8.0485,8.0521,8.0521,8.0485,8.0485,8.0485,8.0485,8.0521,8.0485,8.0485,8.0485,8.0886,8.1228,8.1313,8.2043,8.2423,8.2158,8.1113,8.0535,8.0655,8.1037,8.1509,8.1995,8.2414,8.2817,8.32,8.3304,8.3538,8.3831,8.3991,8.4188,8.4535,8.4609,8.4756,8.5196,8.5233,8.5453,8.5783,8.5877,8.6077,8.6444,8.6518,8.6371,8.604,8.6224,8.6407,8.6518,8.7142,8.7582,8.7655,8.8042,8.8262,8.8299,8.8299,8.8445,8.8739,8.8867,8.8959,8.94,8.94,8.94,8.94,8.94,8.94,8.94,8.94,8.9106,7.8153,7.8171,7.8171,7.8207,7.8243,7.8243,7.8314,7.8474,7.8438,7.8151,7.763,7.7555,7.786,7.8456,7.8632,7.8702,7.8702,7.8702,7.8774,7.8955,7.8992,7.9064,7.9245,7.928,7.9315,7.9368,7.9686,8.0208,8.0754,8.1073,8.1542,8.2106,8.2177,8.2523,8.3126,8.3178,8.3541,8.4052,8.2319,8.1627,8.2143,8.2179,8.2197,8.2194,8.2194,8.2248,8.2262,8.2245,8.2299,8.2262,8.2299,8.2282,8.2262,8.2262,8.2262,8.2262,8.2299,8.2262,8.2336,8.283,8.3247,8.342,8.4039,8.442,8.4448,8.322,8.235,8.2541,8.3034,8.3451,8.3641,8.4152,8.4609,8.4609,8.4609,8.4592,8.4829,8.4866,8.4976,8.5086,8.5159,8.5416,8.5894,8.6224,8.6664,8.7344,8.7528,8.7528,8.7601,8.8078,8.8115,8.7748,8.7528,8.7565,8.7565,8.8059,8.8426,8.8463,8.8923,8.9179,8.9253,8.9326,8.951,8.9583,8.9657,8.9803,8.9877,8.9987,9.0024,9.0097,9.0134,9.006,9.0097,9.006,8.9767,7.8207,7.8368,7.8422,7.8492,7.8705,7.8686,7.8722,7.8703,7.8667,7.9065,7.9501,7.8884,7.8631,7.8684,7.8721,7.8774,7.8774,7.8702,7.9136,7.9788,7.9788,8.0169,8.0856,8.1069,8.1157,8.1247,8.1986,8.2346,8.2529,8.331,8.3765,8.3892,8.3977,8.4064,8.4191,8.4364,8.4485,8.4558,8.4338,8.4113,8.3892,8.3857,8.3908,8.4064,8.4027,8.4149,8.4195,8.4302,8.4302,8.4338,8.4248,8.4302,8.4302,8.4302,8.4302,8.4265,8.4302,8.4338,8.4302,8.4412,8.4412,8.4465,8.4575,8.4649,8.4682,8.4465,8.4302,8.4392,8.4428,8.4482,8.4499,8.4646,8.4756,8.4829,8.4756,8.4866,8.56,8.569,8.5967,8.6721,8.6775,8.6794,8.7031,8.7509,8.8206,8.8812,8.8886,8.8886,8.8923,8.9106,8.929,8.9143,8.9179,8.9143,8.9106,8.9216,8.929,8.929,8.9363,8.9583,8.9657,8.9657,8.962,9.0391,9.0464,9.0702,9.1179,9.1583,9.1473,9.1216,9.1289,9.1473,9.1546,9.1436,9.0959,7.9919,7.999,7.999,8.0043,8.0133,8.0097,8.0151,8.0114,8.0114,8.0295,8.0621,8.0766,8.0549,8.0114,8.0114,8.0114,8.0114,8.0114,8.0549,8.1291,8.1434,8.1923,8.2667,8.2881,8.2987,8.3004,8.3489,8.3685,8.3775,8.4154,8.4388,8.4405,8.4474,8.4728,8.5131,8.5272,8.5527,8.6004,8.6023,8.5972,8.5741,8.4864,8.4423,8.4454,8.4508,8.4525,8.4592,8.4609,8.4609,8.4609,8.4609,8.4609,8.4609,8.4609,8.4609,8.4609,8.4609,8.4609,8.4609,8.5013,8.5306,8.5306,8.5783,8.604,8.6023,8.6023,8.6187,8.6554,8.5894,8.5306,8.538,8.5747,8.604,8.604,8.604,8.6334,8.7105,8.7215,8.7509,8.8262,8.8409,8.8409,8.8445,8.8702,8.9033,8.9363,8.94,8.9473,8.9436,8.9803,9.0097,9.017,9.0501,9.0335,8.9767,8.984,9.0024,9.017,9.0519,9.0794,9.0739,9.0812,9.0996,9.1253,9.1289,9.14,9.162,9.1767,9.1803,9.1877,9.1803,9.1803,9.1803,9.1803,9.14,8.1219,8.1454,8.1672,8.1744,8.1744,8.178,8.178,8.1744,8.1744,8.178,8.1817,8.2378,8.2324,8.1888,8.1762,8.1744,8.1744,8.1834,8.216,8.2704,8.2919,8.3318,8.3845,8.4059,8.4164,8.4218,8.452,8.4825,8.5009,8.5165,8.527,8.527,8.527,8.5563,8.604,8.6114,8.6518,8.7234,8.7325,8.7418,8.7455,8.6518,8.571,8.5306,8.5253,8.527,8.527,8.527,8.527,8.527,8.527,8.527,8.527,8.527,8.527,8.527,8.527,8.538,8.5563,8.6114,8.6554,8.6775,8.7362,8.7675,8.7638,8.7675,8.7895,8.8316,8.7472,8.6848,8.6848,8.7325,8.7638,8.7638,8.7638,8.7932,8.8426,8.8536,8.872,8.929,8.9253,8.951,8.9657,8.973,8.9803,9.0097,9.0097,9.006,9.0097,9.0574,9.0922,9.0922,9.1436,9.1289,9.0317,9.0501,9.0886,9.1033,9.14,9.162,9.1803,9.1767,9.1767,9.1583,9.1877,9.2207,9.2391,9.2317,9.2464,9.2464,9.2464,9.2464,9.2684,9.2537,9.2537,8.1527,8.2305,8.3066,8.332,8.3374,8.3356,8.3356,8.3211,8.332,8.3356,8.3284,8.3447,8.352,8.3647,8.3466,8.3392,8.3393,8.3484,8.3628,8.3755,8.3951,8.4076,8.4094,8.4214,8.4337,8.4556,8.5334,8.6043,8.6703,8.6831,8.6867,8.6885,8.6867,8.6904,8.7014,8.7014,8.7362,8.8059,8.8169,8.85,8.9106,8.9106,8.8262,8.7051,8.6867,8.6904,8.6867,8.6904,8.6867,8.6904,8.6904,8.6867,8.6867,8.6904,8.6921,8.6867,8.6904,8.7215,8.7839,8.7986,8.8316,8.8996,8.9033,8.9216,8.9033,8.9069,8.9143,8.9363,8.9179,8.9069,8.9143,8.8996,8.9069,8.9106,8.9179,8.9216,8.9326,8.9363,8.9326,8.951,8.962,8.9913,9.0482,9.0555,9.0886,9.1326,9.1583,9.1546,9.1436,9.162,9.1657,9.1657,9.173,9.173,9.1657,9.1473,9.1583,9.162,9.1583,9.1877,9.1803,9.1803,9.184,9.206,9.2648,9.3015,9.3161,9.3455,9.3786,9.3859,9.3786,9.3822,9.3565,9.4006,9.3932,8.2813,8.3066,8.3392,8.3501,8.3501,8.3501,8.3501,8.3501,8.3629,8.3683,8.381,8.4319,8.4627,8.4717,8.5155,8.4809,8.3954,8.3952,8.4225,8.468,8.4894,8.5237,8.5767,8.5924,8.6011,8.6101,8.641,8.6701,8.7014,8.7509,8.7766,8.7876,8.8299,8.8519,8.8519,8.8519,8.8702,8.8923,8.8959,8.9106,8.94,8.94,8.9106,8.8592,8.8519,8.8556,8.8519,8.8519,8.8519,8.8556,8.8519,8.8519,8.8519,8.8519,8.8519,8.8519,8.8556,8.8666,8.8923,8.8959,8.9069,8.9326,8.94,8.9436,8.94,8.94,8.9583,9.0024,9.017,9.0317,9.0611,9.0024,8.94,8.94,8.94,8.9657,9.0024,9.017,9.0354,9.0812,9.0922,9.1106,9.1179,9.1363,9.1473,9.173,9.1803,9.1803,9.1803,9.1803,9.1803,9.1803,9.1803,9.1803,9.1803,9.1767,9.1767,9.1767,9.184,9.2244,9.2354,9.2574,9.2684,9.3125,9.3639,9.3896,9.4079,9.4189,9.4593,9.4556,9.452,9.4666,9.4299,9.463,9.4556,8.3899,8.3917,8.4189,8.4298,8.4298,8.4317,8.4318,8.4372,8.4555,8.4627,8.4773,8.5318,8.5626,8.5752,8.6264,8.6007,8.5091,8.4966,8.5223,8.5661,8.5891,8.6271,8.6711,8.6925,8.7124,8.7381,8.7675,8.7785,8.7822,8.8299,8.8573,8.8629,8.9143,8.94,8.94,8.94,8.951,8.9693,8.9767,8.9877,9.0097,9.017,9.0188,9.017,9.017,8.9877,8.9436,8.94,8.94,8.94,8.94,8.94,8.94,8.94,8.94,8.94,8.9363,8.9546,8.973,8.9767,8.9913,9.0134,9.017,9.017,9.017,9.017,9.0464,9.0886,9.0996,9.1253,9.1436,9.0812,9.017,9.017,9.017,9.0372,9.0886,9.0996,9.1216,9.1583,9.1693,9.173,9.1803,9.1767,9.1767,9.1803,9.1803,9.1803,9.1803,9.1803,9.195,9.217,9.2281,9.2464,9.2721,9.2905,9.2611,9.2501,9.2684,9.2941,9.3161,9.3382,9.3675,9.4189,9.4556,9.4777,9.4923,9.4997,9.5034,9.4997,9.529,9.5547,9.5327,9.5217,9.5217,8.4733,8.4805,8.5547,8.5766,8.5731,8.5826,8.6027,8.5955,8.6156,8.6174,8.6137,8.6374,8.6427,8.6661,8.6752,8.6803,8.6817,8.6749,8.666,8.6623,8.6854,8.6997,8.707,8.7234,8.7619,8.8243,8.8959,8.929,8.9179,8.9326,8.94,8.9436,8.9546,8.973,8.9473,8.9657,8.9913,9.0427,9.0629,9.0959,9.1693,9.162,9.1546,9.162,9.162,9.0996,8.9583,8.9546,8.962,8.9583,8.9546,8.9436,8.962,8.962,8.951,8.962,8.951,8.9877,9.0464,9.0629,9.0922,9.1363,9.1657,9.1546,9.1473,9.1546,9.1583,9.162,9.1657,9.1767,9.1767,9.162,9.1546,9.1767,9.151,9.1546,9.1657,9.1767,9.1767,9.1803,9.1803,9.1803,9.1803,9.195,9.2024,9.2097,9.2134,9.2134,9.2207,9.2244,9.2317,9.2831,9.3088,9.3235,9.3749,9.4226,9.3786,9.3455,9.3749,9.3969,9.4116,9.4299,9.4483,9.4923,9.5327,9.5584,9.5878,9.5951,9.6098,9.6135,9.6355,9.6282,9.6135,9.6025,9.6208,8.555,8.568,8.5934,8.6136,8.6228,8.6302,8.6283,8.6356,8.6501,8.6626,8.6608,8.675,8.6856,8.7037,8.7458,8.775,8.7858,8.8283,8.7954,8.7201,8.7547,8.7839,8.7912,8.8372,8.8776,8.8996,8.9253,8.94,8.951,8.995,9.0207,9.0317,9.0776,9.1033,9.0959,9.1069,9.1216,9.14,9.1436,9.1583,9.1767,9.1803,9.1803,9.1803,9.1803,9.151,9.1106,9.1069,9.1033,9.1033,9.1069,9.1069,9.1033,9.1033,9.1033,9.1033,9.1069,9.1106,9.1326,9.1436,9.151,9.173,9.1803,9.1803,9.1803,9.1803,9.1803,9.1803,9.1803,9.1803,9.1803,9.1803,9.1877,9.1803,9.1803,9.184,9.195,9.1877,9.1803,9.1803,9.1803,9.2024,9.2537,9.2684,9.2868,9.3308,9.3418,9.3418,9.3455,9.3345,9.3529,9.3896,9.3969,9.4079,9.452,9.496,9.4887,9.4556,9.4666,9.4887,9.5034,9.5144,9.5364,9.5584,9.5988,9.6282,9.6575,9.6722,9.6722,9.6722,9.6575,9.6575,9.6685,9.6722,9.6722,8.6062,8.621,8.621,8.6265,8.6392,8.6465,8.6483,8.6591,8.7062,8.7224,8.7332,8.7696,8.7858,8.8005,8.8426,8.8629,8.8702,8.9216,8.8886,8.8042,8.839,8.8647,8.8757,8.9473,8.984,8.9913,9.0188,9.028,9.0317,9.0776,9.1033,9.1143,9.1546,9.1767,9.1803,9.1803,9.1803,9.1803,9.1767,9.1803,9.1803,9.1803,9.1803,9.1803,9.1803,9.1803,9.1803,9.1803,9.1803,9.1803,9.1803,9.1803,9.1803,9.1767,9.1803,9.1803,9.1767,9.1767,9.1803,9.173,9.1803,9.1803,9.1803,9.1803,9.1803,9.1803,9.1877,9.2207,9.2317,9.2391,9.2684,9.2758,9.2721,9.2758,9.2464,9.2427,9.2611,9.2721,9.2758,9.2831,9.2794,9.3015,9.3345,9.3565,9.3712,9.4189,9.4299,9.4299,9.4299,9.4226,9.441,9.4593,9.474,9.496,9.5254,9.5584,9.5914,9.5731,9.5584,9.5731,9.5878,9.5914,9.6061,9.6171,9.6502,9.6465,9.6722,9.6722,9.6722,9.6722,9.6722,9.6722,9.6722,9.6722,9.6722,8.6229,8.6392,8.6392,8.6483,8.6611,8.6772,8.6952,8.7098,8.7862,8.8225,8.8409,8.8886,8.9253,8.9326,8.9363,8.9473,8.951,8.9693,8.9767,8.9583,8.962,8.9657,8.9767,9.0372,9.0665,9.0776,9.1326,9.162,9.151,9.162,9.1803,9.173,9.173,9.1803,9.1803,9.1803,9.1803,9.1803,9.1803,9.1803,9.1803,9.1803,9.1803,9.1803,9.1803,9.1803,9.1803,9.1803,9.1803,9.1803,9.1803,9.1803,9.1803,9.1803,9.1803,9.1803,9.1803,9.1803,9.1803,9.1803,9.1803,9.1803,9.1913,9.1877,9.1987,9.2207,9.2501,9.3088,9.3161,9.3455,9.3969,9.4079,9.4116,9.4226,9.3602,9.3492,9.4116,9.4153,9.4006,9.4079,9.4263,9.4336,9.4299,9.4336,9.4446,9.4593,9.4666,9.474,9.474,9.4923,9.4923,9.518,9.5547,9.5694,9.5951,9.6025,9.6318,9.6282,9.6135,9.6245,9.6392,9.6428,9.6502,9.6612,9.6722,9.6722,9.6722,9.6722,9.6722,9.6722,9.6722,9.6722,9.6722,9.6722,9.6722,8.6429,8.6608,8.6644,8.7044,8.7681,8.7788,8.8118,8.8668,8.8942,8.9069,8.9143,8.929,8.9473,8.9473,9.006,9.028,9.0391,9.0849,9.1179,9.1179,9.1179,9.1179,9.1179,9.1326,9.1473,9.151,9.1657,9.1803,9.1803,9.1803,9.1803,9.1803,9.1803,9.1803,9.1803,9.1803,9.1803,9.1803,9.1803,9.1803,9.1803,9.1803,9.1803,9.1803,9.1803,9.1803,9.1803,9.1803,9.1803,9.1803,9.1803,9.1803,9.1803,9.1803,9.1803,9.1803,9.184,9.1803,9.184,9.1877,9.184,9.1877,9.2464,9.2758,9.2794,9.3308,9.3675,9.3969,9.3969,9.4079,9.4299,9.4373,9.4593,9.4997,9.452,9.4153,9.4336,9.4299,9.4299,9.4299,9.4373,9.4666,9.5034,9.5217,9.5364,9.5804,9.5914,9.5914,9.5768,9.5804,9.5878,9.6135,9.6392,9.6465,9.6575,9.6612,9.6649,9.6612,9.6575,9.6539,9.6612,9.6612,9.6649,9.6722,9.6722,9.6722,9.6722,9.6722,9.6722,9.6722,9.6722,9.6722,9.6722,9.6722,9.6722,8.7137,8.7388,8.7681,8.8174,8.8666,8.872,8.8959,8.94,8.9767,8.9913,8.995,9.0298,9.0391,9.0482,9.0922,9.1106,9.1179,9.1583,9.1767,9.1767,9.173,9.173,9.1767,9.1803,9.1803,9.1803,9.1803,9.1803,9.1803,9.1803,9.1803,9.1803,9.1803,9.1803,9.1803,9.1803,9.1803,9.1803,9.1803,9.1803,9.1803,9.1803,9.1803,9.1803,9.1803,9.1803,9.1803,9.1803,9.1803,9.1803,9.1803,9.1803,9.1803,9.1803,9.1803,9.1803,9.2134,9.2354,9.2427,9.2648,9.2831,9.2905,9.3382,9.3529,9.3639,9.4079,9.4336,9.474,9.4813,9.496,9.5217,9.529,9.5511,9.5841,9.5584,9.5327,9.529,9.5364,9.5327,9.5327,9.5327,9.5437,9.5951,9.5988,9.6245,9.6539,9.6539,9.6575,9.6575,9.6722,9.6722,9.6722,9.6722,9.6685,9.6649,9.6685,9.6722,9.6722,9.6722,9.6722,9.6722,9.6722,9.6722,9.6722,9.6722,9.6722,9.6722,9.6722,9.6722,9.6722,9.6722,9.6722,9.6722,9.6722,9.6722,8.8157,8.839,8.9106,8.9436,8.951,8.9546,8.9657,8.984,9.0427,9.0739,9.0849,9.1473,9.1546,9.1803,9.1583,9.1767,9.1767,9.1767,9.1767,9.1803,9.1803,9.1803,9.1803,9.1803,9.1803,9.1803,9.1803,9.1803,9.1803,9.1803,9.1803,9.1803,9.1803,9.1803,9.1803,9.1803,9.1803,9.1803,9.1803,9.1803,9.1803,9.1803,9.1803,9.1803,9.1803,9.1803,9.1803,9.1803,9.184,9.195,9.1877,9.1877,9.1877,9.195,9.206,9.2281,9.2868,9.3198,9.3308,9.3786,9.4153,9.4116,9.4226,9.441,9.4446,9.4666,9.5034,9.5584,9.5602,9.5914,9.6318,9.6612,9.6539,9.6539,9.6575,9.6649,9.6722,9.6722,9.6722,9.6722,9.6685,9.6685,9.6722,9.6722,9.6685,9.6612,9.6722,9.6722,9.6722,9.6722,9.6722,9.6722,9.6722,9.6722,9.6685,9.6722,9.6722,9.6722,9.6722,9.6722,9.6722,9.6722,9.6722,9.6722,9.6722,9.6722,9.6722,9.6722,9.6722,9.6722,9.6722,9.6722,9.6722,9.6722,9.6722,8.9107,8.9143,8.9326,8.9767,9.028,9.0354,9.0702,9.1253,9.1436,9.1473,9.1583,9.173,9.1803,9.1803,9.1803,9.1803,9.1803,9.1803,9.1803,9.1803,9.1803,9.1803,9.1803,9.1803,9.1803,9.1803,9.1803,9.1803,9.1803,9.1803,9.1803,9.1803,9.1803,9.1803,9.1803,9.1803,9.1803,9.1803,9.1803,9.1803,9.1803,9.1803,9.1803,9.1803,9.1803,9.1803,9.1803,9.1803,9.2134,9.2464,9.2281,9.2244,9.2684,9.2831,9.3051,9.3492,9.3822,9.4042,9.4116,9.4263,9.4336,9.4483,9.496,9.5235,9.529,9.5768,9.6135,9.6465,9.6465,9.6465,9.6649,9.6722,9.6722,9.6722,9.6722,9.6722,9.6722,9.6722,9.6722,9.6722,9.6722,9.6722,9.6722,9.6722,9.6722,9.6722,9.6722,9.6722,9.6722,9.6722,9.6722,9.6722,9.6722,9.6722,9.6722,9.6722,9.6722,9.6722,9.6722,9.6722,9.6722,9.6722,9.6722,9.6722,9.6722,9.6722,9.6722,9.6722,9.6722,9.6722,9.6722,9.6722,9.6722,9.6722,9.6722,8.995,9.0024,9.0354,9.0776,9.1106,9.1179,9.14,9.173,9.1803,9.1803,9.1803,9.1803,9.1803,9.1803,9.1803,9.1803,9.1803,9.1803,9.1803,9.1803,9.1803,9.1803,9.1803,9.1803,9.1803,9.1803,9.1803,9.1803,9.1803,9.1803,9.1803,9.1803,9.1803,9.1803,9.1803,9.1803,9.1803,9.1803,9.1803,9.1803,9.1803,9.1803,9.1803,9.1803,9.1803,9.1803,9.1803,9.2244,9.2611,9.2941,9.3015,9.3161,9.3565,9.3675,9.3896,9.4226,9.4703,9.485,9.4887,9.5217,9.5474,9.5364,9.5841,9.5988,9.6098,9.6502,9.6649,9.6722,9.6685,9.6685,9.6722,9.6722,9.6722,9.6722,9.6722,9.6722,9.6722,9.6722,9.6722,9.6722,9.6722,9.6722,9.6722,9.6722,9.6722,9.6722,9.6722,9.6722,9.6722,9.6722,9.6722,9.6722,9.6722,9.6722,9.6722,9.6722,9.6722,9.6722,9.6722,9.6722,9.6722,9.6722,9.6722,9.6722,9.6722,9.6722,9.6722,9.6722,9.6722,9.6722,9.6722,9.6722,9.6722,9.6722,9.6722,9.0776,9.0849,9.151,9.1803,9.1803,9.1767,9.1767,9.1803,9.1803,9.1803,9.1803,9.1803,9.1803,9.1803,9.1803,9.1803,9.1803,9.1803,9.1803,9.1803,9.1803,9.1803,9.1803,9.1803,9.1803,9.1803,9.1803,9.1803,9.1803,9.1803,9.1803,9.1803,9.1803,9.1803,9.1803,9.1803,9.1803,9.1803,9.1803,9.1803,9.1803,9.1803,9.1803,9.1803,9.1803,9.1803,9.195,9.2501,9.3161,9.3308,9.4042,9.4483,9.463,9.452,9.4593,9.4666,9.5401,9.5658,9.5768,9.6208,9.6539,9.6722,9.6685,9.6685,9.6685,9.6649,9.6685,9.6722,9.6722,9.6722,9.6722,9.6722,9.6722,9.6722,9.6722,9.6722,9.6722,9.6722,9.6722,9.6722,9.6722,9.6722,9.6722,9.6722,9.6722,9.6722,9.6722,9.6722,9.6722,9.6722,9.6722,9.6722,9.6722,9.6722,9.6722,9.6722,9.6722,9.6722,9.6722,9.6722,9.6722,9.6722,9.6722,9.6722,9.6722,9.6722,9.6722,9.6722,9.6722,9.6722,9.6722,9.6722,9.6722,9.6722,9.6722,9.162,9.162,9.173,9.1803,9.1803,9.1803,9.1803,9.1803,9.1803,9.1803,9.1803,9.1803,9.1803,9.1803,9.1803,9.1803,9.1803,9.1803,9.1803,9.1803,9.1803,9.1803,9.1803,9.1803,9.1803,9.1803,9.1803,9.1803,9.1803,9.1803,9.1803,9.1803,9.1803,9.1803,9.1803,9.1803,9.1803,9.1803,9.1803,9.1803,9.1803,9.1803,9.1803,9.1803,9.1803,9.1803,9.1987,9.2648,9.3418,9.4079,9.4887,9.5584,9.5878,9.5584,9.5621,9.5988,9.6245,9.6355,9.6428,9.6575,9.6722,9.6722,9.6722,9.6722,9.6722,9.6722,9.6722,9.6722,9.6722,9.6722,9.6722,9.6722,9.6722,9.6722,9.6722,9.6722,9.6722,9.6722,9.6722,9.6722,9.6722,9.6722,9.6722,9.6722,9.6722,9.6722,9.6722,9.6722,9.6722,9.6722,9.6722,9.6722,9.6722,9.6722,9.6722,9.6722,9.6722,9.6722,9.6722,9.6722,9.6722,9.6722,9.6722,9.6722,9.6722,9.6722,9.6722,9.6722,9.6722,9.6722,9.6722,9.6722,9.6722,9.6722,9.6722,9.1803,9.1803,9.1803,9.1803,9.1803,9.1803,9.1803,9.1803,9.1803,9.1803,9.1803,9.1803,9.1803,9.1803,9.1803,9.1803,9.1803,9.1803,9.1803,9.1803,9.1803,9.1803,9.1803,9.1803,9.1803,9.1803,9.1803,9.1803,9.1803,9.1803,9.1803,9.1803,9.1803,9.1803,9.1803,9.1803,9.1803,9.1803,9.1803,9.1803,9.1803,9.1803,9.1803,9.1803,9.1803,9.1803,9.2024,9.3125,9.3859,9.4446,9.5474,9.6208,9.6465,9.6465,9.6282,9.6612,9.6722,9.6722,9.6722,9.6722,9.6722,9.6722,9.6722,9.6722,9.6722,9.6722,9.6722,9.6722,9.6722,9.6722,9.6722,9.6722,9.6722,9.6722,9.6722,9.6722,9.6722,9.6722,9.6722,9.6722,9.6722,9.6722,9.6722,9.6722,9.6722,9.6722,9.6722,9.6722,9.6722,9.6722,9.6722,9.6722,9.6722,9.6722,9.6722,9.6722,9.6722,9.6722,9.6722,9.6722,9.6722,9.6722,9.6722,9.6722,9.6722,9.6722,9.6722,9.6722,9.6722,9.6722,9.6722,9.6722,9.6722,9.6722,9.6722,9.1803,9.1803,9.1803,9.1803,9.1803,9.1803,9.1803,9.1803,9.1803,9.1803,9.1803,9.1803,9.1803,9.1803,9.1803,9.1803,9.1803,9.1803,9.1803,9.1803,9.1803,9.1803,9.1803,9.1803,9.1803,9.1803,9.1803,9.1803,9.1803,9.1803,9.1803,9.1803,9.1803,9.1803,9.1803,9.1803,9.1803,9.1803,9.1803,9.1803,9.1803,9.1803,9.1803,9.1803,9.1803,9.1803,9.195,9.3345,9.4079,9.4703,9.5658,9.6685,9.6685,9.6722,9.6722,9.6722,9.6722,9.6722,9.6722,9.6722,9.6722,9.6722,9.6722,9.6722,9.6722,9.6722,9.6722,9.6722,9.6722,9.6722,9.6722,9.6722,9.6722,9.6722,9.6722,9.6722,9.6722,9.6722,9.6722,9.6722,9.6722,9.6722,9.6722,9.6722,9.6722,9.6722,9.6722,9.6722,9.6722,9.6722,9.6722,9.6722,9.6722,9.6722,9.6722,9.6722,9.6722,9.6722,9.6722,9.6722,9.6722,9.6722,9.6722,9.6722,9.6722,9.6722,9.6722,9.6722,9.6722,9.6722,9.6722,9.6722,9.6722,9.6722,9.6722,9.1803,9.1803,9.1803,9.1803,9.1803,9.1803,9.1803,9.1803,9.1803,9.1803,9.1803,9.1803,9.1803,9.1803,9.1803,9.1803,9.1803,9.1803,9.1803,9.1803,9.1803,9.1803,9.1803,9.1803,9.1803,9.1803,9.1803,9.1803,9.1803,9.1803,9.1803,9.1803,9.1803,9.1803,9.1803,9.1803,9.1803,9.1803,9.1803,9.1803,9.1803,9.1803,9.1803,9.1803,9.1803,9.1803,9.2024,9.3345,9.4263,9.4483,9.5841,9.6649,9.6722,9.6722,9.6722,9.6722,9.6722,9.6722,9.6722,9.6722,9.6722,9.6722,9.6722,9.6722,9.6722,9.6722,9.6722,9.6722,9.6722,9.6722,9.6722,9.6722,9.6722,9.6722,9.6722,9.6722,9.6722,9.6722,9.6722,9.6722,9.6722,9.6722,9.6722,9.6722,9.6722,9.6722,9.6722,9.6722,9.6722,9.6722,9.6722,9.6722,9.6722,9.6722,9.6722,9.6722,9.6722,9.6722,9.6722,9.6722,9.6722,9.6722,9.6722,9.6722,9.6722,9.6722,9.6722,9.6722,9.6722,9.6722,9.6722,9.6722,9.6722,9.6722,9.6722,9.1803,9.1803,9.1803,9.1803,9.1803,9.1803,9.1803,9.1803,9.1803,9.1803,9.1803,9.1803,9.1803,9.1803,9.1803,9.1803,9.1803,9.1803,9.1803,9.1803,9.1803,9.1803,9.1803,9.1803,9.1803,9.1803,9.1803,9.1803,9.1803,9.1803,9.1803,9.1803,9.1803,9.1803,9.1803,9.1803,9.1803,9.1803,9.1803,9.1803,9.1803,9.1803,9.1803,9.1803,9.1803,9.1803,9.217,9.3382,9.4226,9.4593,9.5841,9.6685,9.6722,9.6722,9.6722,9.6722,9.6722,9.6722,9.6722,9.6722,9.6722,9.6722,9.6722,9.6722,9.6722,9.6722,9.6722,9.6722,9.6722,9.6722,9.6722,9.6722,9.6722,9.6722,9.6722,9.6722,9.6722,9.6722,9.6722,9.6722,9.6722,9.6722,9.6722,9.6722,9.6722,9.6722,9.6722,9.6722,9.6722,9.6722,9.6722,9.6722,9.6722,9.6722,9.6722,9.6722,9.6722,9.6722,9.6722,9.6722,9.6722,9.6722,9.6722,9.6722,9.6722,9.6722,9.6722,9.6722,9.6722,9.6722,9.6722,9.6722,9.6722,9.6722,9.6722,9.1803,9.1803,9.1803,9.1803,9.1803,9.1803,9.1803,9.1803,9.1803,9.1803,9.1803,9.1803,9.1803,9.1803,9.1803,9.1803,9.1803,9.1803,9.1803,9.1803,9.1803,9.1803,9.1803,9.1803,9.1803,9.1803,9.1803,9.1803,9.1803,9.1803,9.1803,9.1803,9.1803,9.1803,9.1803,9.1803,9.1803,9.1803,9.1803,9.1803,9.1803,9.1803,9.1803,9.1803,9.1803,9.1803,9.2024,9.3418,9.4263,9.4593,9.5841,9.6685,9.6722,9.6722,9.6722,9.6722,9.6722,9.6722,9.6722,9.6722,9.6722,9.6722,9.6722,9.6722,9.6722,9.6722,9.6722,9.6722,9.6722,9.6722,9.6722,9.6722,9.6722,9.6722,9.6722,9.6722,9.6722,9.6722,9.6722,9.6722,9.6722,9.6722,9.6722,9.6722,9.6722,9.6722,9.6722,9.6722,9.6722,9.6722,9.6722,9.6722,9.6722,9.6722,9.6722,9.6722,9.6722,9.6722,9.6722,9.6722,9.6722,9.6722,9.6722,9.6722,9.6722,9.6722,9.6722,9.6722,9.6722,9.6722,9.6722,9.6722,9.6722,9.6722,9.6722,9.1803,9.1803,9.1803,9.1803,9.1803,9.1803,9.1803,9.1803,9.1803,9.1803,9.1803,9.1803,9.1803,9.1803,9.1803,9.1803,9.1803,9.1803,9.1803,9.1803,9.1803,9.1803,9.1803,9.1803,9.1803,9.1803,9.1803,9.1803,9.1803,9.1803,9.1803,9.1803,9.1803,9.1803,9.1803,9.1803,9.1803,9.1803,9.1803,9.1803,9.1803,9.1803,9.1803,9.1803,9.1803,9.1803,9.1877,9.3308,9.4263,9.4336,9.5694,9.6649,9.6685,9.6685,9.6722,9.6722,9.6722,9.6722,9.6722,9.6722,9.6722,9.6722,9.6722,9.6722,9.6722,9.6722,9.6722,9.6722,9.6722,9.6722,9.6722,9.6722,9.6722,9.6722,9.6722,9.6722,9.6722,9.6722,9.6722,9.6722,9.6722,9.6722,9.6722,9.6722,9.6722,9.6722,9.6722,9.6722,9.6722,9.6722,9.6722,9.6722,9.6722,9.6722,9.6722,9.6722,9.6722,9.6722,9.6722,9.6722,9.6722,9.6722,9.6722,9.6722,9.6722,9.6722,9.6722,9.6722,9.6722,9.6722,9.6722,9.6722,9.6722,9.6722,9.6722,9.1803,9.1803,9.1803,9.1803,9.1803,9.1803,9.1803,9.1803,9.1803,9.1803,9.1803,9.1803,9.1803,9.1803,9.1803,9.1803,9.1803,9.1803,9.1803,9.1803,9.1803,9.1803,9.1803,9.1803,9.1803,9.1803,9.1803,9.1803,9.1803,9.1803,9.1803,9.1803,9.1803,9.1803,9.1803,9.1803,9.1803,9.1803,9.1803,9.1803,9.1803,9.1803,9.1803,9.1803,9.1803,9.1803,9.195,9.2941,9.3675,9.4446,9.5437,9.6098,9.6649,9.6685,9.6722,9.6722,9.6722,9.6722,9.6722,9.6722,9.6722,9.6722,9.6722,9.6722,9.6722,9.6722,9.6722,9.6722,9.6722,9.6722,9.6722,9.6722,9.6722,9.6722,9.6722,9.6722,9.6722,9.6722,9.6722,9.6722,9.6722,9.6722,9.6722,9.6722,9.6722,9.6722,9.6722,9.6722,9.6722,9.6722,9.6722,9.6722,9.6722,9.6722,9.6722,9.6722,9.6722,9.6722,9.6722,9.6722,9.6722,9.6722,9.6722,9.6722,9.6722,9.6722,9.6722,9.6722,9.6722,9.6722,9.6722,9.6722,9.6722,9.6722,9.6722,9.1803,9.1803,9.1803,9.1803,9.1803,9.1803,9.1803,9.1803,9.1803,9.1803,9.1803,9.1803,9.1803,9.1803,9.1803,9.1803,9.1803,9.1803,9.1803,9.1803,9.1803,9.1803,9.1803,9.1803,9.1803,9.1803,9.1803,9.1803,9.1803,9.1803,9.1803,9.1803,9.1803,9.1803,9.1803,9.1803,9.1803,9.1803,9.1803,9.1803,9.1803,9.1803,9.1803,9.1803,9.1803,9.1803,9.2024,9.2721,9.3529,9.4299,9.5144,9.5914,9.6392,9.6722,9.6722,9.6722,9.6722,9.6722,9.6722,9.6722,9.6722,9.6722,9.6722,9.6722,9.6722,9.6722,9.6722,9.6722,9.6722,9.6722,9.6722,9.6722,9.6722,9.6722,9.6722,9.6722,9.6722,9.6722,9.6722,9.6722,9.6722,9.6722,9.6722,9.6722,9.6722,9.6722,9.6722,9.6722,9.6722,9.6722,9.6722,9.6722,9.6722,9.6722,9.6722,9.6722,9.6722,9.6722,9.6722,9.6722,9.6722,9.6722,9.6722,9.6722,9.6722,9.6722,9.6722,9.6722,9.6722,9.6722,9.6722,9.6722,9.6722,9.6722,9.6722,9.1803,9.1803,9.1803,9.1803,9.1803,9.1803,9.1803,9.1803,9.1803,9.1803,9.1803,9.1803,9.1803,9.1803,9.1803,9.1803,9.1803,9.1803,9.1803,9.1803,9.1803,9.1803,9.1803,9.1803,9.1803,9.1803,9.1803,9.1803,9.1803,9.1803,9.1803,9.1803,9.1803,9.1803,9.1803,9.1803,9.1803,9.1803,9.1803,9.1803,9.1803,9.1803,9.1803,9.1803,9.1803,9.1803,9.1987,9.2427,9.3198,9.4006,9.485,9.5658,9.6392,9.6612,9.6685,9.6722,9.6722,9.6722,9.6722,9.6722,9.6722,9.6722,9.6722,9.6722,9.6722,9.6722,9.6722,9.6722,9.6722,9.6722,9.6722,9.6722,9.6722,9.6722,9.6722,9.6722,9.6722,9.6722,9.6722,9.6722,9.6722,9.6722,9.6722,9.6722,9.6722,9.6722,9.6722,9.6722,9.6722,9.6722,9.6722,9.6722,9.6722,9.6722,9.6722,9.6722,9.6722,9.6722,9.6722,9.6722,9.6722,9.6722,9.6722,9.6722,9.6722,9.6722,9.6722,9.6722,9.6722,9.6722,9.6722,9.6722,9.6722,9.6722,9.6722,9.1803,9.1803,9.1803,9.1803,9.1803,9.1803,9.1803,9.1803,9.1803,9.1803,9.1803,9.1803,9.1803,9.1803,9.1803,9.1803,9.1803,9.1803,9.1803,9.1803,9.1803,9.1803,9.1803,9.1803,9.1803,9.1803,9.1803,9.1803,9.1803,9.1803,9.1803,9.1803,9.1803,9.1803,9.1803,9.1803,9.1803,9.1803,9.1803,9.1803,9.1803,9.1803,9.1803,9.1803,9.1803,9.1803,9.1803,9.2244,9.2758,9.3529,9.4336,9.5107,9.5914,9.6282,9.6649,9.6685,9.6722,9.6722,9.6722,9.6722,9.6722,9.6722,9.6722,9.6722,9.6722,9.6722,9.6722,9.6722,9.6722,9.6722,9.6722,9.6722,9.6722,9.6722,9.6722,9.6722,9.6722,9.6722,9.6722,9.6722,9.6722,9.6722,9.6722,9.6722,9.6722,9.6722,9.6722,9.6722,9.6722,9.6722,9.6722,9.6722,9.6722,9.6722,9.6722,9.6722,9.6722,9.6722,9.6722,9.6722,9.6722,9.6722,9.6722,9.6722,9.6722,9.6722,9.6722,9.6722,9.6722,9.6722,9.6722,9.6722,9.6722,9.6722,9.6722,9.1803,9.1803,9.1803,9.1803,9.1803,9.1803,9.1803,9.1803,9.1803,9.1803,9.1803,9.1803,9.1803,9.1803,9.1803,9.1803,9.1803,9.1803,9.1803,9.1803,9.1803,9.1803,9.1803,9.1803,9.1803,9.1803,9.1803,9.1803,9.1803,9.1803,9.1803,9.1803,9.1803,9.1803,9.1803,9.1803,9.1803,9.1803,9.1803,9.1803,9.1803,9.1803,9.1803,9.1803,9.1803,9.1803,9.1803,9.1913,9.2207,9.2978,9.3675,9.441,9.529,9.5951,9.6428,9.6575,9.6722,9.6722,9.6722,9.6722,9.6722,9.6722,9.6722,9.6722,9.6722,9.6722,9.6722,9.6722,9.6722,9.6722,9.6722,9.6722,9.6722,9.6722,9.6722,9.6722,9.6722,9.6722,9.6722,9.6722,9.6722,9.6722,9.6722,9.6722,9.6722,9.6722,9.6722,9.6722,9.6722,9.6722,9.6722,9.6722,9.6722,9.6722,9.6722,9.6722,9.6722,9.6722,9.6722,9.6722,9.6722,9.6722,9.6722,9.6722,9.6722,9.6722,9.6722,9.6722,9.6722,9.6722,9.6722,9.6722,9.6722,9.6722,9.6722,9.1803,9.1803,9.1803,9.1803,9.1803,9.1803,9.1803,9.1803,9.1803,9.1803,9.1803,9.1803,9.1803,9.1803,9.1803,9.1803,9.1803,9.1803,9.1803,9.1803,9.1803,9.1803,9.1803,9.1803,9.1803,9.1803,9.1803,9.1803,9.1803,9.1803,9.1803,9.1803,9.1803,9.1803,9.1803,9.1803,9.1803,9.1803,9.1803,9.1803,9.1803,9.1803,9.1803,9.1803,9.1803,9.1803,9.1803,9.184,9.2244,9.2721,9.3161,9.4079,9.4831,9.5418,9.5969,9.6465,9.6685,9.6722,9.6722,9.6722,9.6722,9.6722,9.6722,9.6722,9.6722,9.6722,9.6722,9.6722,9.6722,9.6722,9.6722,9.6722,9.6722,9.6722,9.6722,9.6722,9.6722,9.6722,9.6722,9.6722,9.6722,9.6722,9.6722,9.6722,9.6722,9.6722,9.6722,9.6722,9.6722,9.6722,9.6722,9.6722,9.6722,9.6722,9.6722,9.6722,9.6722,9.6722,9.6722,9.6722,9.6722,9.6722,9.6722,9.6722,9.6722,9.6722,9.6722,9.6722,9.6722,9.6722,9.6722,9.6722,9.6722,9.6722,9.6722,9.1803,9.1803,9.1803,9.1803,9.1803,9.1803,9.1803,9.1803,9.1803,9.1803,9.1803,9.1803,9.1803,9.1803,9.1803,9.1803,9.1803,9.1803,9.1803,9.1803,9.1803,9.1803,9.1803,9.1803,9.1803,9.1803,9.1803,9.1803,9.1803,9.1803,9.1803,9.1803,9.1803,9.1803,9.1803,9.1803,9.1803,9.1803,9.1803,9.1803,9.1803,9.1803,9.1803,9.1803,9.1803,9.1803,9.1803,9.1803,9.206,9.217,9.2794,9.3529,9.3639,9.4794,9.5878,9.6575,9.6722,9.6722,9.6722,9.6722,9.6722,9.6722,9.6722,9.6722,9.6722,9.6722,9.6722,9.6722,9.6722,9.6722,9.6722,9.6722,9.6722,9.6722,9.6722,9.6722,9.6722,9.6722,9.6722,9.6722,9.6722,9.6722,9.6722,9.6722,9.6722,9.6722,9.6722,9.6722,9.6722,9.6722,9.6722,9.6722,9.6722,9.6722,9.6722,9.6722,9.6722,9.6722,9.6722,9.6722,9.6722,9.6722,9.6722,9.6722,9.6722,9.6722,9.6722,9.6722,9.6722,9.6722,9.6722,9.6722,9.6722,9.6722,9.6722,9.1803,9.1803,9.1803,9.1803,9.1803,9.1803,9.1803,9.1803,9.1803,9.1803,9.1803,9.1803,9.1803,9.1803,9.1803,9.1803,9.1803,9.1803,9.1803,9.1803,9.1803,9.1803,9.1803,9.1803,9.1803,9.1803,9.1803,9.1803,9.1803,9.1803,9.1803,9.1803,9.1803,9.1803,9.1803,9.1803,9.1803,9.1803,9.1803,9.1803,9.1803,9.1803,9.1803,9.1803,9.1803,9.1803,9.1803,9.1803,9.1803,9.1803,9.2427,9.2794,9.3235,9.4611,9.5528,9.6208,9.6575,9.6649,9.6722,9.6722,9.6722,9.6722,9.6722,9.6722,9.6722,9.6722,9.6722,9.6722,9.6722,9.6722,9.6722,9.6722,9.6722,9.6722,9.6722,9.6722,9.6722,9.6722,9.6722,9.6722,9.6722,9.6722,9.6722,9.6722,9.6722,9.6722,9.6722,9.6722,9.6722,9.6722,9.6722,9.6722,9.6722,9.6722,9.6722,9.6722,9.6722,9.6722,9.6722,9.6722,9.6722,9.6722,9.6722,9.6722,9.6722,9.6722,9.6722,9.6722,9.6722,9.6722,9.6722,9.6722,9.6722,9.6722,9.6722,9.1803,9.1803,9.1803,9.1803,9.1803,9.1803,9.1803,9.1803,9.1803,9.1803,9.1803,9.1803,9.1803,9.1803,9.1803,9.1803,9.1803,9.1803,9.1803,9.1803,9.1803,9.1803,9.1803,9.1803,9.1803,9.1803,9.1803,9.1803,9.1803,9.1803,9.1803,9.1803,9.1803,9.1803,9.1803,9.1803,9.1803,9.1803,9.1803,9.1803,9.1803,9.1803,9.1803,9.1803,9.1803,9.1803,9.1803,9.1803,9.1803,9.1803,9.1913,9.2281,9.3308,9.4171,9.496,9.5694,9.6171,9.6502,9.6649,9.6722,9.6722,9.6722,9.6722,9.6722,9.6722,9.6722,9.6722,9.6722,9.6722,9.6722,9.6722,9.6722,9.6722,9.6722,9.6722,9.6722,9.6722,9.6722,9.6722,9.6722,9.6722,9.6722,9.6722,9.6722,9.6722,9.6722,9.6722,9.6722,9.6722,9.6722,9.6722,9.6722,9.6722,9.6722,9.6722,9.6722,9.6722,9.6722,9.6722,9.6722,9.6722,9.6722,9.6722,9.6722,9.6722,9.6722,9.6722,9.6722,9.6722,9.6722,9.6722,9.6722,9.6722,9.6722,9.6722,9.1803,9.1803,9.1803,9.1803,9.1803,9.1803,9.1803,9.1803,9.1803,9.1803,9.1803,9.1803,9.1803,9.1803,9.1803,9.1803,9.1803,9.1803,9.1803,9.1803,9.1803,9.1803,9.1803,9.1803,9.1803,9.1803,9.1803,9.1803,9.1803,9.1803,9.1803,9.1803,9.1803,9.1803,9.1803,9.1803,9.1803,9.1803,9.1803,9.1803,9.1803,9.1803,9.1803,9.1803,9.1803,9.1803,9.1803,9.1803,9.1803,9.1803,9.1803,9.2281,9.3088,9.3529,9.4299,9.5235,9.5621,9.6025,9.6428,9.6575,9.6612,9.6685,9.6722,9.6722,9.6722,9.6722,9.6722,9.6722,9.6722,9.6722,9.6722,9.6722,9.6722,9.6722,9.6722,9.6722,9.6722,9.6722,9.6722,9.6722,9.6722,9.6722,9.6722,9.6722,9.6722,9.6722,9.6722,9.6722,9.6722,9.6722,9.6722,9.6722,9.6722,9.6722,9.6722,9.6722,9.6722,9.6722,9.6722,9.6722,9.6722,9.6722,9.6722,9.6722,9.6722,9.6722,9.6722,9.6722,9.6722,9.6722,9.6722,9.6722,9.6722,9.6722,9.6722,9.1803,9.1803,9.1803,9.1803,9.1803,9.1803,9.1803,9.1803,9.1803,9.1803,9.1803,9.1803,9.1803,9.1803,9.1803,9.1803,9.1803,9.1803,9.1803,9.1803,9.1803,9.1803,9.1803,9.1803,9.1803,9.1803,9.1803,9.1803,9.1803,9.1803,9.1803,9.1803,9.1803,9.1803,9.1803,9.1803,9.1803,9.1803,9.1803,9.1803,9.1803,9.1803,9.1803,9.1803,9.1803,9.1803,9.1803,9.1803,9.1803,9.1803,9.1803,9.1913,9.2501,9.2978,9.3529,9.4226,9.474,9.5327,9.5914,9.6245,9.6355,9.6502,9.6685,9.6685,9.6722,9.6722,9.6722,9.6722,9.6722,9.6722,9.6722,9.6722,9.6722,9.6722,9.6722,9.6722,9.6722,9.6722,9.6722,9.6722,9.6722,9.6722,9.6722,9.6722,9.6722,9.6722,9.6722,9.6722,9.6722,9.6722,9.6722,9.6722,9.6722,9.6722,9.6722,9.6722,9.6722,9.6722,9.6722,9.6722,9.6722,9.6722,9.6722,9.6722,9.6722,9.6722,9.6722,9.6722,9.6722,9.6722,9.6722,9.6722,9.6722,9.6722,9.6722,9.1803,9.1803,9.1803,9.1803,9.1803,9.1803,9.1803,9.1803,9.1803,9.1803,9.1803,9.1803,9.1803,9.1803,9.1803,9.1803,9.1803,9.1803,9.1803,9.1803,9.1803,9.1803,9.1803,9.1803,9.1803,9.1803,9.1803,9.1803,9.1803,9.1803,9.1803,9.1803,9.1803,9.1803,9.1803,9.1803,9.1803,9.1803,9.1803,9.1803,9.1803,9.1803,9.1803,9.1803,9.1803,9.1803,9.1803,9.1803,9.1803,9.1803,9.1803,9.1877,9.2024,9.2464,9.2905,9.3455,9.3896,9.4556,9.518,9.5584,9.5951,9.6318,9.6539,9.6685,9.6685,9.6722,9.6722,9.6722,9.6722,9.6722,9.6722,9.6722,9.6722,9.6722,9.6722,9.6722,9.6722,9.6722,9.6722,9.6722,9.6722,9.6722,9.6722,9.6722,9.6722,9.6722,9.6722,9.6722,9.6722,9.6722,9.6722,9.6722,9.6722,9.6722,9.6722,9.6722,9.6722,9.6722,9.6722,9.6722,9.6722,9.6722,9.6722,9.6722,9.6722,9.6722,9.6722,9.6722,9.6722,9.6722,9.6722,9.6722,9.6722,9.6722,9.6722,9.1803,9.1803,9.1803,9.1803,9.1803,9.1803,9.1803,9.1803,9.1803,9.1803,9.1803,9.1803,9.1803,9.1803,9.1803,9.1803,9.1803,9.1803,9.1803,9.1803,9.1803,9.1803,9.1803,9.1803,9.1803,9.1803,9.1803,9.1803,9.1803,9.1803,9.1803,9.1803,9.1803,9.1803,9.1803,9.1803,9.1803,9.1803,9.1803,9.1803,9.1803,9.1803,9.1803,9.1803,9.1803,9.1803,9.1803,9.1803,9.1803,9.1803,9.1803,9.1803,9.1877,9.206,9.2427,9.2794,9.3235,9.3712,9.4299,9.4887,9.5364,9.5878,9.6135,9.6612,9.6649,9.6722,9.6722,9.6722,9.6722,9.6722,9.6722,9.6722,9.6722,9.6722,9.6722,9.6722,9.6722,9.6722,9.6722,9.6722,9.6722,9.6722,9.6722,9.6722,9.6722,9.6722,9.6722,9.6722,9.6722,9.6722,9.6722,9.6722,9.6722,9.6722,9.6722,9.6722,9.6722,9.6722,9.6722,9.6722,9.6722,9.6722,9.6722,9.6722,9.6722,9.6722,9.6722,9.6722,9.6722,9.6722,9.6722,9.6722,9.6722,9.6722,9.6722]}]]